                ,  2.065,  2.215,  2.365,  2.515,  2.665,  2.815,  2.965,  3.115,  3.265,  3.415,  3.565,  3.715,  3.865,  4.015,  4.165,  4.315,  4.465,  4.615,  4.765,  4.915,  5.065,  5.215,  5.365,  5.515,  5.665,  5.815,  5.965,  6.115,  6.265,  6.415,  6.565,  6.715,  6.865,  7.015,  7.165,  7.315,  7.465,  7.615,  7.765,  7.915,  8.065,  8.215,  8.365,  8.515,  8.665,  8.815,  8.965,  9.115,  9.265,  9.415,  9.565,  9.715,  9.865, 10.015, 10.165, 10.315, 10.465, 10.615, 10.765, 10.915, 11.065, 11.215, 11.365, 11.515, 11.665, 11.815, 11.965, 12.115, 12.265, 12.415, 12.565, 12.715, 12.865, 13.015, 13.165, 13.315, 13.465, 13.615, 13.765, 13.915, 14.065, 14.215, 14.365, 14.515, 14.665, 14.815, 14.965, 15.115, 15.265, 15.415, 15.565, 15.715, 15.865, 16.015, 16.165, 16.315, 16.465, 16.615, 16.765, 16.915, 17.065, 17.215, 17.365, 17.515, 17.665, 17.815, 17.965, 18.115, 18.265, 18.415, 18.565, 18.715, 18.865, 19.015, 19.165, 19.315, 19.465, 19.615, 19.765, 19.915
2006/01/16 00:00,    3.1,    3.1,    3.3,    3.1,    2.4,    2.1,    3.2,    3.5,    3.5,    3.5,    3.9,    4.2,    4.5,    5.0,    5.7,    6.0,    5.1,    3.1,    3.6,    3.3,  999.0,    3.1,    2.8,    3.2,    3.5,    3.5,    3.7,    3.2,    3.0,    3.3,    2.7,    2.6,    2.6,    2.7,    3.2,    2.6,    3.0,    3.9,    4.3,    3.3,    2.7,    2.3,    2.7,    2.6,    2.3,    2.1,    2.0,    1.2,    0.6,   -0.3,   -0.9,  999.0,   -2.0,   -2.1,   -2.0,   -3.0,   -3.6,   -3.5,   -3.4,   -2.8,   -2.7,   -2.0,  999.0,   -2.2,   -3.6,   -4.9,   -5.5,  999.0,  999.0,  999.0,  999.0,  999.0,  999.0,  999.0,  999.0,  999.0,  999.0,  999.0,  999.0,  999.0,  999.0,  999.0,  999.0,  999.0,  999.0,  999.0,  999.0,  999.0,  999.0,  999.0,  999.0,  999.0,  999.0,  999.0,  999.0,  999.0,  999.0,  999.0,  999.0,  999.0,  999.0,  999.0,  999.0,  999.0,  999.0,  999.0,  999.0,  999.0,  999.0,  999.0,  999.0,  999.0,  999.0,  999.0,  999.0,  999.0,  999.0,  999.0,  999.0,  999.0
2006/01/16 00:10,    3.3,    3.1,    3.3,    3.2,    3.0,    2.5,    3.2,    3.5,    3.8,    3.9,    4.1,    4.1,    4.3,    4.8,    5.6,    5.8,    5.1,    3.0,    3.5,    4.0,    3.4,    3.0,    2.7,    3.3,    3.4,    3.5,    3.7,    3.1,    2.7,    3.5,    2.9,    2.1,    2.4,    2.5,    3.2,    2.5,    2.9,    3.7,    4.3,    3.4,    3.0,    2.3,    2.3,    2.4,    2.5,    2.4,    2.1,    1.4,    0.7,    0.2,   -0.7,   -0.6,   -1.7,   -2.0,   -2.0,   -2.9,   -3.5,   -3.3,   -3.1,   -2.8,   -2.6,   -1.9,   -2.0,   -1.9,   -3.7,   -4.7,   -5.2,  999.0,  999.0,  999.0,  999.0,  999.0,  999.0,   -8.1,  999.0,  999.0,  999.0,  999.0,  999.0,  999.0,  999.0,  999.0,  999.0,  999.0,  999.0,  999.0,  999.0,  999.0,  999.0,  999.0,  999.0,  999.0,  999.0,  999.0,  999.0,  999.0,  999.0,  999.0,  999.0,  999.0,  999.0,  999.0,  999.0,  999.0,  999.0,  999.0,  999.0,  999.0,  999.0,  999.0,  999.0,   -2.6,  999.0,  999.0,  999.0,  999.0,  999.0,  999.0,  999.0,  999.0
2006/01/16 00:20,    3.6,    3.2,    3.4,    3.7,    3.1,    2.6,    3.1,    3.3,    4.0,    3.9,    3.9,    3.9,    4.2,    4.9,    5.5,    5.4,    5.0,    3.7,    3.5,    4.8,    3.3,    2.9,    2.7,    3.7,    3.1,    3.4,    4.0,    3.2,    2.8,    3.6,    3.6,    2.4,    2.6,    2.6,    3.3,    2.9,    3.2,    4.2,    4.3,    3.6,    3.5,    2.5,    1.6,    1.9,    2.4,    2.6,    2.0,    1.3,    0.7,   -0.1,   -0.7,   -0.7,   -1.4,   -2.0,   -2.0,   -2.6,   -2.9,   -3.3,   -2.9,   -2.7,   -2.4,   -2.3,  999.0,   -2.7,   -4.0,   -4.8,   -5.8,  999.0,  999.0,  999.0,   -6.3,   -7.0,  999.0,   -8.1,  999.0,  999.0,  999.0,  999.0,  999.0,  999.0,  999.0,  999.0,  999.0,  999.0,  999.0,  999.0,  999.0,  999.0,  999.0,  999.0,  999.0,  999.0,  999.0,  999.0,  999.0,  999.0,  999.0,  999.0,  999.0,  999.0,  999.0,  999.0,  999.0,  999.0,  999.0,  999.0,  999.0,  999.0,  999.0,  999.0,  999.0,  999.0,  999.0,  999.0,  999.0,  999.0,  999.0,  999.0,  999.0,  999.0
2006/01/16 00:30,    7.9,    2.9,    2.8,    2.9,    3.0,    2.1,    1.7,    2.7,    4.0,    3.9,    3.6,    3.8,    4.2,    4.7,    5.3,    5.3,    4.9,    3.8,    3.9,    5.1,    3.4,    2.9,    2.9,    3.9,    2.8,    2.5,    3.4,    3.4,    3.0,    3.5,    3.7,    2.7,    2.7,    2.8,    3.3,    3.2,    3.5,    4.4,    4.3,    3.7,    3.8,    2.7,    1.7,    1.6,    2.3,    2.8,    2.2,    1.8,    1.0,    0.1,   -0.4,   -0.8,   -1.4,   -1.6,   -1.7,   -2.4,   -2.7,   -2.8,   -3.0,   -3.0,   -2.4,   -2.2,   -2.0,   -3.2,   -4.0,   -4.8,   -5.4,  999.0,  999.0,   -5.1,   -6.7,   -7.4,   -8.4,  999.0,  999.0,  999.0,  999.0,  999.0,  999.0,  999.0,  -13.0,  999.0,  999.0,  999.0,  999.0,  999.0,  999.0,  999.0,  999.0,  999.0,  999.0,  999.0,  999.0,  999.0,  999.0,  999.0,  999.0,  999.0,  999.0,  999.0,  999.0,  -19.7,  -19.0,  999.0,  999.0,  999.0,  999.0,  999.0,  999.0,  999.0,  999.0,  999.0,  999.0,  999.0,  999.0,  999.0,  999.0,  999.0,  999.0,  999.0
2006/01/16 00:40,    7.4,    2.4,    1.8,    2.4,    2.7,    1.5,    1.6,    2.5,    3.8,    3.9,    3.4,    3.5,    3.8,    4.3,    4.9,    5.2,    4.9,    3.9,    4.1,    4.7,    3.5,    3.2,    3.1,    3.9,    2.8,    2.4,    3.0,    3.7,    3.4,    3.6,    3.9,    2.9,    3.0,    2.8,    3.4,    3.5,    3.7,    4.3,    4.1,    3.6,    3.4,    2.1,    2.0,    1.9,    2.3,    2.9,    2.1,    1.9,    1.2,    0.1,   -0.4,   -0.7,   -1.7,   -1.6,   -1.8,   -2.6,   -3.1,   -3.0,   -3.1,   -3.2,   -2.4,   -1.9,   -2.1,   -3.1,   -4.2,   -4.4,  999.0,  999.0,  999.0,   -5.4,   -6.8,   -7.8,  999.0,  999.0,  999.0,  999.0,  999.0,  999.0,  999.0,  -11.6,  -12.7,  999.0,  999.0,  999.0,  999.0,  999.0,  999.0,  999.0,  999.0,  999.0,  999.0,  999.0,  999.0,  999.0,  999.0,  999.0,  999.0,  999.0,  999.0,  999.0,  999.0,  -25.4,  999.0,  -14.6,  999.0,  999.0,  999.0,  999.0,  999.0,  999.0,  999.0,  999.0,  999.0,  999.0,  999.0,  999.0,  999.0,  999.0,  999.0,  999.0
2006/01/16 00:50,    2.3,    2.7,    2.0,    2.4,    2.7,    1.3,    1.6,    2.8,    3.4,    3.7,    3.4,    3.5,    3.6,    4.1,    4.5,    4.8,    4.8,    3.6,    3.7,    4.2,    3.5,    3.5,    3.2,    3.6,    3.4,    2.6,    2.8,    3.5,    3.4,    3.3,    3.7,    2.9,    2.9,    2.7,    3.3,    3.4,    3.6,    3.9,    3.2,    2.9,    2.2,    2.0,    2.3,    2.4,    2.6,    3.1,    2.2,    2.0,    1.2,   -0.0,   -0.6,   -0.9,   -1.6,   -1.5,   -1.6,   -2.5,   -3.1,   -3.2,   -3.3,   -2.9,   -2.4,   -2.0,   -2.2,   -3.0,   -4.0,   -4.0,   -4.6,  999.0,   -5.0,  999.0,   -6.5,  999.0,  999.0,  999.0,  999.0,  999.0,  999.0,  999.0,   -9.2,  -10.9,  -12.1,  999.0,  -11.6,  999.0,  999.0,  999.0,  999.0,  999.0,  999.0,  999.0,  999.0,  999.0,  999.0,  999.0,  999.0,  999.0,  999.0,  999.0,  999.0,  999.0,  999.0,  999.0,  999.0,  999.0,  999.0,  999.0,  999.0,  999.0,  999.0,  999.0,  999.0,  999.0,  999.0,  999.0,  999.0,  999.0,  999.0,  999.0,  999.0,  999.0
2006/01/16 01:00,    2.6,    3.0,    2.2,    2.2,    2.4,    1.4,    1.6,    2.8,    3.5,    3.6,    3.5,    3.5,    3.8,    4.0,    4.4,    4.7,    4.5,    3.5,    3.6,    4.0,    4.2,    3.9,    3.6,    3.7,    3.3,    2.9,    2.8,    3.4,    3.5,    3.0,    3.7,    3.0,    2.8,    2.5,    3.0,    3.2,    3.4,    2.9,    2.2,    1.6,    1.6,    1.9,    2.4,    2.8,    2.8,    3.0,    1.9,    1.8,    1.3,    0.1,   -0.6,   -0.9,   -1.4,   -1.5,   -1.6,   -2.2,   -3.0,   -3.7,   -3.5,   -2.9,   -2.5,   -2.1,   -2.3,   -2.9,   -3.6,   -3.4,   -3.8,   -4.1,   -5.7,  999.0,  999.0,  999.0,  999.0,  999.0,  999.0,   -8.8,  999.0,  999.0,  999.0,  -11.6,  999.0,  -12.6,  -11.6,  999.0,  999.0,  999.0,  999.0,  999.0,  999.0,  999.0,  999.0,  999.0,  999.0,  999.0,  999.0,  999.0,  999.0,  999.0,  999.0,  999.0,  999.0,  999.0,  999.0,  999.0,  999.0,  999.0,  999.0,  999.0,  999.0,  999.0,  999.0,  999.0,  999.0,  999.0,  999.0,  999.0,  999.0,  999.0,  999.0,  999.0
2006/01/16 01:10,  999.0,  999.0,    2.2,    2.0,    2.1,    1.1,    1.5,    2.7,    3.5,    3.2,    3.6,    3.8,    4.5,    3.9,    4.4,    4.8,    4.0,    3.5,    3.7,    4.2,    4.5,    4.1,    4.2,    3.9,    3.4,    3.0,    2.7,    3.1,    3.2,    2.5,    3.2,    3.3,    2.7,    2.3,    2.8,    3.1,    3.3,    3.1,    1.7,    1.0,    1.0,    1.5,    2.2,    2.6,    2.8,    2.7,    1.7,    1.5,    1.1,   -0.1,   -0.6,   -1.2,   -1.4,   -1.4,   -1.8,   -2.2,   -3.2,   -3.9,   -3.5,   -3.0,   -2.9,   -2.6,   -2.6,   -3.1,   -3.8,   -3.6,   -3.8,   -4.0,   -4.3,  999.0,  999.0,  999.0,  999.0,  999.0,  999.0,  999.0,   -9.4,  999.0,  999.0,  999.0,  999.0,  -12.7,  999.0,  999.0,  999.0,  999.0,  999.0,  999.0,  999.0,  999.0,  999.0,  -23.5,  999.0,  999.0,  999.0,  999.0,  999.0,  999.0,  999.0,  999.0,  999.0,  999.0,  999.0,  999.0,  999.0,  999.0,  999.0,  999.0,  999.0,  999.0,  999.0,  999.0,  999.0,  999.0,  999.0,  999.0,  999.0,  999.0,  999.0,  999.0
2006/01/16 01:20,    5.6,    4.2,    2.5,    2.2,    2.1,    1.7,    1.3,    2.4,    2.9,    3.2,    3.7,    4.3,    4.8,    4.0,    4.2,    4.6,    3.8,    3.5,    3.8,    4.2,    4.6,    4.3,    4.5,    4.1,    3.3,    2.9,    2.5,    2.3,    2.5,    1.9,    2.4,    3.1,    2.7,    2.5,    2.6,    3.2,    2.7,    2.2,    0.9,    0.6,    0.8,    1.4,    2.2,    2.6,    2.7,    2.5,    1.7,    1.4,    0.9,   -0.4,   -0.7,   -1.4,   -1.2,   -1.2,   -1.6,   -2.1,   -3.0,   -3.5,   -2.8,   -2.5,   -2.5,   -2.3,   -2.0,   -2.9,   -3.7,   -3.9,   -3.5,   -4.1,   -4.2,  999.0,  999.0,  999.0,  999.0,   -7.3,   -7.1,  999.0,   -9.3,  999.0,  999.0,  999.0,   -9.6,  999.0,  999.0,  999.0,  999.0,  999.0,  999.0,  999.0,  999.0,  999.0,  999.0,  999.0,  999.0,  999.0,  999.0,  999.0,  999.0,  999.0,  999.0,  999.0,  999.0,  999.0,  999.0,  999.0,  999.0,  999.0,  999.0,  999.0,  999.0,  999.0,  999.0,  999.0,  999.0,  999.0,  999.0,  999.0,  999.0,  999.0,  999.0,  999.0
2006/01/16 01:30,    3.9,    4.4,    3.2,    2.3,    2.1,    2.1,    1.3,    1.8,    2.7,    3.2,    3.7,    4.0,    4.6,    4.0,    3.5,    4.3,    3.8,    3.4,    3.6,    3.8,    4.6,    4.3,    4.4,    4.1,    3.2,    2.7,    2.3,    1.5,    1.9,    1.3,    1.9,    2.9,    2.8,    3.0,    2.7,    3.0,    1.9,    1.1,    0.5,    0.3,    0.4,    1.3,    1.9,    2.1,    2.1,    2.1,    1.5,    1.1,   -0.1,   -1.0,   -1.3,   -1.5,   -1.4,   -1.5,   -1.5,   -2.4,   -2.8,   -3.1,   -2.4,   -1.9,   -1.9,   -1.1,   -1.2,   -2.4,   -3.3,   -3.6,   -3.2,   -4.1,   -3.8,  999.0,  999.0,  999.0,  999.0,  -10.7,  999.0,  999.0,  999.0,  999.0,  999.0,  999.0,  999.0,  999.0,  999.0,  999.0,  999.0,  999.0,  999.0,  999.0,  999.0,  999.0,  -22.2,  -24.2,  999.0,  999.0,  999.0,  999.0,  999.0,  999.0,  999.0,  999.0,  999.0,  -23.1,  999.0,  999.0,  999.0,  999.0,  999.0,  999.0,  999.0,  999.0,  999.0,  999.0,  999.0,  999.0,  999.0,  999.0,  999.0,  999.0,  999.0,  999.0
2006/01/16 01:40,    3.4,    4.6,    3.4,    2.9,    2.5,    2.6,    1.9,    1.6,    2.7,    2.9,    3.2,    3.8,    4.4,    3.4,    3.2,    3.8,    3.2,    2.6,    3.1,    3.1,    4.1,    4.1,    3.9,    3.0,    2.8,    2.4,    1.6,    0.9,    1.1,    0.8,    1.6,    2.3,    2.5,    2.8,    2.5,    2.4,    1.5,    0.8,    0.5,    0.4,    0.6,    1.2,    1.7,    1.6,    1.7,    1.6,    1.4,    0.8,   -0.6,   -1.1,   -1.0,   -1.3,   -1.4,   -1.6,   -2.1,   -2.9,   -3.1,   -2.3,   -1.8,   -1.3,   -1.4,   -0.9,   -1.2,   -2.3,   -2.8,   -3.1,   -3.4,   -4.3,   -4.1,  999.0,  999.0,  999.0,  999.0,  999.0,  999.0,   -9.2,  999.0,  999.0,  999.0,  999.0,  999.0,  999.0,  999.0,  999.0,  999.0,  999.0,   -9.2,  999.0,  999.0,  999.0,  -21.6,  -25.2,  999.0,  999.0,  999.0,  999.0,  999.0,  999.0,  999.0,  999.0,  999.0,  999.0,  999.0,  999.0,  999.0,  999.0,  999.0,  999.0,  999.0,  999.0,  999.0,  999.0,  999.0,  999.0,  999.0,  999.0,  999.0,  999.0,  999.0,  999.0
2006/01/16 01:50,    4.8,    4.9,    3.9,    3.3,    2.9,    3.0,    2.3,    1.7,    2.4,    2.5,    3.1,    3.9,    4.3,    3.1,    3.1,    3.4,    2.6,    2.5,    2.8,    3.3,    4.1,    4.1,    3.6,    2.6,    2.6,    2.5,    1.5,    0.8,    0.8,    0.5,    1.2,    1.8,    2.0,    2.6,    2.2,    1.9,    1.1,    0.6,    0.5,    0.5,    1.0,    1.6,    1.7,    1.2,    1.4,    1.3,    0.9,    0.4,   -0.7,   -0.6,   -1.1,   -1.4,   -1.9,   -2.3,   -2.7,   -3.1,   -3.1,   -2.5,   -2.1,   -1.5,   -1.8,   -1.3,   -1.7,   -2.2,   -2.5,   -2.7,   -3.3,  999.0,   -4.2,  999.0,  999.0,  999.0,  999.0,  999.0,  999.0,  999.0,  999.0,  999.0,  999.0,  999.0,   -6.0,  999.0,  999.0,  999.0,  999.0,  999.0,  999.0,  999.0,  999.0,  999.0,  -21.7,  999.0,  999.0,  999.0,  999.0,  999.0,  999.0,  999.0,  999.0,  999.0,  999.0,  999.0,  999.0,  999.0,  999.0,  999.0,  999.0,  999.0,  999.0,  999.0,  999.0,  999.0,  999.0,  999.0,  999.0,  999.0,  999.0,  999.0,  999.0,  999.0
2006/01/16 02:00,    4.0,    4.2,    3.4,    3.4,    2.7,    2.7,    2.3,    1.7,    2.1,    2.5,    3.3,    4.1,    4.2,    3.3,    3.4,    3.4,    2.7,    2.7,    3.4,    3.8,    4.2,    4.2,    3.2,    2.7,    2.7,    2.6,    1.7,    0.7,    0.8,    0.4,    1.1,    1.3,    1.4,    2.4,    1.9,    1.6,    1.0,    0.7,    0.6,    0.7,    1.3,    1.8,    1.8,    1.3,    1.6,    1.5,    1.1,    0.3,   -0.8,   -0.0,   -0.4,   -1.1,   -2.2,   -2.4,   -2.7,   -3.0,   -2.7,   -1.8,   -1.9,   -1.5,   -1.6,   -1.1,   -1.6,   -1.9,   -2.1,   -2.2,   -2.9,  999.0,  999.0,  999.0,  999.0,  999.0,  999.0,  999.0,  999.0,  999.0,  999.0,  999.0,  999.0,  999.0,  999.0,  999.0,  999.0,  999.0,  999.0,  999.0,  999.0,  999.0,  999.0,  999.0,  -22.8,  999.0,  999.0,  999.0,  999.0,  999.0,  999.0,  999.0,  999.0,  999.0,  999.0,  999.0,  999.0,  999.0,  999.0,  999.0,  999.0,  999.0,  999.0,  999.0,  999.0,  999.0,  999.0,  999.0,  999.0,  999.0,  999.0,  999.0,  999.0,  999.0
2006/01/16 02:10,    4.0,    3.6,    3.6,    3.5,    2.6,    2.6,    2.3,    1.5,    2.0,    2.4,    3.5,    4.0,    4.0,    3.3,    3.6,    3.4,    2.7,    2.7,    4.0,    4.6,    4.4,    4.3,    3.1,    2.4,    2.3,    2.4,    1.9,    1.0,    0.9,    0.3,    1.1,    1.0,    1.3,    2.3,    1.6,    1.7,    1.2,    0.9,    0.9,    1.1,    1.2,    1.6,    1.8,    1.1,    1.2,    1.3,    0.8,   -0.2,   -0.9,   -0.2,   -0.8,   -1.4,   -2.3,   -2.3,   -2.9,   -3.0,   -2.7,   -2.3,   -2.1,   -2.3,   -2.2,  999.0,   -1.8,   -1.9,   -2.4,   -2.9,   -2.7,  999.0,  999.0,  999.0,  999.0,  999.0,  999.0,  999.0,  999.0,  999.0,  999.0,  999.0,  999.0,  999.0,  999.0,  999.0,  -12.5,  999.0,  999.0,  999.0,  999.0,  999.0,  999.0,  999.0,  999.0,  999.0,  999.0,  999.0,  999.0,  999.0,  999.0,  999.0,  999.0,  999.0,  999.0,  999.0,  999.0,  999.0,  999.0,  999.0,  999.0,  999.0,  999.0,  999.0,   -0.8,  999.0,  999.0,  999.0,  999.0,  999.0,  999.0,  999.0,  999.0,  999.0
2006/01/16 02:20,    3.9,    3.8,    3.5,    3.7,    2.5,    2.7,    2.6,    1.4,    1.5,    1.9,    3.0,    3.7,    4.0,    3.4,    3.2,    3.5,    2.8,    2.5,    4.2,    4.4,    4.3,    4.0,    2.7,    2.6,    2.1,    1.8,    1.5,    0.8,    0.2,    0.0,    0.8,    0.7,    1.1,    2.0,    1.0,    1.5,    0.8,    0.8,    0.9,    1.0,    1.2,    1.5,    1.5,    1.4,    1.6,    1.2,    0.5,   -0.4,   -1.1,   -0.5,   -1.3,   -2.0,   -2.6,   -2.3,   -2.9,   -3.3,   -2.8,   -2.3,   -2.7,   -3.0,   -2.4,   -1.8,   -1.4,   -1.7,   -2.1,   -2.5,   -1.8,  999.0,  999.0,  999.0,  999.0,  999.0,  999.0,  999.0,  999.0,  999.0,  999.0,  999.0,  999.0,  999.0,  999.0,  999.0,  999.0,  999.0,  999.0,  999.0,  -14.4,  -18.0,  999.0,  -20.1,  -22.1,  999.0,  999.0,  999.0,  999.0,  999.0,  999.0,  999.0,  999.0,  999.0,  999.0,  999.0,  999.0,  999.0,  999.0,  999.0,  999.0,  999.0,  999.0,  999.0,  999.0,  999.0,  999.0,  999.0,  999.0,  999.0,  999.0,  999.0,  999.0,  999.0
2006/01/16 02:30,    5.1,    3.9,    3.4,    3.6,    2.6,    2.8,    3.2,    1.5,    1.1,    1.7,    2.7,    3.7,    3.7,    3.3,    3.0,    2.7,    2.5,    3.1,    4.3,    4.3,    3.9,    2.9,    2.7,    2.7,    2.6,    2.0,    1.0,    0.2,    0.2,   -0.3,   -0.0,    0.4,    0.6,    1.1,    0.7,    0.9,    0.6,    1.0,    1.1,    1.2,    1.2,    1.2,    1.4,    1.1,    1.1,    0.7,    0.3,   -0.6,   -1.2,   -0.4,   -1.7,   -2.7,   -2.4,   -2.3,   -2.6,   -3.0,   -2.2,   -2.3,   -3.0,   -3.1,   -2.5,   -1.7,   -1.7,   -1.8,   -2.1,   -2.8,   -3.2,  999.0,  999.0,  999.0,  999.0,  999.0,  999.0,  999.0,  999.0,  999.0,  999.0,  999.0,  999.0,  999.0,  999.0,  999.0,  999.0,  999.0,  999.0,  999.0,  -15.2,  -18.2,  999.0,  -20.1,  -22.2,  -20.6,  999.0,  999.0,  999.0,  999.0,  999.0,  999.0,  999.0,  999.0,  999.0,  -27.4,  -20.7,  -13.6,  999.0,  999.0,  999.0,  999.0,  999.0,  999.0,  999.0,  999.0,  999.0,  999.0,  999.0,  999.0,  999.0,  999.0,  999.0,  999.0
2006/01/16 02:40,    5.3,    4.9,    4.1,    4.0,    2.8,    3.0,    3.4,    2.5,    0.9,    1.9,    2.1,    3.7,    3.7,    3.5,    3.2,    2.2,    2.3,    3.7,    4.2,    3.9,    3.2,    2.7,    2.1,    2.5,    2.3,    2.1,    1.0,    0.3,    0.3,   -0.7,   -0.2,   -0.1,   -0.1,    0.4,    0.2,    0.6,    0.5,    1.0,    1.1,    1.0,    0.9,    0.9,    1.3,    0.9,    0.7,  999.0,   -0.2,   -1.2,   -1.4,   -1.0,   -2.1,   -2.8,   -2.6,   -2.8,   -3.3,   -3.0,   -2.0,   -2.5,   -2.6,   -2.0,   -2.2,   -1.3,   -1.5,   -1.8,   -2.1,   -3.0,  999.0,    0.7,   -2.4,  999.0,  999.0,  999.0,  999.0,  999.0,  999.0,  999.0,  999.0,  999.0,  999.0,  999.0,  999.0,  999.0,  999.0,  999.0,  999.0,  999.0,  -15.6,  999.0,  999.0,  -20.1,  -22.6,  999.0,  999.0,  999.0,  999.0,  999.0,  999.0,  999.0,  999.0,  999.0,  999.0,  -27.1,  -19.5,  999.0,  999.0,  999.0,  999.0,  999.0,  999.0,  999.0,  999.0,  999.0,  999.0,  999.0,  999.0,  999.0,  999.0,  999.0,  999.0,  999.0
2006/01/16 02:50,    4.7,    5.0,    4.4,    3.9,    2.6,    2.9,    3.6,    3.6,    0.9,    1.7,    1.9,    3.4,    3.7,    3.4,    3.0,    1.6,    1.8,    3.1,    3.7,    3.2,    2.6,    2.2,    1.9,    2.4,    2.9,    2.5,    1.5,    0.5,   -0.2,   -0.8,   -0.5,   -0.6,    0.3,    0.5,    0.4,    1.1,    0.6,    0.7,    0.9,    0.7,    0.8,    1.0,    1.3,    1.3,    1.4,    1.0,    0.4,   -0.8,   -0.8,   -1.3,   -1.9,   -2.6,   -2.7,   -2.9,   -3.9,   -4.0,   -3.5,   -3.1,   -3.0,   -2.6,   -2.2,   -1.6,   -1.1,   -1.5,   -2.2,   -2.9,   -2.9,  999.0,   -2.5,  999.0,  999.0,  999.0,  999.0,  999.0,  999.0,  999.0,  999.0,  999.0,  999.0,  999.0,   -9.1,  999.0,  999.0,  999.0,  -10.3,  -12.6,  -14.8,  999.0,  999.0,  -19.9,  -22.8,  999.0,  999.0,  999.0,  999.0,  999.0,  999.0,  999.0,  999.0,  999.0,  999.0,  999.0,  -18.1,  999.0,  999.0,  999.0,  999.0,  999.0,  999.0,  999.0,  999.0,  999.0,  999.0,  999.0,  999.0,  999.0,  999.0,  999.0,  999.0,  999.0
2006/01/16 03:00,    2.8,    3.7,    4.4,    4.4,    2.9,    2.6,    2.8,    2.5,    1.4,    2.1,    1.9,    2.9,    3.1,    2.8,    2.1,    1.4,    1.3,    2.9,    3.1,    2.7,    2.2,    1.2,    1.7,    2.7,    3.4,    3.4,    2.0,    0.5,    0.2,   -1.3,   -0.4,   -0.8,   -0.2,    0.3,    0.2,    1.1,    0.8,    0.7,    0.9,    1.1,    1.1,    1.3,    1.5,    1.2,    1.1,    0.6,   -0.0,   -1.0,   -1.3,   -1.8,   -1.9,   -2.2,   -2.6,   -2.8,   -3.8,   -4.2,   -4.0,   -3.7,   -3.8,   -3.6,   -2.6,   -1.1,   -0.5,   -0.7,   -1.7,   -2.6,   -2.2,  999.0,  999.0,   -2.8,  999.0,  999.0,  999.0,  999.0,  999.0,  999.0,  999.0,  999.0,  999.0,  999.0,  999.0,  999.0,  999.0,  999.0,  999.0,  999.0,  -14.3,  999.0,  999.0,  999.0,  999.0,  999.0,  999.0,  999.0,  999.0,  999.0,  999.0,  999.0,  999.0,  999.0,  999.0,  999.0,  -20.9,  -13.1,  999.0,  999.0,  999.0,  999.0,  999.0,  999.0,  999.0,  999.0,  999.0,  999.0,  999.0,  999.0,  999.0,  999.0,  999.0,  999.0
2006/01/16 03:10,    1.8,    2.0,    3.3,    3.8,    3.2,    2.2,    2.1,    1.6,    1.3,    2.0,    2.0,    2.6,    2.7,    2.3,    1.7,    1.5,    1.5,    2.6,    2.5,    2.4,    2.0,    0.9,    1.0,    2.4,    3.1,    3.2,    1.6,    0.3,    0.1,   -1.5,   -0.9,   -1.2,   -1.1,   -0.4,   -0.6,    0.2,    0.5,    0.6,    0.8,    1.0,    1.2,    1.4,    1.7,    1.3,    1.1,    0.5,   -0.1,   -1.2,   -1.6,   -2.5,   -2.0,   -2.2,   -2.2,   -2.4,   -3.3,   -3.2,   -3.4,   -3.2,   -3.9,   -3.8,   -3.1,   -1.4,   -0.4,   -0.4,   -0.3,  999.0,   -2.3,   -2.3,   -1.2,  999.0,  999.0,  999.0,  999.0,  999.0,  999.0,  999.0,  999.0,   -4.6,   -4.1,   -5.2,  999.0,  999.0,  999.0,  999.0,  999.0,  999.0,  999.0,  999.0,  999.0,  999.0,  999.0,  999.0,  999.0,  999.0,  999.0,  999.0,  999.0,  999.0,  999.0,  999.0,  999.0,  999.0,  999.0,  -13.5,  999.0,  999.0,  999.0,  999.0,  999.0,  999.0,    1.5,  999.0,  999.0,  999.0,  999.0,  999.0,  999.0,  999.0,  999.0,  999.0
2006/01/16 03:20,    0.5,    0.6,    1.7,    2.6,    3.1,    2.4,    2.0,    2.0,    1.3,    1.9,    2.1,    2.3,    2.6,    1.7,    1.3,    1.4,    1.7,    2.3,    2.8,    2.4,    2.1,    1.1,    0.9,    1.8,    2.7,    2.6,    0.6,    0.0,   -0.4,   -1.7,   -1.3,   -1.9,   -1.6,   -1.0,   -1.1,   -0.6,   -0.9,   -0.5,    0.0,    0.5,    0.9,    1.3,    1.3,    1.1,    0.7,    0.3,   -0.4,   -1.2,   -1.8,   -2.5,   -2.7,   -2.3,   -1.9,   -2.1,   -2.5,   -2.5,   -3.1,   -3.2,   -4.0,   -3.9,   -3.1,   -2.2,   -0.6,   -0.5,   -0.8,   -1.3,   -2.0,  999.0,   -1.4,  999.0,  999.0,  999.0,  999.0,    1.5,   -2.8,  999.0,   -2.2,   -3.7,  999.0,  999.0,  999.0,  999.0,  999.0,  999.0,  999.0,  999.0,  999.0,  999.0,  999.0,  999.0,  999.0,  999.0,  999.0,  999.0,  999.0,  999.0,  999.0,  999.0,  999.0,  999.0,  999.0,  999.0,  999.0,  999.0,  999.0,  999.0,  999.0,  999.0,  999.0,  999.0,  999.0,  999.0,  999.0,  999.0,  999.0,  999.0,  999.0,  999.0,  999.0,  999.0
2006/01/16 03:30,    0.5,    0.5,    0.8,    1.9,    3.4,    3.0,    2.6,    2.8,    2.2,    2.2,    2.3,    2.2,    2.4,    1.4,    1.1,    0.8,    1.0,    1.3,    2.2,    2.2,    2.1,    1.1,    1.2,    1.5,    2.2,    2.1,    0.3,   -0.1,   -0.7,   -1.9,   -1.8,   -2.5,   -1.6,   -1.6,   -1.5,   -1.4,   -1.9,   -1.7,   -0.6,   -0.1,    0.8,    1.1,    1.1,    0.8,    0.3,   -0.4,   -0.7,   -1.8,   -2.2,   -3.2,   -3.1,   -2.7,   -2.1,   -2.0,   -2.6,   -2.6,   -3.1,   -3.4,   -3.7,   -4.2,   -4.0,   -3.4,   -2.2,   -0.9,   -1.6,  999.0,   -2.3,   -2.4,  999.0,  999.0,  999.0,  999.0,  999.0,  999.0,   -2.9,  999.0,   -1.7,   -1.5,  999.0,  999.0,  999.0,  999.0,  999.0,  999.0,  999.0,  999.0,  999.0,  999.0,  999.0,  999.0,  999.0,  999.0,  999.0,  999.0,  999.0,  999.0,  999.0,  999.0,  999.0,  999.0,  999.0,  999.0,  999.0,  999.0,  999.0,  999.0,  999.0,  999.0,  999.0,  999.0,  999.0,  999.0,  999.0,  999.0,  999.0,  999.0,  999.0,  999.0,  999.0,  999.0
2006/01/16 03:40,    1.6,    0.9,    0.5,    1.2,    3.3,    2.8,    2.8,    2.7,    1.6,    1.7,    1.7,    2.1,    2.3,    1.3,    1.1,    0.8,    1.1,    1.9,    2.0,    2.0,    2.0,    1.5,    1.4,    1.2,    2.3,    2.4,    0.6,   -0.2,   -1.3,   -2.2,   -2.1,   -2.8,   -2.5,   -2.5,   -2.7,   -2.5,   -2.7,   -2.4,   -1.3,   -0.5,    0.1,    1.0,    1.0,    0.7,   -0.1,   -0.9,   -1.5,   -1.8,   -2.8,   -3.3,   -3.0,   -2.5,   -2.0,   -1.4,   -2.0,   -2.3,   -2.2,   -2.7,   -3.1,   -4.0,   -4.1,   -3.1,   -2.1,   -0.8,   -1.1,   -0.6,   -1.9,   -0.9,  999.0,  999.0,  999.0,  999.0,  999.0,  999.0,  999.0,   -2.5,   -1.4,  999.0,  999.0,  999.0,  999.0,  999.0,  999.0,  999.0,  999.0,  999.0,  999.0,  999.0,  999.0,  999.0,  999.0,  999.0,  999.0,  999.0,  999.0,  999.0,  999.0,  999.0,  999.0,  999.0,  999.0,  999.0,  999.0,  999.0,  999.0,  999.0,  999.0,  999.0,  999.0,  999.0,  999.0,  999.0,  999.0,  999.0,  999.0,  999.0,  999.0,  999.0,  -10.2,  999.0
2006/01/16 03:50,    2.4,    1.2,    0.7,    1.6,    3.3,    2.6,    2.1,    2.0,    1.4,    1.8,    1.6,    2.4,    2.2,    1.1,    1.2,    1.4,    1.5,    2.2,    1.8,    2.1,    2.1,    1.8,    1.1,    0.3,    1.9,    1.6,    0.1,   -0.6,   -1.2,   -2.8,   -2.0,   -2.6,   -2.6,   -2.4,   -3.6,   -3.2,   -2.5,   -2.2,   -1.2,   -0.4,    0.4,    1.2,    1.0,    0.7,   -0.3,   -1.2,   -1.2,   -1.9,   -3.3,   -3.0,   -3.3,   -2.4,   -2.0,   -1.2,   -1.5,   -1.8,   -1.8,   -2.2,   -2.6,   -3.3,   -3.5,   -2.0,   -1.0,   -0.9,   -0.1,   -0.2,   -1.2,  999.0,    0.3,  999.0,  999.0,  999.0,  999.0,  999.0,  999.0,   -2.2,   -4.1,  999.0,  999.0,  999.0,  999.0,  999.0,  999.0,  999.0,  999.0,  999.0,  999.0,  999.0,  999.0,  999.0,  999.0,  999.0,  999.0,  999.0,  999.0,  999.0,  999.0,  999.0,  999.0,  999.0,  999.0,  999.0,  -19.5,  -14.3,  999.0,  999.0,  999.0,  999.0,    3.4,  999.0,  999.0,  999.0,  999.0,  999.0,  999.0,  999.0,  999.0,  999.0,  999.0,  999.0
2006/01/16 04:00,    1.9,    1.3,    0.6,    1.7,    3.2,    2.1,    1.7,    1.6,    1.4,    1.8,    1.3,    2.1,    2.3,    1.0,    0.9,    1.2,    1.3,    1.9,    1.3,    2.0,    1.8,    1.7,    0.9,   -0.4,    0.3,    1.2,   -0.2,   -1.0,   -1.3,   -2.7,   -2.3,   -2.1,   -2.5,   -2.7,   -4.0,   -3.9,   -2.4,   -1.9,   -1.0,   -0.3,    0.7,    1.1,    1.1,    0.7,   -0.3,   -1.0,   -0.9,   -2.2,   -3.1,   -3.3,   -3.7,   -2.7,   -2.1,   -1.6,   -2.1,   -2.1,   -1.8,   -2.4,   -3.0,   -3.6,   -3.6,   -1.7,   -0.8,   -0.4,   -0.2,    0.3,    0.0,  999.0,    0.9,    1.0,  999.0,  999.0,    0.5,   -0.4,  999.0,   -3.1,   -3.9,   -4.7,  999.0,  999.0,  999.0,  999.0,  999.0,  999.0,  -11.2,  -13.4,  999.0,  999.0,  999.0,  999.0,  999.0,  999.0,  999.0,  999.0,  999.0,  999.0,  999.0,  999.0,  999.0,  999.0,  999.0,  999.0,  999.0,  -14.4,  999.0,  999.0,  999.0,  999.0,    3.2,  999.0,  999.0,  999.0,  999.0,  999.0,  999.0,  999.0,  999.0,  999.0,  999.0,  999.0
2006/01/16 04:10,    1.7,    1.8,    1.0,    1.3,    2.9,    1.9,    1.5,    1.6,    1.8,    2.1,    1.2,    1.7,    1.6,    0.5,    0.8,    0.7,    0.8,    1.2,    1.2,    1.5,    1.8,    1.7,    1.5,   -0.1,    0.2,    0.8,   -0.2,   -0.5,   -0.9,   -2.2,   -2.1,   -1.5,   -2.1,   -2.3,   -3.5,   -3.7,   -2.9,   -1.5,   -1.0,   -0.5,    0.9,    1.1,    1.1,    0.5,   -0.5,   -0.8,   -1.1,   -2.6,   -3.5,   -3.7,   -3.8,   -3.1,   -2.1,   -2.3,   -2.2,   -2.2,   -2.2,   -2.9,   -3.3,   -3.6,   -3.5,   -1.6,   -0.7,    0.1,   -0.0,    1.0,    0.5,  999.0,    1.6,    1.5,  999.0,  999.0,   -0.6,   -1.3,   -1.3,   -2.8,   -4.1,  999.0,  999.0,  999.0,  999.0,  999.0,  999.0,  999.0,  -11.9,  -13.9,  999.0,  999.0,  999.0,  999.0,  999.0,  999.0,  999.0,  999.0,  999.0,  999.0,  999.0,  999.0,  999.0,  999.0,  999.0,  999.0,  999.0,  999.0,  999.0,  999.0,  999.0,  999.0,  999.0,  999.0,  999.0,  999.0,  999.0,  999.0,  999.0,  999.0,  999.0,  999.0,  999.0,  999.0
2006/01/16 04:20,    1.7,    2.0,    1.9,    0.7,    1.4,    1.2,    1.4,    1.5,    2.0,    2.0,    1.2,    1.8,    0.6,    0.5,    0.6,    0.2,    1.1,    1.3,    1.3,    1.5,    1.6,    1.2,    0.8,    0.4,   -0.2,    0.4,   -0.0,   -0.5,   -0.9,   -1.8,   -2.2,   -1.6,   -2.1,   -2.4,   -3.2,   -3.6,   -2.9,   -1.4,   -1.3,   -0.6,    0.5,    0.7,    0.5,   -0.2,   -1.1,   -1.3,   -1.6,   -3.0,   -3.6,   -4.2,   -4.3,   -3.0,   -1.7,   -2.0,   -2.0,   -2.2,   -2.3,   -3.2,   -3.4,   -3.5,   -2.8,   -1.5,   -0.6,    1.3,    0.8,    1.4,  999.0,    0.9,  999.0,  999.0,  999.0,  999.0,   -1.3,  999.0,  999.0,   -2.4,   -3.8,  999.0,  999.0,  999.0,   -5.0,   -6.2,  999.0,  999.0,  999.0,  999.0,  999.0,  999.0,  999.0,  999.0,  999.0,  999.0,  999.0,  999.0,  999.0,  999.0,  999.0,  999.0,  999.0,  999.0,  999.0,  999.0,  999.0,  -13.1,  999.0,  999.0,  999.0,    2.4,    2.1,  999.0,  999.0,  999.0,  999.0,  999.0,  999.0,  999.0,  999.0,  999.0,  999.0,  999.0
2006/01/16 04:30,    1.1,    1.5,    1.4,    0.7,    2.1,    1.7,    1.7,    1.9,    1.9,    2.1,    1.4,    1.6,    0.7,    0.7,    0.9,    0.8,    1.4,    1.0,    1.2,    1.4,    1.6,    1.3,    0.6,   -0.1,   -0.6,   -0.5,   -0.4,   -1.1,   -1.4,   -2.0,   -2.3,   -1.9,   -2.5,   -2.9,   -3.3,   -3.6,   -2.6,   -1.2,   -1.0,   -0.2,    0.7,    0.7,    0.2,   -0.4,   -1.4,   -1.7,   -2.0,   -3.0,   -3.5,   -3.9,   -4.4,   -3.3,   -1.7,   -1.5,   -1.9,   -1.8,   -1.9,   -2.6,   -2.8,   -2.1,   -2.1,   -0.5,    0.3,    1.0,    1.4,    1.4,    1.5,    1.6,    1.5,  999.0,   -0.3,   -1.5,   -1.3,  999.0,   -2.6,   -2.4,   -3.0,  999.0,  999.0,  999.0,  999.0,  999.0,  999.0,  999.0,  999.0,  999.0,  999.0,  999.0,  999.0,  999.0,  999.0,  999.0,  999.0,  999.0,  999.0,  999.0,  999.0,  999.0,  999.0,  999.0,  999.0,  999.0,  999.0,  -12.6,  999.0,  999.0,    1.4,    2.7,    2.7,  999.0,  999.0,  999.0,  999.0,  999.0,  999.0,  999.0,  999.0,  999.0,  999.0,  999.0
2006/01/16 04:40,    1.1,    1.6,    1.1,    0.5,    2.0,    2.0,    1.8,    1.9,    2.1,    2.1,    1.5,    1.4,    0.8,    1.0,    1.2,    1.5,    1.3,    1.0,    0.6,    0.5,    0.9,    0.8,  999.0,   -0.4,   -0.5,   -1.0,   -1.6,   -2.1,   -2.0,   -2.7,   -2.4,   -2.4,   -2.6,   -3.5,   -3.8,   -3.2,   -1.8,   -1.7,   -1.0,   -0.1,    0.7,   -0.1,   -0.2,   -1.0,   -1.7,   -2.0,   -2.1,   -2.9,   -3.6,   -3.9,   -4.7,   -4.4,   -2.3,   -1.9,   -2.1,   -1.6,   -1.6,   -2.1,   -2.2,   -1.7,   -1.5,   -0.1,    0.5,    1.0,    1.7,    1.7,    2.0,    1.5,  999.0,    0.5,   -0.1,  999.0,  999.0,  999.0,  999.0,   -2.8,  999.0,  999.0,  999.0,  999.0,  999.0,  999.0,  999.0,  999.0,  999.0,  999.0,  999.0,  999.0,  999.0,  999.0,  999.0,  999.0,  999.0,  999.0,  999.0,  999.0,  999.0,  999.0,  999.0,  999.0,  999.0,  999.0,  999.0,  -12.6,  999.0,  999.0,  999.0,  999.0,  999.0,  999.0,  999.0,  999.0,  999.0,  999.0,  999.0,  999.0,  999.0,  999.0,  999.0,  999.0
2006/01/16 04:50,    9.3,  999.0,    1.6,    0.6,    1.9,    2.2,    2.0,    1.9,    2.3,    2.3,    1.3,    1.0,    0.7,    1.5,    1.8,    1.7,    1.6,    1.1,    0.6,    0.5,    1.0,    0.7,    0.3,   -0.3,   -0.3,   -1.3,   -2.2,   -2.0,   -2.4,   -2.8,   -2.8,   -2.4,   -3.1,   -3.5,   -3.7,   -3.1,   -2.1,   -1.3,   -1.0,   -0.4,    0.5,    0.3,    0.0,   -0.9,   -1.7,   -1.8,   -1.9,   -2.3,   -2.8,   -2.9,   -3.2,   -3.1,   -2.1,   -1.3,   -1.1,   -0.8,   -0.8,   -1.2,   -1.3,   -1.1,   -0.3,    0.9,    1.3,    1.5,    1.9,    1.9,    1.9,  999.0,    0.8,    0.4,   -0.4,   -0.7,   -1.1,   -1.5,   -2.7,  999.0,  999.0,  999.0,  999.0,  999.0,  999.0,   -8.1,  999.0,  -10.7,  999.0,  999.0,  999.0,  999.0,  999.0,  999.0,  999.0,  999.0,  999.0,  999.0,  999.0,  999.0,  999.0,  999.0,  999.0,  999.0,  999.0,  999.0,  999.0,  -11.2,  999.0,  999.0,  999.0,  999.0,  999.0,  999.0,  999.0,  999.0,  999.0,  999.0,  999.0,  999.0,  999.0,  999.0,  999.0,  999.0
2006/01/16 05:00,    1.1,    1.8,    1.7,    0.6,    1.2,    2.0,    1.9,    1.6,    1.9,    1.9,    1.0,    1.0,    0.9,    1.7,    2.0,    1.8,    1.6,    0.5,    0.6,    1.2,    1.1,    0.5,    0.1,   -0.1,   -0.1,   -1.1,   -1.8,   -2.0,   -2.1,   -2.6,   -2.9,   -2.7,   -3.2,   -3.5,   -3.8,   -3.2,   -2.6,   -1.4,   -1.0,   -0.4,    0.7,    0.7,    0.5,    0.2,   -1.3,   -1.8,   -1.7,   -2.0,   -2.0,   -2.5,   -2.8,   -3.0,   -2.4,   -1.7,   -1.5,   -1.0,   -0.8,   -1.2,   -1.3,   -0.9,    0.4,    1.6,    1.2,    1.7,    1.8,    1.2,    1.9,    1.0,   -0.6,   -0.5,  999.0,   -1.3,   -1.3,  999.0,  999.0,  999.0,  999.0,  999.0,  999.0,  999.0,   -7.4,   -7.1,  999.0,  999.0,  999.0,  999.0,  999.0,  999.0,  999.0,  999.0,  999.0,  999.0,  999.0,  999.0,  999.0,  999.0,  999.0,  999.0,  999.0,  999.0,  999.0,  999.0,  999.0,  999.0,  999.0,  999.0,  999.0,  999.0,  999.0,  999.0,  999.0,  999.0,  999.0,  999.0,  999.0,  999.0,  999.0,  999.0,  999.0,  999.0
2006/01/16 05:10,    0.4,    1.6,    1.8,    0.7,    0.1,    1.4,    2.0,    1.6,    1.6,    1.6,    0.7,    0.8,    0.6,    1.4,    1.8,    1.4,    1.0,    0.1,    0.6,    0.8,    0.4,    0.1,   -0.7,   -0.5,   -0.2,   -0.9,   -1.5,   -1.8,   -1.7,   -1.9,   -2.3,   -2.1,   -2.4,   -2.8,   -3.2,   -2.7,   -2.8,   -1.5,   -0.9,   -0.1,    0.6,    0.6,    0.4,    0.2,   -1.1,   -1.6,   -1.6,   -1.9,   -2.2,   -2.4,   -2.4,   -2.8,   -1.9,   -1.3,   -1.4,   -1.0,   -0.4,   -0.9,   -0.2,  999.0,    0.7,    1.7,    1.3,    1.9,    2.3,    1.4,  999.0,    0.3,   -0.2,  999.0,  999.0,   -1.7,  999.0,  999.0,  999.0,  999.0,  999.0,  999.0,  999.0,  999.0,   -7.3,  999.0,  999.0,  999.0,  999.0,  999.0,  999.0,  999.0,  999.0,  999.0,  999.0,  999.0,  999.0,  999.0,  999.0,  999.0,  999.0,  999.0,  999.0,  999.0,  999.0,  999.0,  999.0,  999.0,  999.0,  999.0,  999.0,  999.0,  999.0,  999.0,  999.0,  999.0,  999.0,  999.0,  999.0,  999.0,  999.0,  999.0,  999.0,  999.0
2006/01/16 05:20,    0.4,    1.3,    2.2,    1.3,    0.5,    2.5,    2.3,    2.2,    2.0,    2.0,    1.3,    0.9,    0.7,    1.6,    1.4,    1.0,    0.7,    0.0,  999.0,    0.6,    0.3,    0.3,   -0.6,   -0.7,    0.1,   -0.5,   -1.0,   -1.5,   -1.5,   -1.8,   -1.8,   -2.1,   -2.4,   -2.6,   -3.1,   -2.7,   -3.1,   -2.1,   -1.2,   -0.3,    0.4,    0.4,    0.3,   -0.2,   -2.0,   -2.3,   -1.9,   -2.0,   -2.7,   -2.9,   -2.2,   -2.0,   -1.6,   -1.8,   -1.7,   -0.8,   -0.5,   -0.5,    0.3,    0.5,    0.9,    1.6,    1.5,    2.1,    2.3,    1.5,  999.0,   -0.2,   -0.4,  999.0,   -1.5,   -1.4,  999.0,  999.0,  999.0,  999.0,  999.0,  999.0,  999.0,  999.0,   -7.1,  999.0,  999.0,  999.0,  999.0,  999.0,  999.0,  999.0,  999.0,  999.0,  999.0,  999.0,  999.0,  999.0,  999.0,  999.0,  999.0,  999.0,  999.0,  999.0,  999.0,  999.0,  999.0,  999.0,  999.0,  999.0,  999.0,  999.0,  999.0,  999.0,  999.0,  999.0,  999.0,  999.0,  999.0,  999.0,  999.0,  999.0,  999.0,  999.0
2006/01/16 05:30,    0.6,    1.4,    2.4,    1.7,    1.6,    2.4,    1.8,    2.1,    2.2,    2.1,    2.3,    1.4,    1.5,    2.0,    1.6,    0.9,    0.6,    0.0,    0.9,    0.9,    0.2,    0.2,   -0.6,   -1.1,   -0.4,    0.1,   -0.6,   -1.4,   -1.4,   -1.6,   -1.8,   -2.1,   -2.6,   -2.9,   -3.2,   -3.3,   -2.7,   -2.3,   -0.8,   -0.0,    0.9,    0.7,    0.6,   -0.0,   -1.8,   -1.7,   -1.7,   -2.2,   -2.8,   -2.9,   -2.5,   -2.3,   -2.0,   -1.9,   -2.2,   -1.6,   -1.1,   -0.5,   -0.9,    0.0,    0.8,    1.4,    1.7,    2.0,    1.8,    2.0,  999.0,   -0.7,   -0.4,  999.0,  999.0,  999.0,  999.0,  999.0,  999.0,  999.0,  999.0,  999.0,  999.0,  999.0,   -7.5,  999.0,  999.0,  999.0,  999.0,  999.0,  999.0,  999.0,  999.0,  999.0,  999.0,  999.0,  999.0,  999.0,  999.0,  999.0,  999.0,  999.0,  999.0,  999.0,  999.0,  -15.7,  999.0,  999.0,  999.0,  999.0,  999.0,  999.0,  999.0,  999.0,  999.0,  999.0,  999.0,  999.0,  999.0,  999.0,  999.0,  999.0,  999.0,  999.0
2006/01/16 05:40,    0.9,    1.6,    2.8,    2.3,    2.5,    2.9,    2.9,    3.1,    2.9,    2.8,    2.8,    2.2,    1.5,    1.9,    1.5,    0.4,    0.3,   -0.4,    0.1,    0.6,   -0.4,   -0.2,   -1.0,   -1.4,   -1.3,   -0.9,   -1.4,   -1.9,   -1.5,   -1.5,   -2.0,   -2.4,   -2.9,   -2.9,   -3.2,   -3.2,   -2.4,   -2.1,   -0.4,    0.3,    0.6,    0.2,    0.4,   -0.7,   -1.7,   -1.3,   -1.7,   -2.3,   -3.3,   -3.1,   -3.0,   -2.6,   -1.8,   -1.5,   -1.5,   -1.7,   -1.0,   -0.6,   -0.3,    0.3,    0.9,    1.5,    2.0,    2.0,    1.6,    1.5,  999.0,    0.1,   -0.7,   -0.6,  999.0,  999.0,  999.0,  999.0,  999.0,  999.0,  999.0,  999.0,  999.0,  999.0,  999.0,  999.0,  999.0,  999.0,  999.0,  999.0,  999.0,  999.0,  999.0,  999.0,  999.0,  999.0,  999.0,  999.0,  999.0,  999.0,  999.0,  999.0,  999.0,  999.0,  999.0,  -16.5,  999.0,  999.0,  999.0,  999.0,  999.0,  999.0,  999.0,  999.0,  999.0,  999.0,  999.0,  999.0,  999.0,  999.0,  999.0,  999.0,  999.0,  999.0
2006/01/16 05:50,  999.0,    1.6,    3.0,    2.5,    3.5,    3.9,    3.8,    4.1,    3.8,    3.0,    2.9,    2.3,    1.0,    1.3,    1.2,    0.5,  999.0,   -0.5,    0.3,    0.1,   -0.5,   -0.4,   -0.4,   -0.7,   -1.5,   -1.6,   -1.7,   -1.7,   -1.5,   -1.6,   -2.1,   -2.3,   -2.7,   -2.4,   -3.1,   -2.9,   -1.7,   -1.7,   -0.5,   -0.2,   -0.4,   -0.1,   -0.9,   -1.8,   -1.9,   -1.6,   -2.1,   -3.1,   -3.8,   -3.6,   -3.1,   -2.3,   -1.1,   -1.0,   -0.6,   -0.9,   -0.5,   -0.2,    0.3,    0.9,    1.4,    1.4,    1.7,    1.8,    1.5,    1.2,    0.8,    0.2,  999.0,   -0.9,  999.0,  999.0,  999.0,   -1.5,  999.0,   -2.6,  999.0,  999.0,  999.0,   -3.9,   -6.7,  999.0,  999.0,  999.0,  999.0,  999.0,  999.0,  999.0,  999.0,  999.0,  999.0,  999.0,  999.0,  999.0,  999.0,  999.0,  999.0,  999.0,  999.0,  999.0,  999.0,  999.0,  999.0,  999.0,  999.0,  999.0,  999.0,  999.0,  999.0,  999.0,  999.0,  999.0,  999.0,  999.0,  999.0,  999.0,  999.0,  999.0,  999.0,  999.0
2006/01/16 06:00,  999.0,  999.0,    2.4,    2.5,    3.5,    4.5,    4.0,    3.6,    3.5,    2.6,    2.5,    2.0,    0.9,    1.6,    1.3,    0.5,    0.2,    0.1,    1.0,    0.2,  999.0,   -0.2,    0.0,   -0.1,   -1.4,   -2.0,   -2.1,   -1.4,   -1.2,   -1.4,   -1.6,   -1.9,   -2.2,   -2.0,   -3.1,   -2.6,   -1.6,   -1.4,   -0.5,   -0.1,   -0.2,   -0.3,   -1.3,   -1.7,   -1.8,   -1.6,   -1.9,   -3.2,   -3.7,   -3.6,   -2.7,   -2.4,   -1.0,   -1.1,   -1.1,   -0.8,   -0.7,   -0.3,    0.2,    1.3,    1.1,    1.5,    1.2,    1.7,    1.6,    1.2,    0.6,  999.0,  999.0,  999.0,  999.0,  999.0,  999.0,  999.0,  999.0,  999.0,  999.0,  999.0,  999.0,   -5.3,  999.0,  -10.8,  999.0,  999.0,  999.0,  999.0,  999.0,  999.0,  999.0,  999.0,  999.0,  999.0,  999.0,  999.0,  999.0,  999.0,  999.0,  999.0,  999.0,  999.0,  999.0,  999.0,  999.0,  999.0,  999.0,  999.0,  999.0,  999.0,  999.0,  999.0,  999.0,  999.0,  999.0,  999.0,  999.0,  999.0,  999.0,  999.0,  999.0,  999.0
2006/01/16 06:10,  999.0,  999.0,    2.1,    2.4,    3.0,    5.0,    4.7,    3.3,    3.0,    2.6,    2.1,    1.6,    0.8,    1.3,    0.5,    0.4,    0.5,    0.9,    1.0,    0.4,   -0.3,   -0.1,    0.5,    0.6,   -1.2,   -1.7,   -1.5,   -0.7,   -0.7,   -0.9,   -1.2,   -1.6,   -1.8,   -1.8,   -3.0,   -2.5,   -1.6,   -1.3,   -1.2,   -0.4,   -0.6,   -1.0,   -1.8,   -2.6,   -2.5,   -2.1,   -2.5,   -3.3,   -3.8,   -4.0,   -3.6,   -2.8,   -1.3,   -1.2,   -1.3,   -1.1,   -1.0,   -0.6,   -0.4,    1.1,    0.7,    0.9,    0.4,    0.7,    0.5,   -0.3,    0.2,  999.0,   -0.9,   -2.1,  999.0,  999.0,  999.0,  999.0,  999.0,  999.0,  999.0,  999.0,  999.0,   -6.0,   -6.9,  999.0,  999.0,  999.0,  999.0,  999.0,  999.0,  999.0,  999.0,  999.0,  999.0,  999.0,  999.0,  999.0,  999.0,  999.0,  999.0,  999.0,  999.0,  999.0,  999.0,  999.0,  999.0,  999.0,  999.0,  999.0,  999.0,  999.0,  999.0,  999.0,  999.0,  999.0,  999.0,  999.0,  999.0,  999.0,  999.0,  999.0,  999.0,  999.0
2006/01/16 06:20,    0.0,    1.9,    2.6,    3.0,    2.7,    4.0,    5.2,    4.4,    3.1,    2.5,    1.8,    1.1,    0.4,    0.9,    0.3,    0.2,    0.2,    0.6,    0.5,    0.3,   -0.3,   -0.1,    0.7,    0.9,   -0.8,   -1.0,   -1.2,   -0.5,   -0.8,   -0.9,   -1.0,   -1.3,   -1.5,   -1.9,   -2.8,   -2.7,   -1.7,   -1.4,   -1.2,   -0.8,   -0.8,   -1.4,   -2.0,   -2.6,   -2.7,   -2.3,   -2.5,   -3.3,   -3.6,   -3.7,   -3.8,   -2.5,   -1.4,   -1.2,   -1.2,   -0.6,   -0.6,   -0.6,    0.4,    0.7,    1.0,    0.7,    0.7,    0.3,    0.4,   -0.0,   -0.6,  999.0,   -1.4,  999.0,  999.0,  999.0,  999.0,  999.0,  999.0,  999.0,  999.0,  999.0,  999.0,  999.0,   -7.0,  999.0,  999.0,  999.0,  999.0,  999.0,  999.0,  999.0,  999.0,  999.0,  999.0,  999.0,  999.0,  999.0,  999.0,  999.0,  999.0,  999.0,  999.0,  999.0,  999.0,  999.0,  999.0,  999.0,  999.0,  999.0,  999.0,  999.0,  999.0,  999.0,  999.0,  999.0,  999.0,  999.0,  999.0,  999.0,  999.0,  999.0,  999.0,  999.0
2006/01/16 06:30,   -0.0,    2.6,    3.1,    3.0,    2.3,    3.6,    4.9,    3.8,    3.1,    2.1,    1.6,    1.0,    0.4,    0.8,    0.4,    0.7,    0.0,    0.6,    0.6,    0.3,    0.1,    0.0,    0.9,    0.7,   -0.3,   -0.6,   -0.7,   -0.5,   -0.8,   -0.7,   -0.6,   -0.9,   -1.3,   -1.7,   -2.4,   -2.5,   -1.9,   -1.2,   -0.6,   -0.3,   -0.8,   -1.1,   -1.6,   -2.3,   -2.7,   -2.5,   -2.5,   -3.2,   -3.4,   -3.6,   -4.0,   -3.1,   -1.9,   -1.4,   -1.4,   -1.1,   -0.9,   -0.9,    0.2,    0.7,    1.0,    0.2,    0.2,   -0.2,    0.1,   -0.2,   -0.4,  999.0,   -1.2,  999.0,  999.0,  999.0,  999.0,   -2.7,  999.0,  999.0,  999.0,  999.0,  999.0,   -5.4,  999.0,  999.0,  999.0,  999.0,  999.0,  999.0,  999.0,  999.0,  999.0,  999.0,  999.0,  999.0,  999.0,  999.0,  999.0,  999.0,  999.0,  999.0,  999.0,  999.0,  999.0,  999.0,  999.0,  999.0,  999.0,  999.0,  999.0,  999.0,  999.0,  999.0,  999.0,  999.0,  999.0,  999.0,  999.0,  999.0,  999.0,  999.0,  999.0,  999.0
2006/01/16 06:40,  999.0,  999.0,    2.8,    2.8,    2.3,    4.1,    4.6,    3.1,    2.9,    1.8,    1.6,    0.9,    0.4,    1.6,    0.4,    0.9,    0.2,    0.7,    0.5,   -0.0,    0.3,    0.4,    0.9,    0.6,   -0.1,   -0.7,   -0.6,   -0.5,   -0.8,   -0.6,   -0.6,   -0.8,   -1.4,   -1.8,   -2.1,   -2.3,   -2.2,   -1.2,   -0.5,   -0.4,   -0.8,   -0.9,   -1.4,   -2.0,   -2.8,   -2.7,   -2.8,   -3.1,   -3.4,   -3.7,   -4.2,   -4.0,   -2.3,   -1.3,   -1.5,   -0.8,   -0.4,   -0.3,    0.5,    1.1,    0.5,    0.6,    0.1,   -0.2,    0.0,   -0.6,   -1.2,  999.0,  999.0,  999.0,   -1.6,   -4.7,  999.0,  999.0,  999.0,  999.0,  999.0,  999.0,  999.0,  999.0,  999.0,  999.0,  999.0,  999.0,  999.0,  999.0,  999.0,  999.0,  999.0,  999.0,  -12.8,  999.0,  999.0,  999.0,  999.0,  999.0,  999.0,  999.0,  999.0,  999.0,  999.0,  999.0,  999.0,  999.0,  999.0,  999.0,  999.0,  999.0,  999.0,  999.0,  999.0,  999.0,  -11.9,  999.0,  999.0,  999.0,  999.0,  999.0,  999.0,  999.0
2006/01/16 06:50,    5.9,  999.0,    1.9,    1.7,    2.4,    4.0,    4.4,    3.3,    3.9,    2.6,    2.4,    1.4,    0.8,    1.4,    0.7,    0.9,    0.9,    0.7,    1.1,  999.0,    0.6,    1.2,    1.0,    0.7,   -0.4,   -1.4,   -0.7,   -0.4,   -0.6,   -0.7,   -0.9,   -1.0,   -1.3,   -1.5,   -1.9,   -2.2,   -2.0,   -1.1,   -0.5,   -1.0,   -1.6,   -1.5,   -2.0,   -2.4,   -3.3,   -2.9,   -3.1,   -3.3,   -3.9,   -4.3,   -4.6,   -3.8,   -2.3,   -1.3,   -1.2,   -0.5,   -0.4,    0.1,  999.0,    0.5,    0.5,    0.2,    0.3,   -0.4,   -0.2,   -0.5,   -1.1,  999.0,  999.0,  999.0,  999.0,  999.0,  999.0,  999.0,  999.0,  999.0,  999.0,  999.0,  999.0,   -5.5,  999.0,   -9.2,  999.0,  999.0,  999.0,  999.0,  999.0,  999.0,  999.0,  999.0,  999.0,  999.0,  999.0,  999.0,  999.0,  999.0,  999.0,  999.0,  999.0,  999.0,  999.0,  999.0,  999.0,  -14.7,  999.0,  999.0,  999.0,  999.0,  999.0,  999.0,  999.0,  999.0,  999.0,  999.0,  999.0,  999.0,  999.0,  999.0,  999.0,  999.0
2006/01/16 07:00,  999.0,    2.0,    2.2,    2.2,    2.9,    4.6,    4.2,    3.5,    3.9,    2.9,    2.5,    1.6,    0.7,    1.4,    0.7,    0.4,    0.3,    0.0,    0.9,    0.4,    0.5,    1.1,    0.8,    0.3,   -0.5,   -1.4,   -1.2,   -0.8,   -0.7,   -0.9,   -1.0,   -0.4,   -0.8,   -1.3,   -2.3,   -2.6,   -2.2,   -1.0,   -0.5,   -0.9,   -1.6,   -1.3,   -1.8,   -2.2,   -3.3,   -3.2,   -3.4,   -3.7,   -4.4,   -4.1,   -3.9,   -2.4,   -1.8,   -1.2,   -0.5,   -0.4,   -0.7,  999.0,    0.1,   -0.4,   -0.2,  999.0,  999.0,   -0.9,  999.0,   -0.9,   -1.1,  999.0,  999.0,  999.0,  999.0,   -0.2,  999.0,  999.0,   -1.0,  999.0,  999.0,  999.0,  999.0,   -5.8,   -6.9,   -9.1,  -10.9,  -12.9,  999.0,  999.0,  999.0,  999.0,  999.0,  999.0,  999.0,  999.0,  999.0,  999.0,  999.0,  999.0,  999.0,  999.0,  999.0,  999.0,  999.0,  999.0,  -20.8,  999.0,  999.0,  999.0,  999.0,  999.0,  999.0,  999.0,  999.0,  999.0,  999.0,   -2.2,  999.0,  999.0,  999.0,  999.0,  999.0,  999.0
2006/01/16 07:10,    3.0,    3.3,    3.0,    3.0,    2.7,    4.2,    4.1,    3.1,    3.4,    3.0,    2.1,    1.5,    0.9,    1.7,    0.8,    0.8,    0.3,    0.1,    1.0,    0.5,    0.7,    0.9,    0.8,   -0.1,   -0.9,   -1.3,   -1.0,   -1.0,   -1.3,   -1.4,   -1.5,   -0.8,   -1.1,   -1.8,   -2.7,   -3.0,   -2.2,   -1.0,   -0.5,   -1.2,   -1.8,   -1.0,   -1.3,   -2.0,   -3.2,   -2.9,   -3.5,   -3.9,   -3.7,   -3.5,   -3.1,   -1.9,   -1.3,   -0.7,   -0.2,   -0.2,  999.0,   -0.5,   -0.0,   -0.2,   -0.5,   -1.0,  999.0,   -1.2,   -0.6,  999.0,   -1.4,   -1.6,   -1.7,  999.0,  999.0,  999.0,  999.0,  999.0,  999.0,  999.0,  999.0,  999.0,  999.0,   -6.4,  999.0,  999.0,  999.0,  999.0,  -14.0,  999.0,  999.0,  999.0,  999.0,  999.0,  999.0,  999.0,  999.0,  999.0,  999.0,  999.0,  999.0,  999.0,  999.0,  999.0,  999.0,  999.0,  999.0,  999.0,  999.0,  999.0,  999.0,  999.0,  999.0,  999.0,  999.0,  999.0,  999.0,   -2.1,  999.0,  999.0,  999.0,  999.0,  999.0,  999.0
2006/01/16 07:20,    3.2,    3.0,    3.2,    4.3,    3.4,    3.3,    3.5,    2.6,    3.0,    2.6,    2.0,    1.5,    1.1,    1.9,    1.1,    0.8,    0.5,    0.9,    1.4,    0.8,    1.4,    0.8,    0.4,   -0.7,   -1.1,   -1.1,   -0.8,   -0.9,   -1.0,   -1.0,   -1.5,   -0.8,   -1.2,   -2.0,   -2.8,   -3.3,   -2.1,   -1.5,   -0.9,   -1.9,   -2.2,   -1.2,   -1.5,   -2.5,   -3.5,   -3.3,   -3.7,   -3.9,   -3.8,   -3.2,   -2.7,   -1.4,   -0.9,   -0.3,    0.1,   -0.0,    0.4,   -0.6,   -0.1,    0.1,    0.0,  999.0,    0.3,  999.0,   -0.6,   -0.1,   -0.1,  999.0,  999.0,  999.0,  999.0,  999.0,  999.0,  999.0,  999.0,  999.0,  999.0,  999.0,  999.0,  999.0,   -8.2,  999.0,   -9.2,  -11.9,  -14.8,  -15.4,  999.0,  999.0,  999.0,  999.0,  999.0,  999.0,  999.0,  999.0,  999.0,  999.0,  999.0,  999.0,  999.0,  999.0,  999.0,  999.0,  999.0,  999.0,  999.0,  999.0,  999.0,  999.0,  999.0,  999.0,  999.0,  999.0,  999.0,   -0.9,   -2.7,  999.0,  999.0,  999.0,  999.0,  999.0
2006/01/16 07:30,    3.3,    3.1,    3.3,    4.1,    4.0,    3.3,    3.4,    2.5,    2.7,    2.1,    1.7,    1.5,    1.4,    2.0,    1.0,    0.7,    0.2,    1.0,    1.0,    0.9,    1.3,    0.5,    0.1,   -1.0,   -1.2,   -1.4,   -1.0,   -0.9,   -1.0,   -0.8,   -1.5,   -1.0,   -1.0,   -1.7,   -2.6,   -3.4,   -2.4,   -1.8,   -1.1,   -2.4,   -2.5,   -1.4,   -1.5,   -2.2,   -3.6,   -3.1,   -3.7,   -3.7,   -3.5,   -2.9,   -2.4,   -1.2,   -1.1,   -0.7,   -0.8,   -0.8,   -0.8,   -0.2,   -0.6,   -0.2,   -0.4,   -0.0,   -0.4,   -0.5,  999.0,   -0.4,   -0.9,  999.0,  999.0,   -0.6,   -0.3,   -1.7,  999.0,  999.0,  999.0,  999.0,  999.0,  999.0,  999.0,  999.0,  999.0,  999.0,  999.0,  -11.6,  -16.5,  999.0,  999.0,  999.0,  999.0,  999.0,  999.0,  999.0,  999.0,  999.0,  999.0,  999.0,  999.0,  999.0,  999.0,  999.0,  999.0,  999.0,  999.0,  999.0,  999.0,  999.0,  999.0,  999.0,  999.0,  999.0,  999.0,  999.0,  999.0,  999.0,   -2.4,  999.0,  999.0,  999.0,   -9.9,  999.0
2006/01/16 07:40,    3.7,    3.5,    3.3,    4.0,    4.2,    3.1,    3.5,    2.5,    2.3,    1.9,    1.4,    1.7,    1.8,    2.2,    1.3,    1.1,    0.5,    0.9,    0.8,    0.9,    1.3,   -0.2,   -0.7,   -2.0,   -1.8,   -2.0,   -1.0,   -1.1,   -1.1,   -1.4,   -1.7,   -1.1,   -1.3,   -1.8,   -2.8,   -3.3,   -2.2,   -1.8,   -1.7,   -2.2,   -2.0,   -1.2,   -1.6,   -2.1,   -3.3,   -3.0,   -3.4,   -3.6,   -3.2,   -2.7,   -2.0,   -0.8,   -0.8,   -0.8,   -1.2,   -1.0,   -1.5,   -1.1,   -1.0,   -0.2,   -0.5,  999.0,   -0.3,   -0.7,  999.0,   -0.5,   -0.6,  999.0,   -0.4,   -0.5,   -0.1,  999.0,  999.0,  999.0,  999.0,  999.0,  999.0,  999.0,  999.0,  999.0,  999.0,  999.0,  999.0,  -12.0,  999.0,  999.0,  999.0,  999.0,  999.0,  999.0,  999.0,  999.0,  999.0,  999.0,  999.0,  999.0,  999.0,  999.0,  999.0,  999.0,  999.0,  999.0,  999.0,  999.0,  999.0,  999.0,  999.0,  999.0,  999.0,  999.0,  999.0,  999.0,  999.0,  999.0,  999.0,  999.0,  999.0,  999.0,  999.0,  999.0
2006/01/16 07:50,    4.0,    4.2,    3.4,    4.2,    4.7,    3.8,    4.1,    3.2,    2.7,    2.1,    1.6,    1.7,    2.0,    1.9,    1.2,    0.5,    0.3,    1.1,    0.4,    0.9,    0.8,   -0.8,   -0.6,   -1.5,   -1.7,   -2.0,   -1.6,   -0.9,   -1.1,   -1.1,   -1.2,   -0.8,   -1.0,   -1.9,   -3.2,   -3.6,   -2.3,   -2.2,   -2.0,   -2.4,   -1.9,   -1.3,   -2.6,   -3.4,   -3.8,   -3.5,   -3.5,   -3.5,   -2.6,   -1.9,   -1.2,   -0.7,   -0.7,   -1.0,   -1.1,   -1.3,   -0.7,   -0.5,   -0.4,    0.4,   -0.6,   -1.1,   -0.5,   -0.9,   -0.7,   -0.1,    0.0,   -1.3,  999.0,    0.1,  999.0,  999.0,  999.0,  999.0,  999.0,  999.0,  999.0,  999.0,  999.0,  999.0,   -9.7,  999.0,  -12.6,  -11.4,  999.0,  999.0,  999.0,  999.0,  999.0,  999.0,  999.0,  999.0,  999.0,  999.0,  999.0,  999.0,  999.0,  999.0,  999.0,  999.0,  999.0,  999.0,  999.0,  999.0,  999.0,  999.0,  999.0,  999.0,  999.0,  999.0,  999.0,  999.0,  999.0,  999.0,  999.0,  999.0,  999.0,  999.0,  999.0,  999.0
2006/01/16 08:00,    4.1,    4.1,    3.3,    3.9,    5.0,    4.0,    4.0,    3.5,    3.2,    2.4,    2.4,    2.7,    2.9,    2.1,    1.1,    0.4,    0.4,    0.7,    0.4,    0.8,    0.3,   -1.1,   -0.7,   -1.3,   -1.7,   -1.8,   -2.2,   -0.8,   -0.8,   -1.0,   -1.1,   -0.6,   -1.3,   -2.6,   -3.8,   -3.7,   -2.7,   -2.6,   -2.2,   -2.7,   -2.1,   -2.3,   -3.5,   -4.0,   -4.3,   -3.9,   -4.2,   -3.8,   -2.7,   -1.8,   -0.8,   -0.3,   -0.5,   -1.2,   -1.1,   -0.9,   -1.2,   -0.8,   -1.1,   -0.9,   -1.9,  999.0,   -0.4,   -0.4,   -0.4,   -0.4,  999.0,    0.3,  999.0,    0.2,    0.1,  999.0,  999.0,  999.0,  999.0,  999.0,  999.0,  999.0,  999.0,  999.0,  999.0,  999.0,  999.0,  999.0,  999.0,  999.0,  999.0,  999.0,  999.0,  999.0,  999.0,  999.0,  999.0,  999.0,  999.0,  999.0,  999.0,  999.0,  999.0,  999.0,  999.0,  999.0,  999.0,  999.0,  999.0,  999.0,  999.0,  999.0,  999.0,  999.0,  999.0,  999.0,  999.0,  999.0,  999.0,  999.0,  999.0,  999.0,  999.0,  999.0
2006/01/16 08:10,    3.9,    4.0,    3.2,    3.8,    5.0,    4.0,    3.9,    3.9,    3.5,    2.8,    2.5,    2.7,    3.1,    2.2,    1.1,    0.4,    0.5,    0.4,    0.4,    1.2,   -0.3,   -1.3,   -1.2,   -1.6,   -1.5,   -1.1,   -1.7,   -1.2,   -0.9,   -1.5,   -1.4,   -1.1,   -1.8,   -3.2,   -4.2,   -3.6,   -3.1,   -2.6,   -1.9,   -2.2,   -1.8,   -1.8,   -2.1,   -3.1,   -3.8,   -3.7,   -3.5,   -3.6,   -2.3,   -1.7,   -1.0,   -0.1,   -0.7,   -1.7,   -1.6,   -1.3,   -1.5,   -1.5,   -1.3,   -1.1,   -1.5,   -0.5,   -0.9,   -0.7,   -0.3,   -0.2,  999.0,  999.0,    0.2,  999.0,  999.0,  999.0,  999.0,  999.0,  999.0,  999.0,  999.0,  999.0,  999.0,  999.0,  999.0,  999.0,  999.0,  999.0,  999.0,  999.0,  999.0,  999.0,  999.0,  999.0,  999.0,  999.0,  999.0,  999.0,  999.0,  999.0,  999.0,  999.0,  999.0,  999.0,  999.0,  999.0,  999.0,  999.0,  999.0,  999.0,  999.0,  999.0,  999.0,  999.0,  999.0,  999.0,  999.0,  999.0,  999.0,  999.0,  999.0,  999.0,  999.0,  999.0
2006/01/16 08:20,    3.6,    4.1,    3.3,    3.8,    4.9,    4.1,    4.1,    4.2,    3.9,    3.2,    2.9,    2.7,    2.6,    2.3,    1.3,    0.4,    0.4,   -0.2,    0.5,    0.7,   -0.5,   -1.3,   -1.1,   -1.4,   -0.7,   -0.6,   -0.7,   -1.0,   -0.9,   -1.2,   -1.4,   -1.1,   -1.9,   -3.0,   -4.2,   -3.9,   -3.7,   -3.2,   -2.0,   -1.8,   -2.0,   -1.5,   -1.8,   -2.8,   -3.9,   -3.9,   -3.6,   -3.8,   -2.9,   -2.0,   -1.1,   -0.3,   -0.8,   -1.6,   -1.8,   -1.5,   -1.8,   -1.3,   -1.1,   -1.0,   -1.1,   -0.9,   -1.2,   -1.0,  999.0,   -1.5,  999.0,    0.2,  999.0,  999.0,  999.0,  999.0,  999.0,  999.0,  999.0,  999.0,  999.0,  999.0,  999.0,  999.0,  999.0,  -10.9,  999.0,  999.0,  999.0,  999.0,  999.0,  999.0,  999.0,  999.0,  999.0,  999.0,  999.0,  999.0,  999.0,  999.0,  999.0,  999.0,  999.0,  999.0,  999.0,  999.0,  999.0,  999.0,  999.0,  999.0,  999.0,  999.0,  999.0,  999.0,  999.0,  999.0,  999.0,  999.0,  999.0,  999.0,  999.0,  999.0,  999.0,  999.0
2006/01/16 08:30,    4.0,    4.1,    3.5,    4.7,    5.2,    4.4,    4.3,    4.4,    4.1,    3.3,    2.8,    2.6,    2.4,    2.1,    1.0,    0.5,    0.2,   -0.4,    0.3,   -0.0,   -0.8,   -1.1,   -0.9,   -0.9,   -0.3,   -0.1,   -0.2,   -0.6,   -0.7,   -0.9,   -1.0,   -1.0,   -1.3,   -2.7,   -4.3,   -4.1,   -4.1,   -4.3,   -2.5,   -2.0,   -2.2,   -1.9,   -2.1,   -3.3,   -4.3,   -4.4,   -4.2,   -3.9,   -3.0,   -1.9,   -1.2,   -0.1,   -0.9,   -1.5,   -1.5,   -1.4,   -1.4,   -1.5,   -1.1,   -0.6,   -1.5,   -0.7,   -0.5,   -0.0,  999.0,   -1.2,  999.0,  999.0,    0.6,    0.8,  999.0,  999.0,  999.0,  999.0,   -3.2,   -3.6,  999.0,  999.0,  999.0,  999.0,  999.0,  -10.8,  999.0,  999.0,  999.0,  999.0,  999.0,  999.0,  999.0,  999.0,  999.0,  999.0,  999.0,  999.0,  999.0,  999.0,  999.0,  999.0,  999.0,  999.0,  999.0,  999.0,  999.0,  999.0,  999.0,  999.0,  999.0,  999.0,  999.0,  999.0,  999.0,  999.0,  999.0,   -2.6,  999.0,  999.0,  999.0,  999.0,  999.0,  999.0
2006/01/16 08:40,    4.8,    4.6,    4.1,    5.3,    5.2,    4.5,    4.3,    4.2,    3.8,    2.9,    2.6,    2.7,    2.6,    2.6,    1.3,    0.5,   -0.1,   -0.9,   -0.2,    0.1,   -0.9,   -1.3,   -1.2,   -1.0,   -0.4,   -0.4,   -0.4,   -0.5,   -0.7,   -0.7,   -0.8,   -0.5,   -1.5,   -2.6,   -4.0,   -4.3,   -4.4,   -4.6,   -3.0,   -1.7,   -1.9,   -1.8,   -2.3,   -3.3,   -4.0,   -4.3,   -4.2,   -3.9,   -3.2,   -2.1,   -1.6,   -0.8,   -1.2,   -1.7,   -1.6,   -1.9,   -1.4,   -1.5,   -1.3,   -0.6,  999.0,    0.1,    0.0,   -0.1,   -0.6,  999.0,  999.0,    0.4,    0.9,  999.0,  999.0,  999.0,  999.0,   -3.1,   -3.1,  999.0,  999.0,  999.0,  999.0,  999.0,  -10.8,  999.0,  999.0,  999.0,  999.0,  999.0,  999.0,  999.0,  999.0,  999.0,  999.0,  999.0,  999.0,  999.0,  999.0,  999.0,  999.0,  999.0,  999.0,  999.0,  999.0,  999.0,  999.0,  999.0,  999.0,  999.0,  999.0,  999.0,  999.0,  999.0,  999.0,  999.0,  999.0,   -2.5,  999.0,  999.0,  999.0,  999.0,  999.0,  999.0
2006/01/16 08:50,    4.8,    4.7,    4.1,    5.2,    5.1,    4.4,    4.7,    4.8,    4.2,    3.0,    2.8,    3.0,    2.6,    2.5,    2.0,    1.3,    0.9,    0.2,    0.5,    0.6,   -0.7,   -1.9,   -1.7,   -1.2,   -1.0,   -1.0,   -1.0,   -0.9,   -1.2,   -1.3,   -1.4,   -1.2,   -2.5,   -3.4,   -4.2,   -4.3,   -4.3,   -4.4,   -2.3,   -1.3,   -2.0,   -2.0,   -2.5,   -3.1,   -3.6,   -4.1,   -3.8,   -3.8,   -3.2,   -2.2,   -1.5,   -0.8,   -0.3,   -1.0,   -1.5,   -2.2,   -1.8,   -1.9,   -2.1,   -1.2,   -0.9,   -0.5,   -0.6,   -0.9,   -0.8,   -0.6,  999.0,   -0.3,    0.8,  999.0,  999.0,  999.0,  999.0,   -2.8,   -2.8,  999.0,  999.0,  999.0,  999.0,   -8.5,  -10.6,  999.0,  -14.1,  999.0,  999.0,  999.0,  999.0,  999.0,  999.0,  999.0,  999.0,  999.0,  999.0,  999.0,  999.0,  999.0,  999.0,  999.0,  999.0,  999.0,  999.0,  999.0,  999.0,  999.0,  999.0,  999.0,  999.0,  999.0,  999.0,  999.0,  999.0,  999.0,   -1.3,  999.0,  999.0,  999.0,  999.0,  999.0,  999.0,  999.0
2006/01/16 09:00,    7.4,    5.0,    4.1,    5.4,    5.5,    4.4,    5.0,    5.1,    4.4,    3.1,    2.8,    2.9,    2.4,    2.1,    2.3,    1.2,    0.6,    0.4,    0.2,    0.7,   -0.3,   -1.8,   -1.9,   -1.5,   -1.2,   -1.1,   -0.9,   -1.0,   -1.3,   -1.4,   -1.6,   -1.7,   -2.5,   -3.5,   -3.9,   -4.6,   -4.4,   -3.8,   -1.8,   -1.5,   -1.9,   -1.9,   -1.8,   -2.5,   -3.4,   -3.8,   -3.3,   -3.2,   -2.4,   -2.0,   -1.8,   -1.0,   -0.0,   -0.9,   -1.4,   -1.9,   -1.8,   -2.5,   -2.4,   -1.5,   -0.9,   -0.6,   -1.0,   -1.4,   -1.1,   -0.2,    0.1,   -0.0,  999.0,  999.0,  999.0,  999.0,  999.0,   -3.0,   -4.0,   -5.9,  999.0,  999.0,   -8.4,  999.0,  999.0,  999.0,  999.0,  999.0,  999.0,  999.0,  999.0,  999.0,  999.0,  999.0,  999.0,  999.0,  999.0,  999.0,  999.0,  999.0,  999.0,  999.0,  999.0,  999.0,  999.0,  999.0,  999.0,  999.0,  999.0,  999.0,  999.0,  999.0,    0.1,  999.0,  999.0,  999.0,  999.0,  999.0,  999.0,  999.0,  999.0,  999.0,  999.0,  999.0
2006/01/16 09:10,    7.6,    5.8,    4.5,    5.8,    5.6,    4.9,    5.3,    5.2,    4.6,    3.5,    3.3,    3.1,    3.1,    2.3,    2.5,    1.7,    0.9,    0.9,    0.2,    0.7,  999.0,   -1.7,   -2.2,   -1.8,   -1.5,   -1.5,   -0.9,   -1.1,   -1.2,   -1.5,   -1.6,   -1.3,   -2.3,   -3.4,   -3.7,   -4.7,   -4.1,   -3.5,   -1.9,   -1.8,   -1.8,   -1.7,   -2.0,   -2.5,   -3.4,   -3.7,   -3.4,   -3.2,   -2.7,   -1.9,   -1.3,   -1.3,   -0.7,   -2.0,   -2.7,   -2.8,   -3.0,   -3.2,   -2.7,   -1.6,   -0.8,   -0.3,   -0.6,   -1.2,  999.0,   -0.1,    0.3,    0.6,    0.0,  999.0,  999.0,  999.0,  999.0,  999.0,  999.0,  999.0,  999.0,  999.0,   -8.3,  -10.3,  999.0,  999.0,  999.0,  999.0,  999.0,  999.0,  999.0,  999.0,  999.0,  999.0,  999.0,  999.0,  999.0,  999.0,  999.0,  999.0,  999.0,  999.0,  999.0,  999.0,  999.0,  999.0,  999.0,  999.0,  999.0,  999.0,  999.0,  999.0,   -0.5,  999.0,  999.0,  999.0,  999.0,  999.0,  999.0,  999.0,  999.0,  999.0,  999.0,  999.0
2006/01/16 09:20,    4.4,    5.6,    4.7,    5.7,    5.6,    5.1,    5.6,    5.3,    4.9,    3.8,    3.3,    2.9,    3.1,    1.9,    2.2,    1.6,    1.0,    1.7,    0.4,    0.8,    0.4,   -1.6,   -1.9,   -1.4,   -1.0,   -1.2,   -1.0,   -1.1,   -1.4,   -1.5,   -1.3,   -1.5,   -2.3,   -3.3,   -3.9,   -4.8,   -4.5,   -3.6,   -2.7,   -2.0,   -2.1,   -2.1,   -2.3,   -3.2,   -3.5,   -3.7,   -3.6,   -2.7,   -2.1,   -1.4,   -0.7,   -0.5,   -1.3,   -2.1,   -2.4,   -2.5,   -3.0,   -2.5,   -1.9,   -0.9,   -0.5,   -0.7,   -0.6,   -0.6,  999.0,    0.7,    0.2,    0.7,   -0.4,   -1.1,  999.0,  999.0,   -2.0,  999.0,   -5.5,  999.0,  999.0,  999.0,   -9.5,  -10.3,  999.0,  999.0,  999.0,  999.0,  999.0,  999.0,  999.0,  999.0,  999.0,  999.0,  999.0,  999.0,  999.0,  999.0,  999.0,  999.0,  999.0,  999.0,  999.0,  999.0,  999.0,  999.0,  999.0,  999.0,  999.0,  999.0,  999.0,  999.0,   -0.2,  999.0,    2.6,  999.0,  999.0,   -3.3,  999.0,  999.0,  999.0,  999.0,  999.0,  999.0
2006/01/16 09:30,    4.1,    5.3,    4.5,    5.5,    5.4,    4.9,    5.4,    5.3,    5.0,    4.1,    3.3,    2.9,    3.0,    2.0,    2.5,    1.9,    1.2,    1.7,    0.5,    1.0,    1.0,   -1.2,   -1.8,   -1.0,   -0.8,   -1.3,   -1.0,   -1.0,   -1.3,   -1.4,   -1.7,   -1.6,   -2.3,   -2.7,   -3.3,   -4.3,   -4.5,   -3.8,   -2.9,   -1.9,   -2.0,   -2.1,   -2.4,   -3.3,   -3.7,   -3.6,   -3.7,   -2.8,   -2.7,   -2.1,   -1.1,   -0.7,   -2.0,   -2.7,   -2.6,   -2.8,   -2.6,   -2.2,   -1.4,   -1.0,  999.0,   -0.5,   -1.1,  999.0,   -0.3,   -0.2,  999.0,  999.0,    0.5,   -0.1,  999.0,  999.0,  999.0,   -4.8,  999.0,  999.0,  999.0,  999.0,  999.0,  -12.0,  999.0,  999.0,  999.0,  999.0,  999.0,  999.0,  999.0,  999.0,  999.0,  999.0,  999.0,  999.0,  999.0,  999.0,  999.0,  999.0,  999.0,  999.0,  999.0,  999.0,  999.0,  999.0,  999.0,  999.0,  999.0,  999.0,  999.0,  999.0,  999.0,  999.0,  999.0,  999.0,  999.0,  999.0,  999.0,  999.0,  999.0,  999.0,  999.0,  999.0
2006/01/16 09:40,    2.9,    4.5,    4.5,    5.3,    5.2,    4.8,    4.9,    5.0,    4.5,    3.4,    2.6,    2.7,    2.8,    2.3,    2.1,    1.8,    1.2,    1.4,    0.8,    1.1,    1.3,   -0.8,   -1.7,   -0.9,   -0.6,   -1.0,   -1.0,   -1.2,   -1.4,   -1.6,   -2.4,   -1.8,   -2.2,   -2.3,   -3.0,   -3.7,   -4.5,   -3.9,   -2.9,   -1.9,   -1.7,   -1.9,   -2.4,   -3.0,   -3.5,   -3.2,   -3.0,   -2.5,   -2.0,   -1.0,   -0.5,   -0.6,   -1.8,   -2.6,   -2.9,   -3.1,   -2.7,   -2.4,   -1.5,   -1.1,  999.0,   -1.0,   -0.9,   -1.0,  999.0,   -0.3,    0.5,    0.8,    1.2,    0.4,   -0.6,  999.0,  999.0,   -3.2,  999.0,  999.0,  999.0,  999.0,  999.0,  999.0,  999.0,  999.0,  999.0,  999.0,  999.0,  999.0,  999.0,  999.0,  999.0,  999.0,  999.0,  999.0,  999.0,  999.0,  999.0,  999.0,  999.0,  999.0,  999.0,  999.0,  999.0,  999.0,  999.0,  -14.6,  999.0,  999.0,  999.0,  999.0,  999.0,  999.0,  999.0,  999.0,  999.0,  999.0,  999.0,  999.0,  999.0,  999.0,  999.0,  999.0
2006/01/16 09:50,    2.8,    3.6,    4.6,    5.2,    5.4,    4.8,    4.8,    5.3,    4.7,    3.5,    2.6,    2.6,    2.3,    1.8,    1.2,    1.1,    0.6,    0.6,    0.6,    0.6,    0.6,   -1.3,   -1.5,   -1.1,   -0.1,   -0.4,   -0.5,   -0.5,   -0.6,   -1.2,   -1.9,   -0.9,   -1.3,   -2.0,   -2.5,   -2.8,   -3.4,   -3.4,   -2.8,   -1.5,   -1.8,   -1.9,   -2.5,   -3.5,   -3.9,   -3.3,   -2.8,   -2.3,   -1.8,   -0.9,   -0.4,   -0.8,   -2.0,   -2.7,   -3.1,   -3.3,   -3.0,   -2.6,   -1.3,   -0.6,   -0.3,   -0.7,   -1.3,   -0.9,  999.0,    0.4,    0.1,  999.0,  999.0,  999.0,   -0.8,  999.0,  999.0,  999.0,  999.0,  999.0,   -5.0,   -7.8,  999.0,  999.0,  -10.9,  999.0,  999.0,  999.0,  999.0,  999.0,  999.0,  999.0,  999.0,  999.0,  999.0,  999.0,  999.0,  999.0,  999.0,  999.0,  999.0,  999.0,  999.0,  999.0,  999.0,  999.0,  999.0,  999.0,  999.0,  999.0,  999.0,  999.0,  999.0,  999.0,  999.0,  999.0,  999.0,  999.0,  999.0,  999.0,  999.0,  999.0,  999.0,  999.0
2006/01/16 10:00,    2.9,    3.7,    4.7,    5.0,    5.6,    4.5,    4.8,    5.3,    5.2,    3.9,    2.6,    2.3,    2.3,    1.5,    1.2,    1.2,    0.5,    0.8,    0.5,    0.7,    0.1,   -1.2,   -1.0,   -0.4,   -0.0,   -0.3,   -0.3,   -0.1,    0.0,   -0.9,   -1.4,   -0.6,   -0.9,   -1.8,   -2.3,   -2.3,   -3.1,   -3.2,   -2.8,   -1.5,   -1.9,   -2.3,   -2.7,   -3.8,   -4.4,   -3.6,   -3.3,   -2.8,   -2.4,   -1.3,   -0.6,   -1.4,   -2.4,   -3.1,   -3.3,   -3.4,   -3.2,   -2.2,  999.0,   -0.5,   -0.6,   -0.7,   -0.6,   -0.8,  999.0,  999.0,  999.0,  999.0,  999.0,  999.0,   -0.6,   -0.4,  999.0,  999.0,  999.0,  999.0,   -4.4,  999.0,  999.0,   -8.0,  -10.6,  999.0,  999.0,  999.0,  999.0,  999.0,  999.0,  999.0,  999.0,  999.0,  999.0,  999.0,  999.0,  999.0,  999.0,  999.0,  999.0,  999.0,  999.0,  999.0,  999.0,  999.0,  999.0,  999.0,  999.0,  999.0,  999.0,  999.0,  999.0,  999.0,  999.0,  999.0,  999.0,  999.0,  999.0,  999.0,  999.0,  999.0,  999.0,  999.0
2006/01/16 10:10,    3.3,    4.0,    5.3,    5.3,    5.7,    5.3,    4.9,    5.4,    5.3,    4.2,    2.8,    2.3,    2.3,    1.5,    0.8,    0.9,    0.6,    0.7,    0.6,    0.8,    0.6,   -0.9,   -0.6,   -0.2,    0.3,    0.0,    0.2,    0.2,   -0.1,   -1.0,   -1.5,   -0.8,   -1.1,   -2.2,   -2.6,   -2.6,   -3.2,   -3.3,   -2.8,   -1.5,   -1.6,   -2.1,   -2.5,   -3.3,   -3.7,   -3.3,   -2.9,   -2.7,   -2.3,   -1.6,   -0.6,   -1.5,   -2.5,   -3.4,   -3.9,   -3.5,   -3.5,   -2.1,   -1.9,   -0.8,   -1.0,  999.0,   -1.1,  999.0,   -1.0,  999.0,    0.1,   -1.5,   -0.1,    0.1,   -0.7,   -0.6,  999.0,  999.0,  999.0,   -2.9,   -4.5,  999.0,  999.0,   -8.2,  -10.3,  -13.7,  -12.8,  999.0,  999.0,  999.0,  999.0,  999.0,  999.0,  999.0,  999.0,  999.0,  999.0,  999.0,  999.0,  999.0,  999.0,  999.0,  999.0,  999.0,  999.0,  999.0,  999.0,  -14.5,  999.0,  999.0,  999.0,   -4.8,  999.0,  999.0,  999.0,  999.0,  999.0,  999.0,  999.0,  999.0,  999.0,  999.0,  999.0,  999.0
2006/01/16 10:20,    3.4,    4.1,    5.3,    5.3,    5.9,    5.5,    4.6,    5.3,    5.2,    4.0,    2.6,    2.2,    2.1,    1.5,    1.1,    1.1,    1.0,    0.6,    0.7,    0.4,    0.8,    0.2,   -0.6,   -0.3,    0.3,    0.2,    0.2,    0.2,    0.0,   -0.8,   -1.3,   -1.4,   -1.4,   -2.0,   -2.8,   -2.8,   -3.6,   -3.5,   -2.7,   -2.1,   -2.0,   -2.3,   -2.6,   -2.9,   -2.8,   -2.6,   -2.4,   -2.3,   -1.7,   -1.3,   -0.5,   -1.1,   -2.0,   -3.1,   -3.5,   -2.9,   -2.8,   -1.7,   -1.3,   -0.3,   -0.9,   -0.5,  999.0,  999.0,    0.3,    0.4,    0.2,    0.6,  999.0,  999.0,   -0.8,  999.0,  999.0,  999.0,  999.0,   -3.3,   -4.3,  999.0,  999.0,   -8.6,   -9.7,  -12.0,  -12.6,  999.0,  999.0,  999.0,  999.0,  999.0,  999.0,  999.0,  999.0,  999.0,  999.0,  999.0,  999.0,  999.0,  999.0,  999.0,  999.0,  999.0,  999.0,  999.0,  999.0,  999.0,  999.0,  999.0,  999.0,  999.0,  999.0,  999.0,  999.0,  999.0,  999.0,  999.0,  999.0,  999.0,  999.0,  999.0,  999.0,  999.0
2006/01/16 10:30,    3.5,    4.2,    5.1,    4.9,    5.4,    5.2,    4.7,    5.3,    5.3,    3.9,    2.6,    2.1,    2.1,    1.4,    1.4,    1.4,    1.1,    1.0,    1.0,    1.2,    0.8,    0.6,   -0.4,   -0.0,    0.3,   -0.2,   -0.2,   -0.2,   -0.0,   -0.8,   -1.2,   -1.2,   -1.0,   -1.6,   -2.5,   -2.7,   -3.4,   -3.3,   -2.5,   -1.6,   -1.9,   -2.3,   -2.7,   -3.2,   -3.1,   -2.9,   -2.9,   -3.1,   -1.9,   -1.2,   -0.6,   -1.0,   -1.5,   -2.3,   -3.3,   -3.3,   -3.0,   -2.5,   -1.1,   -0.4,   -1.1,   -1.1,    0.1,   -0.1,    0.1,   -0.3,    0.0,    0.6,  999.0,  999.0,  999.0,  999.0,  999.0,  999.0,   -0.7,   -2.2,   -2.6,  999.0,  999.0,   -8.9,  999.0,  999.0,  999.0,  999.0,  999.0,  999.0,  999.0,  999.0,  999.0,  999.0,  999.0,  999.0,  999.0,  999.0,  999.0,  999.0,  999.0,  999.0,  999.0,  999.0,  999.0,  999.0,  999.0,  999.0,  999.0,  999.0,  999.0,  999.0,  999.0,  999.0,  999.0,  999.0,  999.0,  999.0,  999.0,  999.0,  999.0,  999.0,  999.0,  999.0
2006/01/16 10:40,    3.3,    3.8,    4.7,    4.2,    4.9,    4.8,    4.5,    4.8,    5.3,    3.8,    2.6,    1.9,    2.0,    1.2,    0.7,    1.4,    1.3,    1.5,    1.2,    1.7,    1.5,    1.0,    0.1,   -0.1,   -0.1,   -0.6,   -0.8,   -0.1,   -0.0,   -0.7,   -0.8,   -0.9,   -1.2,   -1.4,   -2.2,   -2.9,   -3.4,   -3.5,   -2.8,   -1.8,   -2.2,   -2.2,   -2.5,   -3.1,   -3.1,   -2.8,   -2.8,   -2.9,   -1.7,   -0.6,   -0.5,   -1.0,   -1.5,   -3.4,   -3.1,   -3.1,   -2.6,   -1.7,   -0.8,    0.1,   -0.3,   -0.3,   -0.1,    0.3,    0.3,    0.1,    0.2,    0.3,  999.0,  999.0,  999.0,    0.6,   -0.2,  999.0,   -2.0,  999.0,  999.0,  999.0,   -8.7,   -8.9,  999.0,  999.0,  999.0,  999.0,  999.0,  999.0,  999.0,  999.0,  999.0,  999.0,  999.0,  999.0,  999.0,  999.0,  999.0,  999.0,  999.0,  999.0,  999.0,  999.0,  999.0,  999.0,  999.0,  999.0,  999.0,  999.0,  999.0,  999.0,  999.0,  999.0,  999.0,  999.0,  999.0,  999.0,  999.0,  999.0,  999.0,  999.0,  999.0,  999.0
2006/01/16 10:50,    3.3,    3.5,    4.1,    4.1,    4.3,    4.8,    4.7,    4.9,    5.2,    4.0,    2.6,    2.0,    1.9,    1.0,    0.8,    1.2,    1.4,    1.6,    1.1,    1.8,    1.2,    1.1,   -0.0,   -0.1,   -0.2,   -0.8,   -0.6,    0.1,   -0.0,   -0.6,   -0.7,   -0.7,   -0.9,   -1.2,   -2.0,   -2.9,   -3.4,   -3.8,   -3.2,   -2.4,   -2.5,   -2.3,   -2.6,   -3.0,   -3.1,   -3.4,   -3.1,   -2.8,   -1.6,   -0.8,   -0.3,   -0.8,   -1.5,   -3.0,   -2.9,   -2.9,   -2.1,   -0.8,  999.0,    0.5,    0.6,    0.2,  999.0,    0.6,  999.0,  999.0,    0.6,    1.1,  999.0,  999.0,    0.5,    1.2,    0.1,   -1.1,   -2.2,   -3.1,  999.0,   -6.1,   -7.6,   -9.3,  999.0,  999.0,  999.0,  999.0,  999.0,  999.0,  999.0,  999.0,  999.0,  999.0,  999.0,  999.0,  999.0,  999.0,  999.0,  999.0,  999.0,  999.0,  999.0,  999.0,  999.0,  999.0,  999.0,  999.0,  999.0,  999.0,  999.0,  999.0,  999.0,  999.0,  999.0,  999.0,  999.0,  999.0,  999.0,  999.0,  999.0,  999.0,  999.0,  999.0
2006/01/16 11:00,  999.0,    3.9,    3.6,    4.4,    4.2,    4.7,    4.3,    4.3,    4.5,    3.5,    2.4,    1.9,    1.5,    1.3,    0.7,    0.7,    0.8,    0.5,    0.4,    1.3,    1.0,    0.9,    0.0,    0.1,    0.1,   -0.4,   -0.2,    0.1,   -0.2,   -0.8,   -0.6,   -0.6,   -0.6,   -0.9,   -1.6,   -2.5,   -3.2,   -3.2,   -2.9,   -2.6,   -2.6,   -2.6,   -3.0,   -3.3,   -3.0,   -3.7,   -3.3,   -3.1,   -1.6,   -0.9,   -0.5,   -0.8,   -2.0,   -3.1,   -3.5,   -3.0,   -2.0,   -1.6,   -0.7,    0.2,   -0.1,   -0.3,    0.1,    0.2,    0.6,    1.0,    1.4,    2.4,    1.8,    1.4,    0.8,    0.5,    0.0,   -1.0,   -2.0,   -3.4,  999.0,   -6.7,   -9.1,  -10.2,  999.0,  999.0,  999.0,  999.0,  999.0,  999.0,  999.0,  999.0,  999.0,  999.0,  999.0,  999.0,  999.0,  999.0,  999.0,  999.0,  999.0,  999.0,  999.0,  999.0,  999.0,  999.0,  999.0,  999.0,  999.0,  999.0,  999.0,  999.0,  999.0,  999.0,  999.0,  999.0,  999.0,  999.0,  999.0,  999.0,  999.0,  999.0,  999.0,  999.0
2006/01/16 11:10,    2.9,    3.8,    3.7,    4.4,    4.3,    4.6,    4.6,    4.6,    4.8,    3.5,    2.5,    1.9,    1.6,    1.4,    1.0,    0.7,    0.5,    0.5,    0.1,    0.1,    0.6,    1.2,    0.1,    0.1,    0.2,   -0.0,    0.2,    0.0,   -0.3,   -0.8,   -0.0,   -0.1,   -0.2,   -0.7,   -1.4,   -2.3,   -2.9,   -2.7,   -2.6,   -2.5,   -2.4,   -2.9,   -2.8,   -3.3,   -3.3,   -3.9,   -3.9,   -2.7,   -1.2,   -0.5,   -0.4,   -0.6,   -1.3,   -1.8,   -2.3,   -2.0,   -2.0,   -1.5,   -0.9,   -0.5,   -0.6,   -0.2,    0.1,    0.1,    0.1,    1.2,    2.4,    2.5,    2.9,    1.1,    1.2,    0.8,  999.0,   -1.0,   -1.6,   -4.1,   -5.3,  999.0,   -9.2,  999.0,  999.0,  999.0,  999.0,  999.0,  999.0,  999.0,  999.0,  999.0,  999.0,  999.0,  999.0,  999.0,  999.0,  999.0,  999.0,  999.0,  999.0,  999.0,  999.0,  999.0,  999.0,  999.0,  999.0,  999.0,  999.0,  999.0,  999.0,  999.0,  999.0,  999.0,  999.0,  999.0,  999.0,  999.0,  999.0,  999.0,  999.0,  999.0,  999.0,  999.0
2006/01/16 11:20,    3.9,    3.1,    2.9,    3.9,    4.0,    4.6,    4.5,    4.5,    4.4,    3.4,    2.0,    1.5,    1.5,    1.8,    1.1,    1.0,    0.7,    0.5,    0.2,    0.0,    0.7,    0.9,    0.2,    0.4,    0.1,   -0.0,   -0.1,    0.4,   -0.5,   -0.7,    0.1,    0.3,    0.2,    0.1,   -0.8,   -2.0,   -2.3,   -2.3,   -2.3,   -2.3,   -2.3,   -3.1,   -2.5,   -3.0,   -3.3,   -4.3,   -4.4,   -2.3,   -1.3,   -0.6,   -0.4,   -0.8,   -1.5,   -1.5,   -1.6,   -1.3,   -1.2,   -0.8,   -0.6,    0.2,    0.3,   -0.2,   -0.2,    0.3,    0.2,    1.2,    2.2,    2.5,  999.0,    0.6,    1.2,    0.9,  999.0,   -0.9,   -1.7,   -3.7,  999.0,  999.0,   -8.8,  999.0,  999.0,  999.0,  999.0,  999.0,  999.0,  999.0,  999.0,  999.0,  999.0,  999.0,  999.0,  999.0,  999.0,  999.0,  999.0,  999.0,  999.0,  999.0,  999.0,  999.0,  999.0,  999.0,  999.0,  999.0,  999.0,  999.0,  999.0,  999.0,  999.0,  999.0,  999.0,  999.0,  999.0,  999.0,  999.0,  999.0,  999.0,  999.0,  999.0,  999.0
2006/01/16 11:30,    4.2,  999.0,  999.0,    3.8,    4.2,    4.6,    4.7,    4.6,    3.9,    3.1,    1.6,    1.1,    1.1,    1.2,    0.7,    1.6,    0.8,    0.3,    0.1,   -0.1,    0.1,    0.2,    0.3,    0.3,  999.0,   -0.4,   -0.4,  999.0,   -0.6,   -0.4,    0.5,    0.7,    0.6,    0.5,   -1.3,   -1.9,   -2.5,   -2.2,   -1.8,   -2.1,   -2.3,   -2.9,   -2.4,   -2.8,   -3.2,   -4.3,   -4.1,   -2.1,   -1.3,   -1.0,   -0.5,   -1.0,   -1.3,   -1.1,   -0.7,   -0.5,   -0.4,    0.6,    0.9,    1.7,    0.7,    0.2,   -0.1,    0.9,    0.7,    2.2,    2.4,  999.0,    1.5,  999.0,    0.5,  999.0,   -0.7,   -1.7,  999.0,   -2.7,  999.0,  999.0,  999.0,  999.0,  999.0,  999.0,  999.0,  999.0,  999.0,  999.0,  999.0,  999.0,  999.0,  999.0,  999.0,  999.0,  999.0,  999.0,  999.0,  999.0,  999.0,  999.0,  999.0,  999.0,  999.0,  999.0,  999.0,  999.0,  999.0,  999.0,  999.0,  999.0,  999.0,  999.0,  999.0,  999.0,  999.0,  999.0,  999.0,  999.0,  999.0,  999.0,  999.0,  999.0
2006/01/16 11:40,    1.7,    2.6,    3.3,    3.5,    3.8,    4.4,    4.9,    5.0,    4.9,    3.5,    2.6,    1.8,    1.8,    1.7,    1.4,    1.5,    0.5,   -0.1,   -0.5,   -0.3,   -0.2,   -0.4,    0.2,    0.3,   -0.2,   -0.3,   -0.4,  999.0,   -0.5,   -0.3,    0.9,    1.1,    0.8,    0.0,   -1.8,   -2.2,   -2.8,   -2.5,   -2.1,   -2.0,   -2.4,   -2.2,   -2.0,   -2.3,   -2.9,   -3.7,   -3.5,   -2.2,   -1.3,   -1.5,   -0.5,   -1.1,   -1.4,   -1.4,   -0.7,   -0.5,    0.1,    1.2,    1.5,    1.2,    1.1,    0.6,    0.6,    1.1,    2.2,    2.7,    2.8,  999.0,    1.8,    1.2,    0.2,  999.0,   -0.7,   -2.3,  999.0,   -2.9,  999.0,  999.0,  999.0,  999.0,  999.0,  999.0,  999.0,  999.0,  999.0,  999.0,  999.0,  999.0,  999.0,  999.0,  999.0,  999.0,  999.0,  999.0,  999.0,  999.0,  999.0,  999.0,  999.0,  999.0,  999.0,  999.0,  999.0,  999.0,  999.0,  999.0,  999.0,  999.0,  999.0,  999.0,  999.0,  999.0,  999.0,  999.0,  999.0,  999.0,  999.0,  999.0,  999.0,  999.0
2006/01/16 11:50,    2.0,    2.7,    3.1,    3.0,    2.7,    3.2,    4.0,    4.5,    4.3,    3.9,    2.9,    1.9,    1.6,    1.3,    1.3,    0.9,   -0.2,    0.0,   -0.0,    0.3,    0.0,   -0.4,   -0.5,   -0.0,   -0.4,   -1.3,   -1.0,   -0.6,   -0.9,   -0.5,    0.7,    0.9,    0.6,   -0.2,   -1.6,   -2.3,   -3.2,   -2.7,   -2.4,   -2.4,   -2.5,   -2.0,   -2.0,   -2.4,   -2.7,   -3.4,   -3.4,   -2.0,   -1.1,   -1.4,   -0.8,   -1.2,   -1.4,   -1.8,   -0.9,   -0.4,    0.2,    1.0,    0.8,    0.2,    1.1,    1.0,    1.2,    1.8,    2.1,    2.4,    2.2,    2.7,    2.6,    1.4,  999.0,   -0.4,   -0.9,   -2.3,  999.0,  999.0,  999.0,  999.0,  999.0,  999.0,  999.0,  999.0,  999.0,  999.0,  999.0,  999.0,  999.0,  999.0,  999.0,  999.0,  999.0,  999.0,  999.0,  999.0,  999.0,  999.0,  999.0,  999.0,  999.0,  999.0,  999.0,  999.0,  999.0,  999.0,  999.0,  999.0,  999.0,  999.0,  999.0,  999.0,  999.0,  999.0,  999.0,  999.0,  999.0,  999.0,  999.0,  999.0,  999.0,  999.0
2006/01/16 12:00,    2.3,    2.5,    2.5,    2.5,    2.6,    3.2,    4.0,    4.5,    4.0,    4.3,    3.4,    2.0,    1.3,    1.1,    0.9,    0.2,   -0.1,    0.2,    0.2,    0.7,    0.4,   -0.8,   -1.9,   -0.6,   -0.6,   -1.2,   -1.0,   -0.6,   -0.5,   -0.4,    0.4,    0.7,    0.6,    0.4,   -0.8,   -1.8,   -2.9,   -2.4,   -2.6,   -2.7,   -2.7,   -1.8,   -2.0,   -2.4,   -2.7,   -3.8,   -3.3,   -1.3,   -1.3,   -1.2,   -0.9,   -1.7,   -1.2,   -1.0,   -1.0,   -0.1,    0.6,    1.0,    0.9,    1.3,    1.2,    1.4,    1.9,    2.2,    2.1,    2.6,    2.7,    2.9,    2.4,  999.0,  999.0,   -0.6,   -1.2,   -2.3,   -4.2,  999.0,  999.0,  999.0,  999.0,  999.0,  999.0,  999.0,  999.0,  999.0,  999.0,  999.0,  999.0,  999.0,  999.0,  999.0,  999.0,  999.0,  999.0,  999.0,  999.0,  999.0,  999.0,  999.0,  999.0,  999.0,  999.0,  999.0,  999.0,  999.0,  999.0,  999.0,  999.0,  999.0,  999.0,  999.0,  999.0,  999.0,  999.0,  999.0,  999.0,  999.0,  999.0,  999.0,  999.0,  999.0
2006/01/16 12:10,    2.4,    2.5,    2.5,    2.6,    2.3,    3.0,    3.7,    4.3,    4.1,    4.0,    3.5,    1.6,    1.0,    1.2,    0.5,    0.2,    0.3,    0.8,    1.4,    1.1,    0.1,   -2.0,   -2.3,   -0.8,   -0.4,   -0.9,   -0.9,   -0.2,   -0.4,   -0.5,    0.4,    0.8,    0.8,    0.8,   -0.3,   -1.8,   -2.9,   -2.7,   -3.0,   -2.8,   -2.9,   -1.9,   -2.3,   -2.4,   -2.7,   -4.0,   -2.9,   -1.1,   -1.8,   -1.1,   -1.4,   -2.2,  999.0,   -1.1,   -0.6,    0.0,    1.0,    1.2,    1.0,    1.1,    1.2,    1.8,    2.3,    1.9,    2.2,    2.1,    2.2,    1.9,    0.4,    0.8,  999.0,   -1.4,   -1.9,   -2.8,   -4.5,  999.0,  999.0,  999.0,  999.0,  999.0,  999.0,  999.0,  999.0,  999.0,  999.0,  999.0,  999.0,  999.0,  999.0,  999.0,  999.0,  999.0,  999.0,  999.0,  999.0,  999.0,  999.0,  999.0,  999.0,  999.0,  999.0,  999.0,  999.0,  999.0,  999.0,  999.0,  999.0,  999.0,  999.0,  999.0,  999.0,  999.0,  999.0,  999.0,  999.0,  999.0,  999.0,  999.0,  999.0,  999.0
2006/01/16 12:20,    2.6,    2.0,    3.0,    2.7,    2.4,    2.8,    3.8,    3.3,    4.0,    3.9,    3.5,    1.4,    1.0,    1.0,   -0.1,    0.1,    0.2,    1.1,    1.3,    1.2,    0.1,   -1.4,   -2.0,   -1.1,   -0.3,   -0.7,   -0.0,    0.3,   -0.4,   -0.5,    1.0,    1.0,    0.7,    0.9,   -0.1,   -1.8,   -3.1,   -2.8,   -3.1,   -3.2,   -3.0,   -2.4,   -2.7,   -2.8,   -3.0,   -4.1,   -2.4,   -1.3,   -1.7,   -1.4,   -2.1,   -2.7,   -2.0,   -1.4,   -0.4,    0.8,    1.1,    1.2,    1.2,    0.9,    1.6,    2.1,    2.1,    2.0,    1.8,    2.0,    1.7,    0.9,   -0.2,  999.0,   -1.7,   -0.7,   -2.0,   -2.6,   -4.5,  999.0,   -0.4,  999.0,  999.0,  999.0,  999.0,  999.0,  999.0,  999.0,  999.0,  999.0,  999.0,  999.0,  999.0,  999.0,  999.0,  999.0,  999.0,  999.0,  999.0,  999.0,  999.0,  999.0,  999.0,  999.0,  999.0,  999.0,  999.0,  999.0,  999.0,  999.0,  999.0,  999.0,  999.0,  999.0,  999.0,  999.0,  999.0,  999.0,  999.0,  999.0,  999.0,  999.0,  999.0,  999.0
2006/01/16 12:30,    2.7,    2.1,    2.2,    1.9,    2.0,    2.7,    4.5,    4.2,    4.1,    4.2,    4.1,    2.2,    1.5,    1.3,   -0.1,    0.6,    0.9,    0.8,    1.1,    1.6,    1.3,   -0.4,   -1.1,   -1.1,   -0.4,   -0.9,   -0.1,    0.3,   -0.5,   -1.2,    0.4,    0.7,    0.4,    0.6,   -0.4,   -2.4,   -3.3,   -3.4,   -3.8,   -3.9,   -3.5,   -2.8,   -3.2,   -3.2,   -3.3,   -4.4,   -1.8,   -1.0,   -1.3,   -1.8,   -2.5,   -2.4,   -2.0,   -0.8,    0.4,    1.5,    1.5,    1.2,    1.0,    1.0,    1.5,    2.3,    1.8,    2.0,    2.1,    1.4,    1.6,    1.3,    1.0,  999.0,   -2.0,   -0.5,   -1.2,   -3.2,  999.0,  999.0,  999.0,  999.0,  999.0,  999.0,  999.0,  999.0,  999.0,  999.0,  999.0,  999.0,  999.0,  999.0,  999.0,  999.0,  999.0,  999.0,  999.0,  999.0,  999.0,  999.0,  999.0,  999.0,  999.0,  999.0,  999.0,  999.0,  999.0,  999.0,  999.0,  999.0,  999.0,  999.0,  999.0,  999.0,  999.0,  999.0,  999.0,  999.0,  999.0,  999.0,  999.0,  999.0,  999.0,  999.0
2006/01/16 12:40,    3.1,    1.9,    1.5,    1.0,    1.5,    2.2,    3.6,    3.9,    2.6,    3.2,    2.8,    2.4,    1.7,    1.3,   -0.2,    0.3,    0.8,    0.6,    1.0,    1.7,    1.6,   -0.0,   -0.9,   -0.3,   -0.2,   -0.3,   -0.3,    0.1,   -0.4,   -0.7,    0.8,    1.0,    0.8,    1.1,    0.9,   -1.4,   -1.9,   -2.8,   -3.3,   -4.0,   -3.7,   -3.2,   -3.3,   -3.6,   -4.3,   -5.2,   -2.0,   -1.7,   -1.6,   -2.6,   -3.4,   -2.8,   -2.3,   -1.0,    0.8,    1.3,    1.1,    0.9,    1.2,    1.7,    2.2,    2.6,    2.1,    1.5,    1.7,    1.1,    1.6,    1.0,   -0.5,   -0.3,  999.0,  999.0,  999.0,  999.0,  999.0,  999.0,  999.0,  999.0,  999.0,  999.0,  999.0,  999.0,  999.0,  999.0,  999.0,  999.0,  999.0,  999.0,  999.0,  999.0,  999.0,  999.0,  999.0,  999.0,  999.0,  999.0,  999.0,  999.0,  999.0,  999.0,  999.0,  999.0,  999.0,  999.0,  999.0,  999.0,  999.0,  999.0,  999.0,  999.0,  999.0,  999.0,  999.0,  999.0,  999.0,  999.0,  999.0,  999.0,  999.0,  999.0
2006/01/16 12:50,    2.9,    1.9,    1.6,    1.7,    2.8,    3.0,    3.7,    2.5,    1.8,    2.5,    2.8,    2.9,    1.8,    1.5,   -0.1,    0.3,    0.7,    0.8,    1.2,    2.1,    1.5,   -0.0,   -1.0,   -0.5,   -0.3,   -0.3,   -0.6,   -0.1,   -0.4,   -1.1,    0.1,    0.2,   -0.0,    0.3,    0.3,   -0.6,   -1.8,   -2.7,   -3.2,   -3.8,   -3.7,   -3.3,   -3.6,   -3.8,   -4.1,   -4.8,   -1.5,   -1.9,   -1.7,   -2.3,   -3.3,   -3.0,   -2.4,   -1.8,   -0.8,    0.2,    0.3,    0.6,    1.3,    1.5,    2.6,    2.5,    2.2,    1.7,    1.4,    1.1,    1.3,    0.6,   -0.2,   -0.4,   -2.9,   -2.7,   -2.6,  999.0,   -7.7,  999.0,  999.0,  999.0,  999.0,  999.0,  999.0,  999.0,  999.0,  999.0,  999.0,  999.0,  999.0,   -6.2,  999.0,  999.0,  999.0,  999.0,  999.0,  999.0,  999.0,  999.0,  999.0,  999.0,  999.0,  999.0,  999.0,  999.0,  999.0,  999.0,  999.0,  999.0,  999.0,  999.0,  999.0,  999.0,  999.0,  999.0,  999.0,  999.0,  999.0,  999.0,  999.0,  999.0,  999.0,  999.0
2006/01/16 13:00,    3.0,    1.8,    1.7,    1.6,    2.6,    2.8,    2.9,    2.3,    2.2,    2.2,    3.3,    3.2,    2.3,    2.0,   -0.0,    0.7,    0.9,    1.1,    1.3,    2.5,    1.3,   -0.4,   -1.4,   -0.9,   -0.2,   -0.6,   -0.6,   -0.2,   -0.5,   -1.1,   -0.4,   -0.5,   -0.6,   -0.5,    0.0,   -0.4,   -2.1,   -3.0,   -3.4,   -3.6,   -3.4,   -2.9,   -3.4,   -3.0,   -3.3,   -4.3,   -1.6,   -1.0,   -0.7,   -1.0,   -2.7,   -2.7,   -2.1,   -1.5,   -0.6,    0.2,    0.2,    0.3,    0.1,    0.4,    0.8,    0.3,    0.2,   -0.2,   -0.4,    0.4,    0.7,    0.1,   -0.3,   -1.7,   -3.1,   -3.4,   -4.3,   -6.4,   -7.0,  999.0,  999.0,  999.0,  999.0,  999.0,  999.0,  999.0,  999.0,  999.0,  999.0,  999.0,  999.0,  999.0,  999.0,  999.0,  999.0,  999.0,  999.0,  999.0,  999.0,  999.0,  999.0,  999.0,  999.0,  999.0,  999.0,  999.0,  999.0,  999.0,  999.0,  999.0,  999.0,  999.0,  999.0,  999.0,  999.0,  999.0,  999.0,  999.0,  999.0,  999.0,  999.0,  999.0,  999.0,  999.0
2006/01/16 13:10,    2.9,    3.3,    2.1,    1.9,    2.8,    2.5,    2.2,    2.6,    2.8,    2.7,    3.0,    3.5,    2.6,    1.8,    0.2,    0.8,    1.7,    1.1,    1.4,    2.2,    0.6,   -1.0,   -1.0,   -0.5,    0.0,   -0.2,   -0.2,   -0.0,   -0.8,   -1.2,   -0.5,   -0.7,   -0.9,   -1.0,    0.1,   -0.2,   -1.8,   -2.6,   -3.4,   -3.4,   -3.2,   -2.9,   -3.6,   -3.5,   -4.0,   -4.7,   -1.9,   -1.6,   -0.7,   -0.8,   -2.1,   -2.1,   -2.1,   -1.2,   -0.9,    0.5,    0.1,   -0.0,    0.0,    0.1,   -0.4,   -0.5,   -0.6,   -0.2,   -0.1,    0.7,    1.4,    1.1,    0.8,    0.3,   -0.3,   -1.1,   -3.1,   -4.2,   -4.4,   -5.9,  999.0,  999.0,  999.0,  999.0,  -14.7,  999.0,  999.0,  999.0,  999.0,  999.0,  999.0,  999.0,  999.0,  999.0,  999.0,  999.0,  999.0,  999.0,  999.0,  999.0,  999.0,  999.0,  999.0,  999.0,  999.0,  999.0,  999.0,  999.0,  999.0,  999.0,  999.0,  999.0,  999.0,  999.0,  999.0,  999.0,  999.0,  999.0,  999.0,  999.0,  999.0,  999.0,  999.0,  999.0
2006/01/16 13:20,    3.1,    2.5,    2.3,    2.1,    2.1,    1.9,    2.3,    2.6,    2.7,    2.3,    2.8,    3.1,    1.9,    1.1,    0.9,    0.9,    1.4,    1.5,    1.7,    2.2,    1.0,   -0.4,   -0.3,    0.6,    0.5,    0.4,    0.1,    0.1,   -1.3,   -1.3,   -0.4,   -0.8,   -0.6,   -1.1,    0.1,    0.7,   -0.9,   -1.6,   -3.0,   -3.1,   -3.6,   -3.5,   -3.5,   -3.3,   -3.4,   -4.5,   -1.9,   -1.2,   -1.0,   -1.4,   -2.1,   -2.4,   -2.2,   -1.6,   -1.2,   -0.9,   -0.9,   -1.2,   -1.5,   -0.8,   -0.5,   -1.2,    0.2,    0.6,    0.6,    0.5,    0.2,   -0.8,   -0.4,   -0.4,   -1.2,   -0.6,   -6.6,  999.0,  999.0,  999.0,  999.0,  999.0,  999.0,  999.0,  999.0,  999.0,  999.0,  999.0,  999.0,  999.0,  999.0,  999.0,  999.0,  999.0,  999.0,  999.0,  999.0,  999.0,  999.0,  999.0,  999.0,  999.0,  999.0,  999.0,  999.0,  999.0,  999.0,  -19.1,  999.0,  999.0,  999.0,  999.0,  999.0,  999.0,  999.0,  999.0,  999.0,  999.0,  999.0,  999.0,  999.0,  999.0,  999.0,  999.0
2006/01/16 13:30,    2.5,    2.4,    2.9,    2.6,    1.9,    1.7,    1.3,    1.8,    1.2,    1.2,    1.6,    1.9,    0.5,    0.5,    0.9,    1.1,    1.1,    2.4,    2.5,    2.3,    1.2,   -0.5,   -0.2,    0.5,    0.6,    0.6,    0.8,    0.7,   -0.7,   -1.0,   -0.2,   -0.7,   -1.0,   -1.7,   -1.1,   -0.2,   -0.9,   -1.3,   -2.7,   -2.3,   -3.1,   -3.5,   -3.8,   -3.3,   -4.1,   -4.6,   -1.8,   -0.9,   -0.5,   -1.4,   -2.2,   -2.4,   -1.9,   -1.7,   -1.5,   -0.8,   -1.0,   -1.2,   -1.3,   -1.1,   -0.3,    0.3,    0.6,    0.4,    0.2,   -0.1,   -0.0,   -0.3,   -0.7,   -1.6,   -2.8,   -4.8,   -6.7,   -6.4,  999.0,  999.0,  999.0,  999.0,  999.0,  999.0,  999.0,  999.0,  999.0,  999.0,  999.0,  999.0,  999.0,  999.0,  999.0,  999.0,  999.0,  999.0,  999.0,  999.0,  999.0,  999.0,  999.0,  999.0,  999.0,  999.0,  999.0,  999.0,  999.0,  -19.0,  999.0,  999.0,  999.0,  999.0,  999.0,  999.0,  999.0,  999.0,  999.0,  999.0,  999.0,  999.0,  999.0,  999.0,  999.0,  999.0
2006/01/16 13:40,    2.2,    3.0,    3.5,    3.1,    2.9,    2.2,    2.5,    2.5,    1.7,    1.4,    1.7,    1.9,    0.7,    0.3,    1.2,    1.1,    0.9,    1.4,    2.7,    2.5,    1.4,   -0.4,    0.1,    0.4,    0.5,    0.6,    1.0,    0.8,   -0.7,   -0.9,   -0.5,   -1.1,   -1.8,   -2.9,   -2.1,   -1.4,   -1.2,   -1.6,   -2.3,   -2.3,   -2.0,   -2.6,   -3.1,   -3.4,   -3.9,   -3.7,   -2.0,   -1.2,   -0.1,   -0.6,   -2.1,   -2.7,   -2.3,   -2.2,   -1.8,   -1.0,   -1.3,   -0.6,   -0.5,   -0.6,    0.1,    0.2,    0.5,    0.6,    1.0,    0.2,    0.3,    0.7,    0.3,   -1.3,   -2.5,   -3.7,   -5.4,   -5.9,  999.0,  999.0,  999.0,  999.0,  999.0,  999.0,  999.0,  999.0,  999.0,  999.0,  999.0,  999.0,  999.0,  999.0,  999.0,  999.0,  999.0,  999.0,  999.0,  999.0,  999.0,  999.0,  999.0,  999.0,  999.0,  999.0,  999.0,  999.0,  999.0,  -19.1,  999.0,  999.0,  999.0,  999.0,  999.0,  999.0,  999.0,  999.0,  999.0,  999.0,  999.0,  999.0,  999.0,  999.0,  999.0,  999.0
2006/01/16 13:50,  999.0,    2.2,    2.9,    3.1,    2.3,    1.9,    2.0,    1.7,    1.2,    0.5,    0.5,    0.6,   -0.4,    0.0,    0.5,    0.6,    1.1,    2.0,    2.4,    2.4,    1.7,   -0.0,    0.4,    0.6,    0.1,    0.8,    1.5,    1.1,   -0.9,   -1.4,   -0.4,   -0.8,   -1.4,   -2.0,   -2.3,   -2.3,   -1.6,   -2.0,   -2.3,   -2.6,   -2.1,   -2.8,   -2.8,   -3.0,   -3.6,   -3.5,   -2.8,   -2.0,   -0.8,   -0.5,   -1.6,   -2.5,   -2.1,   -2.0,   -1.9,   -1.3,   -1.5,   -1.1,   -0.6,   -0.0,    0.5,    0.1,    0.4,    0.8,    1.1,    0.6,    0.6,    1.1,    1.6,    0.6,   -0.9,   -1.4,   -2.7,   -4.1,   -5.4,   -7.2,  999.0,  999.0,  999.0,  999.0,  999.0,  999.0,  999.0,  999.0,  999.0,  999.0,  999.0,  999.0,  999.0,  999.0,  999.0,  999.0,  999.0,  999.0,  999.0,  999.0,  999.0,  999.0,  999.0,  999.0,  999.0,  999.0,  999.0,  -22.0,  999.0,  999.0,  999.0,  999.0,  999.0,  999.0,  999.0,  999.0,  999.0,  999.0,  999.0,  999.0,  999.0,  999.0,  999.0,  999.0
2006/01/16 14:00,    2.5,    2.8,    3.2,    3.1,    2.6,    2.4,    2.7,    2.4,    1.7,   -0.1,   -0.4,   -0.3,   -0.4,    0.5,    0.9,    0.6,    1.3,    1.9,    1.8,    1.6,    0.4,   -0.2,    0.5,    1.0,    0.4,    1.1,    1.6,    1.5,   -0.0,   -0.0,    0.1,   -0.2,   -1.4,   -1.6,   -2.2,   -1.7,   -2.2,   -2.1,   -3.3,   -3.1,   -3.3,   -3.4,   -2.7,   -2.2,   -2.3,   -2.8,   -2.5,   -2.2,   -1.2,   -1.1,   -2.5,   -3.2,   -2.5,   -2.5,   -2.5,   -0.7,    0.6,    1.1,    1.2,    1.6,    1.3,    1.7,    1.5,  999.0,    1.3,    1.4,    0.3,    1.4,    2.2,    1.9,    0.7,   -0.3,   -1.0,   -2.0,   -4.6,   -6.9,  999.0,  999.0,  999.0,  999.0,  999.0,  -15.7,  999.0,  999.0,  999.0,  999.0,  999.0,  999.0,  999.0,  999.0,  999.0,  999.0,  999.0,  999.0,  999.0,  999.0,  999.0,  999.0,  999.0,  999.0,  999.0,  999.0,  999.0,  -21.0,  -15.4,  999.0,  999.0,  999.0,  999.0,  999.0,  999.0,  999.0,  999.0,  999.0,  999.0,  999.0,  999.0,  999.0,  999.0,  999.0
2006/01/16 14:10,    4.3,    4.1,    4.8,    3.2,    2.9,    3.8,    2.8,    2.5,    1.7,    0.8,   -0.1,   -0.1,    0.1,    0.9,    0.6,    0.2,    0.6,    1.4,    1.3,    1.8,    0.2,   -0.6,   -0.3,    0.6,    0.5,    1.1,    1.7,    1.6,    0.9,    0.9,    0.7,   -0.4,   -1.8,   -1.9,   -2.1,   -1.9,   -2.1,   -3.0,   -3.9,   -3.4,   -3.0,   -2.8,   -2.1,   -1.6,   -2.3,   -2.3,   -2.0,   -1.4,   -1.0,   -1.3,   -2.4,   -3.4,   -3.3,   -2.8,   -2.6,   -0.5,    1.0,    1.6,    1.8,    1.7,    2.0,    2.2,    1.4,    2.5,    1.5,    1.4,    0.4,    1.0,    0.6,    1.0,   -0.3,   -1.2,   -2.0,   -2.9,   -3.8,   -6.6,  999.0,  999.0,  999.0,  999.0,  999.0,  -15.5,  999.0,  999.0,  999.0,  999.0,  999.0,  999.0,  999.0,  999.0,  999.0,  999.0,  999.0,  999.0,  999.0,  999.0,  999.0,  999.0,  999.0,  999.0,  999.0,  999.0,  999.0,  -19.1,  -15.1,  999.0,  999.0,  999.0,  999.0,  999.0,  999.0,  999.0,  999.0,  999.0,  999.0,  999.0,  999.0,  999.0,  999.0,  999.0
2006/01/16 14:20,    4.1,    3.9,    2.8,    3.5,    3.6,    2.0,    1.7,    1.5,    0.6,    1.5,    0.1,   -0.5,   -0.2,    0.2,    0.1,    1.2,    0.6,    0.9,    1.9,    1.0,   -0.4,   -0.9,   -1.8,    0.2,    0.5,    1.4,    1.9,    1.4,    0.6,    0.3,    0.1,   -0.4,   -1.3,   -1.8,   -1.8,   -1.8,   -2.0,   -3.0,   -3.9,   -3.4,   -2.9,   -2.2,   -2.0,   -1.5,   -2.2,   -2.7,   -2.9,   -2.3,   -1.7,   -1.3,   -2.0,   -3.2,   -3.8,   -3.5,   -3.0,   -1.9,    0.3,    1.3,    1.5,    1.2,    1.0,    0.9,    0.9,    0.9,    0.6,    0.9,    0.6,  999.0,  999.0,   -0.3,   -2.3,   -3.5,   -3.9,   -4.4,  999.0,  999.0,  999.0,  999.0,  999.0,  999.0,  999.0,  999.0,  999.0,   -9.8,  999.0,  999.0,  999.0,  999.0,  999.0,  999.0,  999.0,  999.0,  999.0,  999.0,  999.0,  999.0,  999.0,  999.0,  999.0,  999.0,  999.0,  -27.2,  -25.2,  -22.0,  -15.6,  999.0,  999.0,  999.0,  999.0,  999.0,  999.0,  999.0,  999.0,  999.0,  999.0,  999.0,  999.0,  999.0,  999.0,  999.0
2006/01/16 14:30,    4.5,    4.3,    2.9,    4.2,    4.0,    3.5,    2.5,    2.3,    1.6,    1.7,    0.7,    0.1,    0.1,    0.2,   -0.4,    0.3,    1.0,    2.0,    2.0,    1.2,   -0.6,   -0.6,    0.3,    1.3,    0.7,    1.4,    1.6,    1.2,    0.1,    0.2,   -0.3,   -0.6,   -1.4,   -2.3,   -2.6,   -3.0,   -3.4,   -3.6,   -3.7,   -3.0,   -2.7,   -1.4,   -1.2,   -0.5,   -0.8,   -2.0,   -2.9,   -3.0,   -2.1,   -2.3,   -1.5,   -2.8,   -3.6,   -3.5,   -3.3,   -2.7,    0.2,    1.2,    1.6,    1.8,    1.5,    1.4,    1.3,    0.9,   -1.0,   -0.6,   -1.0,   -1.2,   -1.7,   -1.9,   -3.0,   -4.7,   -5.3,   -4.7,  999.0,  999.0,   -4.7,  999.0,  999.0,  999.0,  999.0,  999.0,  999.0,  999.0,  999.0,  999.0,  999.0,  999.0,  -17.1,  999.0,  999.0,  999.0,  999.0,  999.0,  999.0,  999.0,  999.0,  999.0,  999.0,  999.0,  999.0,  -27.6,  -25.1,  -21.6,  -15.5,  999.0,  999.0,   -3.2,   -3.1,  999.0,  999.0,  999.0,  999.0,   -4.7,  999.0,  999.0,  999.0,  999.0,  999.0,  999.0
2006/01/16 14:40,    3.7,    4.1,    3.2,    3.8,    2.9,    3.0,    2.3,    1.6,    1.6,    1.4,    0.9,    0.6,    1.0,    1.6,    1.9,    1.7,    1.2,    1.7,    2.0,    1.2,   -0.0,    0.8,    1.1,    0.9,    1.0,    1.4,    1.4,    0.7,   -0.0,    0.3,   -0.7,   -1.2,   -1.9,   -2.5,   -3.0,   -3.0,   -3.4,   -3.8,   -3.2,   -3.1,   -2.3,   -1.6,   -0.9,   -0.6,   -0.4,   -1.0,   -1.9,   -3.2,   -1.8,   -2.8,   -2.7,   -2.9,   -3.3,   -3.3,   -3.7,   -3.5,   -0.2,    1.0,    1.3,    1.1,    0.8,    1.0,    0.5,    0.4,   -1.0,   -0.4,   -1.0,   -1.7,   -2.5,   -3.7,   -3.5,   -4.2,  999.0,  999.0,   -4.2,  999.0,  999.0,  999.0,  999.0,  999.0,  999.0,  999.0,  999.0,  999.0,  999.0,  -13.0,  -11.3,  -14.4,  -16.4,  999.0,  999.0,  999.0,  -22.3,  999.0,  999.0,  999.0,  999.0,  999.0,  999.0,  999.0,  999.0,  999.0,  999.0,  999.0,  -13.9,  999.0,  999.0,   -3.1,   -3.3,  999.0,  999.0,  999.0,  999.0,   -4.5,  999.0,  999.0,  999.0,  999.0,  999.0,  999.0
2006/01/16 14:50,    2.7,    2.6,    2.6,    2.5,    2.8,    2.6,    1.9,    1.4,    1.5,    0.7,    0.8,    0.9,    1.5,    2.0,    2.1,    2.2,    1.2,    1.1,    1.4,    0.6,    0.8,    1.7,    1.8,    1.1,    1.3,    1.8,    1.9,    1.8,    0.9,    1.0,    0.1,   -0.4,   -1.8,   -1.9,   -2.0,   -2.5,   -3.0,   -3.2,   -3.3,   -3.8,   -3.1,   -2.6,   -2.9,   -2.6,   -2.4,   -3.1,   -4.0,   -4.3,   -4.6,   -4.4,   -5.0,   -4.9,   -4.9,   -3.9,   -2.7,   -1.7,   -0.0,    0.7,    0.2,    0.6,    0.5,   -0.0,    0.1,   -0.2,   -1.5,   -1.0,   -1.3,   -2.1,   -2.4,   -3.1,   -4.1,   -5.3,  999.0,  999.0,  999.0,  999.0,  999.0,  999.0,  999.0,  999.0,  999.0,  999.0,  999.0,  999.0,  999.0,  999.0,  -11.3,  -12.9,  -15.1,  999.0,  999.0,  999.0,  -22.4,  999.0,  999.0,  999.0,  999.0,  999.0,  999.0,  999.0,  999.0,  999.0,  999.0,  999.0,  999.0,  999.0,  999.0,   -2.6,   -3.3,  999.0,  999.0,  999.0,  999.0,  999.0,  999.0,  999.0,  999.0,  999.0,  999.0,  999.0
2006/01/16 15:00,    2.5,    2.5,    2.5,    2.5,    2.1,    2.3,    1.7,    1.1,    1.6,    0.7,    0.8,    1.0,    1.9,    2.4,    1.9,    1.6,    0.8,    0.7,    0.9,    0.8,    1.4,    1.8,    2.0,    1.8,    2.0,    2.8,    2.8,    2.5,    2.4,    2.4,    2.8,    1.8,    0.3,   -0.1,   -0.1,   -0.8,   -1.3,   -2.2,   -2.1,   -2.2,   -1.7,   -1.8,   -1.2,   -1.3,   -1.7,   -2.6,   -3.7,   -4.1,   -4.5,   -4.6,   -4.9,   -4.2,   -3.4,   -2.8,   -1.3,   -0.7,    0.1,    0.6,    0.7,    1.3,    1.1,    0.5,    0.3,    0.0,   -0.4,   -0.9,   -0.7,   -1.0,   -1.4,   -1.7,   -3.6,   -4.8,   -6.9,  999.0,   -7.5,   -3.5,  999.0,   -8.9,  999.0,  999.0,  999.0,  999.0,   -9.0,  999.0,  999.0,  999.0,  -12.4,  -13.0,  999.0,  999.0,  999.0,  999.0,  999.0,  999.0,  999.0,  999.0,  999.0,  999.0,  999.0,  999.0,  999.0,  999.0,  999.0,  999.0,  999.0,  -10.0,  999.0,  999.0,   -3.4,  999.0,  999.0,  999.0,  999.0,  999.0,  999.0,  999.0,  999.0,  999.0,  999.0,  999.0
2006/01/16 15:10,    2.8,    3.5,    2.2,    2.8,    1.8,    3.1,    2.0,    1.9,    1.7,    1.5,    1.6,    2.1,    2.6,    2.9,    2.5,    1.3,   -0.0,    1.1,    0.9,    1.2,    2.1,    2.3,    2.5,    2.7,    2.2,    3.7,    3.2,    2.7,    2.5,    2.1,    2.6,    1.1,    1.9,    0.7,    0.8,    0.5,   -0.2,   -1.7,   -2.4,   -2.5,   -2.6,   -1.9,   -0.2,   -0.8,   -2.3,   -3.2,   -3.6,   -3.7,   -4.6,   -4.6,   -4.2,   -3.6,   -2.7,   -1.9,   -1.8,   -1.2,   -0.7,   -0.3,    0.3,    0.7,    0.0,    0.1,   -0.1,    0.4,    0.3,    0.1,   -0.5,   -0.9,   -1.3,   -1.9,   -2.3,   -5.0,   -6.8,   -7.4,   -5.7,  999.0,  999.0,  999.0,  999.0,  999.0,  999.0,  999.0,  999.0,  999.0,  999.0,  999.0,  -10.9,  999.0,  999.0,  999.0,  999.0,  999.0,  999.0,  999.0,  999.0,  999.0,  999.0,  999.0,  999.0,  999.0,  999.0,  -16.2,  999.0,  999.0,  999.0,  999.0,  999.0,  999.0,  999.0,  999.0,  999.0,  999.0,  999.0,  999.0,  999.0,  999.0,  999.0,  999.0,  999.0,  999.0
2006/01/16 15:20,  999.0,    2.8,    3.0,    1.1,    1.9,    1.2,    0.0,    0.9,    0.5,   -0.4,   -0.1,    0.5,    0.0,    0.9,    1.3,   -0.1,   -0.6,    1.2,    1.2,    1.5,    1.3,    1.2,    1.8,    1.8,    0.9,    1.1,    1.6,    1.3,    1.1,    1.6,    1.5,    1.7,    2.2,    1.7,    1.4,    0.7,   -0.3,   -1.2,   -2.7,   -2.3,   -2.3,   -1.7,   -0.6,   -0.6,   -1.6,   -2.5,   -3.4,   -3.6,   -3.5,   -3.5,   -3.1,   -2.6,   -2.1,   -1.7,   -2.0,   -1.4,   -1.2,   -1.0,   -0.5,   -0.3,    0.0,    0.0,   -0.3,   -0.2,   -0.1,   -0.3,   -0.9,   -1.3,   -1.9,   -2.9,   -2.5,   -4.5,   -5.8,   -6.4,   -5.0,   -3.3,  999.0,   -4.1,   -2.7,  999.0,  999.0,   -5.9,   -5.6,   -6.3,   -6.8,   -8.8,  999.0,  999.0,  999.0,  999.0,  999.0,  999.0,  999.0,  999.0,  999.0,  999.0,  999.0,  999.0,  999.0,  999.0,  999.0,  -16.2,  999.0,  999.0,  999.0,  999.0,  999.0,  999.0,  999.0,  999.0,  999.0,  999.0,  999.0,  999.0,  999.0,  999.0,  999.0,  999.0,  999.0,  999.0
2006/01/16 15:30,    0.9,   -0.2,    1.9,   -0.3,   -0.3,    0.2,   -1.7,   -0.3,   -1.7,   -1.6,   -1.8,   -1.4,   -1.5,   -1.0,   -0.5,   -0.4,   -0.5,    0.6,    1.5,    1.3,   -0.0,   -0.3,   -0.1,   -0.1,   -0.3,   -0.1,    0.7,    0.4,    0.3,    0.9,    1.6,    2.3,    2.2,    2.2,    2.2,    1.6,    0.6,   -0.8,   -2.0,   -2.0,   -1.8,   -1.7,   -0.7,   -0.3,   -1.4,   -2.1,   -3.4,   -3.6,   -3.2,   -3.1,   -2.2,   -1.9,   -1.3,   -0.7,   -0.9,   -0.4,   -0.0,    0.4,    0.9,    0.9,    0.9,    0.2,   -0.2,   -0.6,   -0.5,   -0.7,   -1.7,   -2.0,   -4.2,   -4.2,   -4.8,   -3.3,   -2.2,  999.0,  999.0,   -1.6,   -0.9,  999.0,   -2.3,   -2.9,  999.0,   -1.6,   -3.5,   -4.6,   -6.3,   -6.6,  999.0,  999.0,  999.0,  999.0,  999.0,  999.0,  999.0,  999.0,  999.0,  999.0,  999.0,  999.0,  999.0,  999.0,  999.0,  -23.6,  999.0,  999.0,  999.0,  999.0,  999.0,  999.0,  999.0,  999.0,  999.0,  999.0,  999.0,  999.0,  999.0,  999.0,  999.0,  999.0,  999.0,  999.0
2006/01/16 15:40,    2.3,    2.4,    3.8,    1.3,   -0.9,  999.0,    0.1,   -2.0,   -2.7,   -3.1,   -2.2,   -3.2,   -0.5,   -1.6,   -1.1,   -1.2,   -0.3,    0.8,    1.4,    1.0,    0.6,    0.4,    0.6,    0.8,    1.2,    1.7,    2.2,    1.6,    1.4,    1.0,    0.7,    1.0,    1.0,    0.8,    0.1,    1.0,    2.0,    1.9,   -0.5,   -0.8,   -1.6,   -1.8,   -0.9,   -0.9,   -1.6,   -2.4,   -3.7,   -4.0,   -3.6,   -3.7,   -3.4,   -2.7,   -1.3,   -0.5,   -0.8,    0.2,    0.8,    1.2,    1.4,    1.3,    0.7,    0.1,   -0.3,   -0.3,   -0.4,   -1.2,   -2.5,   -3.6,   -4.8,   -4.7,  999.0,   -4.1,  999.0,  999.0,   -1.7,   -1.8,   -1.6,   -3.5,  999.0,   -2.9,  999.0,  999.0,   -6.1,   -7.8,  999.0,   -7.2,  999.0,  999.0,  999.0,  999.0,  999.0,  999.0,  999.0,  999.0,  999.0,  999.0,  999.0,  999.0,  999.0,  999.0,  999.0,  999.0,  999.0,  999.0,  999.0,  999.0,  999.0,  999.0,  999.0,  999.0,  999.0,  999.0,  999.0,  999.0,  999.0,  999.0,  999.0,  999.0,  999.0,  999.0
2006/01/16 15:50,    3.7,    4.1,    2.7,    1.2,    2.7,    1.5,    0.4,   -1.1,   -2.3,   -3.3,   -3.4,   -3.2,   -1.3,   -2.2,   -2.4,   -2.0,   -0.6,    0.6,    2.8,    3.2,    2.3,    2.0,    1.7,    2.0,    2.6,    2.5,    2.2,    1.0,    1.1,    0.4,    0.0,    0.1,   -0.0,   -0.3,   -1.1,   -0.6,    1.0,    2.2,    1.9,    0.8,   -0.7,   -1.4,   -1.1,   -0.4,   -0.6,   -1.1,   -2.6,   -3.2,   -2.9,   -3.3,   -2.9,   -2.7,   -1.7,   -1.1,   -1.2,    0.0,    0.4,    0.7,    1.5,    1.1,    0.8,   -0.0,   -0.4,   -0.4,   -0.2,   -1.1,   -1.5,   -2.6,   -2.9,   -1.7,   -2.4,  999.0,  999.0,   -1.3,   -1.3,   -1.2,   -1.6,  999.0,  999.0,   -6.2,  999.0,  999.0,  999.0,   -9.3,  999.0,  999.0,  999.0,  999.0,  999.0,  999.0,  999.0,  999.0,  999.0,  999.0,  999.0,  999.0,  999.0,  999.0,  999.0,  999.0,  999.0,  999.0,  999.0,  999.0,  -19.8,  999.0,  999.0,  999.0,  999.0,  999.0,  999.0,  999.0,  999.0,  999.0,  999.0,  999.0,  999.0,  999.0,  999.0,  999.0
2006/01/16 16:00,  999.0,    2.9,    1.9,    1.9,    1.3,    1.6,   -0.9,   -1.0,   -1.4,   -4.0,   -3.0,   -3.0,   -3.4,   -3.8,   -3.8,   -3.1,   -0.8,    0.8,    2.0,    2.3,    1.2,    0.9,    1.2,    1.6,    1.7,    1.3,    0.8,    0.1,    0.1,   -1.2,   -0.9,   -2.6,   -2.0,   -1.4,   -1.6,   -1.7,   -1.9,   -0.5,    1.0,    1.0,    0.5,   -0.0,    0.4,    0.8,    0.3,   -0.1,   -0.5,   -1.4,   -1.8,   -2.3,   -2.5,   -2.3,   -1.6,   -0.9,   -0.6,    0.5,    0.6,    0.8,    1.2,    1.2,    0.9,    0.3,   -0.1,   -0.5,    0.2,   -0.0,   -0.3,   -0.9,   -1.6,   -1.2,   -2.3,  999.0,   -0.6,   -1.0,   -1.5,  999.0,   -2.4,  999.0,  999.0,  999.0,   -9.4,   -8.1,  999.0,  999.0,  999.0,  999.0,  999.0,  999.0,  999.0,  999.0,  999.0,  999.0,  999.0,  999.0,  999.0,  999.0,  999.0,  999.0,  999.0,  999.0,  999.0,  999.0,  999.0,  -24.9,  -21.0,  999.0,  999.0,  999.0,  999.0,  999.0,  999.0,  999.0,  999.0,  999.0,  999.0,  999.0,  999.0,  999.0,  999.0,  999.0
2006/01/16 16:10,    2.7,    0.4,   -0.8,    0.7,    2.6,    1.7,    0.2,    0.2,    0.1,   -3.0,   -1.8,   -3.1,   -4.8,   -5.5,   -1.7,   -2.3,    1.2,   -0.7,   -1.5,    0.0,    1.6,    0.1,    0.2,    0.2,    0.1,   -0.3,   -0.5,   -0.1,   -0.5,   -1.8,   -3.1,   -3.7,   -2.7,   -1.5,   -1.6,   -2.6,   -2.3,   -0.9,   -0.1,    0.5,    1.3,    1.9,    1.7,    1.7,    1.3,    0.1,   -0.0,   -1.0,   -1.5,   -2.1,   -1.6,   -1.8,   -2.1,   -1.4,    0.0,    0.7,    0.7,    0.9,    0.9,    0.9,    0.6,   -0.1,   -0.1,   -0.2,    0.1,   -0.3,   -0.6,   -1.2,   -1.0,   -0.3,    0.8,    0.9,    0.1,   -1.0,   -1.6,  999.0,   -2.3,  999.0,   -6.9,   -7.7,  999.0,  999.0,  999.0,  999.0,  999.0,  999.0,  999.0,  999.0,  999.0,  999.0,  999.0,  999.0,  999.0,  999.0,  999.0,  999.0,  999.0,  999.0,  999.0,  999.0,  999.0,  999.0,  999.0,  999.0,  -10.3,  999.0,  999.0,  999.0,  999.0,  999.0,  999.0,  999.0,  999.0,  999.0,  999.0,  999.0,  999.0,  999.0,  999.0,  999.0
2006/01/16 16:20,    4.4,    2.9,   -0.6,    1.0,    1.7,    2.1,    1.5,    0.1,    0.9,   -0.8,  999.0,   -3.1,   -1.0,   -2.0,   -1.4,   -2.5,   -2.4,  999.0,   -5.3,   -3.8,   -1.9,   -1.2,   -0.8,   -0.7,   -0.6,   -1.1,   -1.7,   -1.6,   -1.2,   -2.3,   -3.1,   -2.5,   -2.0,   -1.9,   -2.4,   -3.8,   -4.1,   -2.5,   -1.4,   -1.0,   -0.4,    0.4,    1.3,    1.9,    1.5,    1.0,    0.5,    0.4,   -0.1,   -1.1,   -1.1,   -1.2,   -2.1,   -1.3,   -0.1,    1.0,    0.8,    0.5,    0.7,    0.3,   -0.2,   -0.4,    0.6,    0.5,    0.4,   -0.4,   -1.1,   -0.9,   -0.2,   -0.1,    0.2,   -0.6,   -1.3,   -1.0,   -1.5,  999.0,  999.0,  999.0,  999.0,  999.0,  999.0,  999.0,  999.0,  999.0,  999.0,  999.0,  999.0,  999.0,  999.0,  999.0,  999.0,  999.0,  999.0,  999.0,  999.0,  999.0,  999.0,  999.0,  999.0,  999.0,  -17.2,  999.0,  -17.5,  999.0,  999.0,  999.0,  999.0,  999.0,  999.0,  999.0,  999.0,  999.0,  999.0,  999.0,  999.0,  999.0,  999.0,  999.0,  999.0,  999.0
2006/01/16 16:30,    4.5,    4.5,    4.1,    4.0,    1.8,    2.0,    1.3,   -1.0,   -1.5,   -3.5,   -2.6,   -2.0,   -1.5,   -1.4,   -0.6,   -1.2,   -2.0,   -0.2,   -4.0,   -4.3,   -2.4,   -1.9,   -1.3,   -0.9,   -1.2,   -0.9,   -1.5,   -0.8,   -0.7,   -0.5,   -1.0,   -3.2,   -5.4,   -6.7,   -5.6,   -5.6,   -4.6,   -3.6,   -2.4,   -1.4,   -0.9,   -0.4,    0.5,    0.9,    1.2,    1.1,    2.0,    1.6,    0.4,   -0.7,   -1.0,   -0.9,   -2.3,   -2.0,   -0.7,    0.8,    1.4,    0.7,    1.3,    0.6,    0.8,    1.0,    1.2,    0.9,    1.4,    0.6,    0.1,   -0.1,   -1.0,   -0.4,   -1.2,   -1.3,   -2.8,  999.0,  999.0,  999.0,   -6.2,  999.0,  999.0,  999.0,  999.0,   -4.5,  999.0,  999.0,  999.0,  -11.4,  -12.9,  999.0,  999.0,  999.0,  999.0,  999.0,  999.0,  999.0,  999.0,  999.0,  999.0,  999.0,  999.0,  999.0,  999.0,  999.0,  999.0,  999.0,  999.0,  999.0,  999.0,  999.0,  999.0,  999.0,  999.0,  999.0,  999.0,  -20.5,  999.0,  999.0,  999.0,  999.0,  999.0,  999.0
2006/01/16 16:40,    5.4,    5.9,    5.0,    4.5,    3.6,    3.6,    1.1,   -2.4,   -4.3,   -5.4,   -3.9,   -3.1,   -2.6,   -2.2,   -1.8,   -0.8,   -1.1,   -0.7,   -0.7,   -1.3,   -1.7,   -1.3,   -0.5,   -1.1,   -2.1,   -0.9,   -0.5,   -0.0,    0.5,    1.1,    2.4,    0.3,   -2.0,   -3.4,   -4.1,   -4.9,   -6.1,   -6.1,   -4.9,   -3.4,   -1.6,   -1.2,   -1.1,   -0.4,   -0.1,    0.0,    0.2,    0.2,   -0.1,   -0.8,   -0.5,   -0.7,   -1.5,   -2.0,   -1.0,   -0.0,    0.6,    0.3,    0.9,    0.5,    0.6,    0.7,    0.3,    0.7,    1.4,    0.7,    0.6,    0.9,   -0.1,    0.2,   -0.6,   -1.1,   -2.1,  999.0,  999.0,  999.0,  999.0,  999.0,  999.0,  999.0,  999.0,  999.0,  999.0,  999.0,  999.0,  999.0,  -12.9,  999.0,  999.0,  999.0,  999.0,  999.0,  999.0,  999.0,  999.0,  999.0,  999.0,  -24.9,  999.0,  999.0,  999.0,  999.0,  999.0,  999.0,  -19.1,  999.0,  999.0,  999.0,  999.0,  999.0,  999.0,  999.0,  999.0,  999.0,  999.0,  999.0,  999.0,  999.0,  999.0,  999.0
2006/01/16 16:50,    6.7,    6.1,    5.8,    4.5,    4.7,    5.5,    4.2,    2.9,    3.4,    1.6,   -0.2,    1.1,    1.7,    2.0,    1.4,    1.3,    0.8,    0.9,   -0.4,   -2.0,   -2.4,   -2.9,   -3.7,   -3.5,   -2.4,   -2.3,   -1.7,   -2.7,   -2.8,   -2.0,   -2.9,   -1.1,   -1.4,   -3.1,   -2.9,   -2.6,   -2.9,   -3.9,   -5.5,   -5.5,   -3.0,   -2.0,   -1.6,   -1.0,   -0.8,   -1.1,   -1.2,   -1.0,   -1.2,   -1.4,   -0.9,   -0.8,   -1.2,   -1.1,   -0.4,   -0.4,   -0.0,    0.1,    0.4,   -0.3,   -0.2,    0.8,    0.2,    0.5,    0.3,    0.2,    0.4,    1.9,   -0.2,   -0.5,  999.0,   -0.8,   -1.1,  999.0,  999.0,  999.0,  999.0,  999.0,  999.0,  999.0,  999.0,  999.0,  999.0,  999.0,  999.0,  999.0,  999.0,  999.0,  999.0,  999.0,  999.0,  999.0,  999.0,  999.0,  999.0,  999.0,  999.0,  999.0,  999.0,  999.0,  999.0,  999.0,  999.0,  999.0,  999.0,  999.0,  999.0,  999.0,  999.0,  999.0,  999.0,  999.0,  999.0,  999.0,  999.0,  999.0,  999.0,  999.0,  999.0,  999.0
2006/01/16 17:00,    8.5,    6.7,    5.9,    5.0,    4.1,    3.8,    4.1,    2.8,    2.6,    0.9,   -0.7,   -0.8,    1.1,    1.1,    2.8,    4.2,    2.9,    3.8,    5.9,    2.0,    0.6,   -0.2,    0.8,    0.5,    0.3,   -0.8,   -0.4,   -1.2,   -2.1,   -1.7,   -2.8,   -2.5,   -1.2,   -2.0,   -1.5,   -1.8,   -2.3,   -2.4,   -3.0,   -3.0,   -3.7,   -3.6,   -2.6,   -1.8,   -0.9,   -1.3,   -1.6,   -1.3,   -1.6,   -1.5,   -1.1,   -1.2,   -1.5,   -1.2,   -0.9,   -1.0,   -0.7,   -1.4,   -1.2,   -0.8,   -0.6,    0.6,    0.0,    0.6,    0.4,    0.6,    0.2,   -0.4,   -1.2,   -1.3,  999.0,   -1.0,  999.0,  999.0,  999.0,   -3.3,    0.8,  999.0,  999.0,  999.0,  999.0,  999.0,  999.0,  999.0,  999.0,  999.0,  999.0,  999.0,  999.0,  999.0,  999.0,  999.0,  999.0,  999.0,  999.0,  999.0,  999.0,  999.0,  999.0,  999.0,  999.0,  999.0,  999.0,  -23.7,  -19.2,  999.0,  999.0,  999.0,  999.0,  999.0,  999.0,  999.0,  999.0,  999.0,  999.0,  999.0,  999.0,  999.0,  999.0,  999.0
2006/01/16 17:10,    6.1,    7.5,    6.2,    5.5,    4.0,    3.1,    2.9,    2.3,    2.2,    1.6,    0.1,   -0.7,   -0.2,   -0.1,    1.8,    2.3,    4.4,    4.9,    6.5,    6.5,    4.8,    3.3,    3.5,    2.6,    4.3,    1.0,   -0.3,   -1.6,   -3.0,   -3.0,   -4.2,   -3.7,   -2.0,   -2.3,   -1.8,   -2.8,   -2.6,   -1.9,   -2.3,   -2.6,   -3.4,   -3.5,   -2.7,   -1.8,   -0.5,   -0.5,   -0.5,   -0.2,   -0.5,   -0.8,   -1.4,   -1.4,   -1.1,   -0.9,   -0.9,   -0.2,   -0.4,   -0.2,   -0.0,   -0.1,    0.5,    1.0,    0.3,    0.7,    1.2,    0.6,    0.2,   -0.2,   -0.1,    0.5,  999.0,  999.0,  999.0,  999.0,  999.0,  999.0,    0.8,  999.0,  999.0,  999.0,  999.0,  999.0,  999.0,  999.0,  999.0,  999.0,  999.0,  999.0,  999.0,  999.0,  999.0,  999.0,  999.0,  999.0,  999.0,  999.0,  999.0,  999.0,  999.0,  999.0,  999.0,  999.0,  -23.4,  -20.3,  999.0,  999.0,  999.0,  999.0,  999.0,  999.0,  999.0,  999.0,  999.0,  999.0,  999.0,  999.0,  999.0,  999.0,  999.0,  999.0
2006/01/16 17:20,    6.3,    6.2,    5.4,    5.0,    3.7,    3.2,    3.3,    3.4,    3.9,    4.2,    3.8,    2.4,    3.1,    2.5,    2.8,    1.7,    3.5,    4.3,    2.3,    2.3,    1.9,    1.8,    0.3,   -0.3,   -1.2,   -1.6,   -3.3,   -4.4,   -4.7,   -4.7,   -4.2,   -4.3,   -2.3,   -2.6,   -2.8,   -2.7,   -3.0,   -1.9,   -1.9,   -2.4,   -3.1,   -3.1,   -2.8,   -1.9,   -0.7,    0.3,    0.2,    0.4,    0.2,   -0.4,   -0.9,   -0.9,   -0.8,   -0.2,   -0.3,    0.3,    0.7,   -0.0,    0.1,    0.3,    1.1,    1.4,    0.6,   -0.8,    0.3,    0.4,    0.3,    0.4,    0.1,    0.9,  999.0,  999.0,  999.0,  999.0,  999.0,  999.0,  999.0,  999.0,  999.0,  999.0,  999.0,   -2.2,   -8.9,   -6.7,  999.0,  999.0,  999.0,  999.0,  999.0,  999.0,  -15.3,  999.0,  -17.3,  999.0,  999.0,  999.0,  999.0,  999.0,  999.0,  999.0,  999.0,  999.0,  -25.6,  -23.0,  -18.5,  999.0,  999.0,  999.0,  999.0,  999.0,  999.0,  999.0,  999.0,  999.0,  999.0,  999.0,  999.0,  999.0,  999.0,  999.0
2006/01/16 17:30,    6.4,    5.3,    4.7,    4.6,    4.0,    4.0,    4.1,    3.8,    4.5,    4.0,    4.3,    3.2,    3.1,    2.8,    2.0,    1.3,    1.5,    1.4,    1.4,    0.8,   -0.7,   -1.5,   -2.4,   -2.0,   -2.4,   -2.8,   -2.8,   -2.9,   -2.9,   -1.4,   -0.5,   -0.5,   -1.5,   -1.7,   -1.1,   -2.0,   -2.0,   -0.9,   -0.9,   -1.6,   -1.9,   -2.6,   -2.9,   -2.2,   -1.4,   -1.0,   -0.5,    0.2,    0.2,    0.2,   -0.3,   -0.3,   -0.4,    0.1,    0.3,    0.4,    1.2,    0.8,    0.5,    0.1,    0.1,    0.2,    0.1,   -0.3,   -0.2,    0.2,    0.1,  999.0,   -1.4,  999.0,  999.0,  999.0,  999.0,    0.0,  999.0,  999.0,  999.0,  999.0,  999.0,  999.0,  999.0,  999.0,  999.0,  -10.3,  999.0,  999.0,  999.0,  999.0,  999.0,  999.0,  999.0,  999.0,  999.0,  999.0,  999.0,  999.0,  999.0,  999.0,  999.0,  999.0,  999.0,  999.0,  -24.5,  -21.2,  999.0,  999.0,  999.0,  999.0,   -4.5,  999.0,  999.0,  999.0,  999.0,  999.0,  999.0,  999.0,  999.0,  999.0,  -11.9,  999.0
2006/01/16 17:40,    6.8,    6.6,    5.7,    4.8,    4.1,    4.1,    4.5,    4.1,    3.1,    2.1,    2.0,    2.2,    1.2,    1.3,    1.0,    0.0,   -0.3,   -0.1,   -0.5,   -1.3,   -1.6,   -2.2,   -2.9,   -2.5,   -2.0,   -1.2,   -0.2,   -0.1,   -0.1,    1.0,    1.4,   -0.5,   -1.4,   -1.1,   -1.1,   -0.6,   -0.9,   -1.4,   -2.4,   -2.5,   -2.5,   -2.1,   -1.7,   -1.4,   -1.4,   -0.4,   -0.0,    0.2,    0.2,   -0.0,   -0.3,   -0.5,   -0.3,    0.1,   -0.1,    0.4,    0.9,    0.6,    0.6,    0.7,    0.9,    1.4,    0.2,   -0.0,    0.3,    0.3,    0.1,  999.0,  999.0,  999.0,    0.0,    0.7,   -0.4,    0.3,   -1.5,  999.0,  999.0,  999.0,  999.0,  999.0,  999.0,  999.0,  999.0,  999.0,  999.0,  999.0,  999.0,  999.0,  999.0,  999.0,  999.0,  999.0,  999.0,  999.0,  999.0,  999.0,  999.0,  999.0,  999.0,  999.0,  999.0,  999.0,  999.0,  -20.4,  999.0,  999.0,  999.0,  999.0,  999.0,  999.0,  999.0,  999.0,  999.0,  999.0,  999.0,  999.0,  999.0,  999.0,  999.0,  999.0
2006/01/16 17:50,    6.6,    6.8,    6.3,    5.8,    5.4,    4.2,    4.8,    4.7,    3.8,    2.8,    1.8,    1.5,    1.0,    0.8,    0.9,   -1.1,   -2.3,   -1.6,   -1.9,   -2.4,   -2.2,   -2.0,   -1.8,   -1.7,   -1.3,   -0.4,    0.3,   -0.0,   -0.6,   -0.2,    0.1,   -0.9,   -1.6,   -1.4,   -1.4,   -1.1,   -1.1,   -1.4,   -2.4,   -2.9,   -3.0,   -2.7,   -2.1,   -1.4,   -1.6,   -0.8,   -0.7,   -0.2,   -0.3,   -0.5,   -0.6,   -0.9,   -0.3,    0.1,    0.3,    0.6,    0.7,    0.7,    0.8,    0.8,    1.7,    1.6,    0.5,    0.3,    0.7,    0.2,    0.1,   -0.3,  999.0,  999.0,    0.6,  999.0,  999.0,  999.0,  999.0,  999.0,  999.0,  999.0,  999.0,   -6.9,   -6.3,  999.0,   -9.4,  999.0,  999.0,  999.0,  999.0,  999.0,  999.0,  999.0,  999.0,  999.0,  999.0,  999.0,  999.0,  999.0,  999.0,  999.0,  999.0,  999.0,  999.0,  999.0,  999.0,  999.0,  999.0,  999.0,  999.0,  999.0,  999.0,  999.0,  999.0,  999.0,  999.0,  999.0,  999.0,  999.0,  999.0,  999.0,  999.0,  999.0
2006/01/16 18:00,    8.0,    7.7,    7.2,    7.1,    7.1,    6.6,    7.1,    5.8,    4.7,    4.2,    2.4,    1.8,    1.1,    0.2,    0.3,   -3.8,   -5.5,   -4.4,   -3.1,   -3.0,   -2.8,   -2.8,   -1.9,   -1.6,   -1.1,   -1.0,   -0.3,   -1.1,   -1.7,   -1.1,   -1.2,   -1.0,   -1.4,   -1.2,   -1.6,   -1.8,   -2.0,   -2.0,   -2.7,   -3.7,   -3.5,   -3.5,   -2.9,   -1.9,   -2.0,   -1.4,   -1.0,   -0.2,   -0.1,  999.0,   -0.5,   -0.8,   -0.3,    0.3,    0.4,    0.9,    0.6,    0.4,    0.5,    1.3,    1.1,    1.0,    0.1,   -0.0,   -0.3,    0.4,    0.1,  999.0,  999.0,  999.0,    0.5,  999.0,    1.3,    2.1,  999.0,    1.4,    1.3,  999.0,  999.0,  999.0,   -6.2,  999.0,   -9.4,  -12.4,  999.0,  -15.8,  999.0,  999.0,  999.0,  999.0,  999.0,  999.0,  999.0,  999.0,  999.0,  999.0,  999.0,  999.0,  999.0,  999.0,  999.0,  999.0,  -25.4,  999.0,  999.0,  999.0,  999.0,  999.0,  999.0,  999.0,  999.0,  999.0,  999.0,  999.0,  999.0,  999.0,  999.0,  999.0,  999.0,  999.0
2006/01/16 18:10,    8.5,    9.7,    8.7,    9.3,    9.2,    8.1,    7.6,    6.8,    5.9,    3.6,    1.6,    2.5,    2.0,    0.2,   -1.7,   -1.8,   -2.1,   -3.5,   -2.6,   -2.0,   -2.3,   -2.2,   -2.5,   -2.0,   -1.9,   -2.3,   -1.5,   -1.3,   -1.9,   -2.5,   -2.9,   -2.0,   -2.1,   -1.9,   -2.0,  999.0,   -2.3,   -2.8,   -3.5,   -3.4,   -3.4,   -3.4,   -3.3,   -2.5,   -2.5,   -2.4,   -1.3,   -0.4,   -0.1,   -0.2,   -1.0,   -1.4,   -1.4,   -0.5,   -0.1,    0.6,    0.4,    0.6,    0.9,    0.9,    1.4,    1.0,    0.4,    0.1,    0.0,    0.0,   -0.2,   -0.4,  999.0,    0.8,    0.5,  999.0,    1.0,    0.8,  999.0,    1.1,   -1.4,  999.0,  999.0,  999.0,   -8.5,   -9.5,  999.0,  999.0,  999.0,  999.0,  999.0,  999.0,  999.0,  999.0,  999.0,  999.0,  999.0,  999.0,  999.0,  999.0,  999.0,  999.0,  999.0,  999.0,  999.0,  999.0,  999.0,  999.0,  999.0,  999.0,  999.0,  999.0,  999.0,  999.0,  999.0,  999.0,  999.0,  999.0,  999.0,  999.0,  999.0,  999.0,  999.0,  999.0
2006/01/16 18:20,    8.0,    9.1,    9.5,    9.7,    8.9,    8.6,    8.4,    8.0,    7.6,    6.2,    4.9,    3.2,    2.6,    2.3,    0.4,   -0.6,   -1.9,   -3.5,   -3.1,   -2.7,   -3.1,   -2.4,   -3.0,   -3.4,   -3.6,   -3.4,   -3.1,   -2.0,   -2.0,   -1.9,   -1.8,   -1.4,   -1.5,   -1.6,   -2.5,   -1.9,   -1.9,   -2.6,   -3.1,   -3.3,   -2.9,   -2.7,   -3.8,   -3.4,   -2.9,   -2.8,   -1.7,   -0.7,   -0.6,   -0.7,   -1.3,   -1.5,   -1.5,   -0.8,    0.0,    0.3,    0.3,    0.6,    0.1,    0.7,    1.1,    0.6,    0.6,    0.8,    0.5,    0.1,   -0.1,   -0.5,   -0.4,    0.1,    1.1,    1.2,    1.9,    2.1,    0.6,   -0.3,  999.0,  999.0,  999.0,  999.0,  999.0,  999.0,  999.0,  999.0,  999.0,  999.0,  999.0,  999.0,  999.0,  999.0,  999.0,  999.0,  999.0,  999.0,  999.0,  999.0,  999.0,  999.0,  999.0,  999.0,  999.0,  999.0,  999.0,  999.0,  999.0,  999.0,  999.0,  999.0,  999.0,  999.0,  999.0,  999.0,  999.0,  999.0,  999.0,  999.0,  999.0,  999.0,  999.0,  999.0
2006/01/16 18:30,    7.8,    9.2,    9.5,    9.2,    8.5,    8.2,    8.4,    8.1,    8.0,    6.8,    6.1,    4.2,    2.8,    3.4,    2.9,    0.5,   -1.2,   -3.0,   -3.3,   -3.0,   -3.1,   -2.5,   -2.9,   -3.5,   -3.8,   -3.5,   -4.2,   -4.4,   -3.3,   -2.7,   -2.1,   -1.9,   -1.7,   -2.4,   -2.8,   -2.3,   -2.1,   -2.8,   -3.2,   -3.1,   -2.8,   -2.8,   -3.6,   -3.5,   -2.9,   -2.9,   -2.1,   -0.8,   -0.8,   -1.0,   -0.4,   -0.6,    0.3,    0.4,    0.8,    0.4,    1.0,  999.0,    0.2,  999.0,    0.7,    0.7,    0.6,    0.8,    0.9,    0.2,   -0.0,   -1.1,  999.0,   -0.6,    0.8,    0.4,    1.8,    1.7,   -0.3,  999.0,  999.0,  999.0,  999.0,  999.0,  999.0,  999.0,  999.0,  999.0,  999.0,  999.0,  999.0,  999.0,  999.0,  999.0,  999.0,  999.0,  999.0,  999.0,  999.0,  999.0,  999.0,  999.0,  999.0,  999.0,  999.0,  999.0,  999.0,  999.0,  999.0,  999.0,  999.0,  999.0,  999.0,  999.0,  999.0,  999.0,  999.0,  999.0,  999.0,  999.0,  999.0,  999.0,  999.0,  999.0
2006/01/16 18:40,    8.6,    8.9,    8.9,    8.8,    8.8,    9.1,    8.5,    7.9,    7.0,    6.6,    5.9,    4.5,    3.2,    3.3,    2.5,    0.6,   -1.3,   -3.0,   -3.7,   -2.9,   -2.3,   -2.4,   -2.2,   -3.0,   -4.0,   -3.5,   -3.5,   -3.9,   -4.4,   -3.6,   -2.7,   -2.4,   -2.5,   -2.9,   -3.0,   -2.9,   -2.7,   -2.9,   -3.3,   -2.9,   -2.8,   -3.6,   -3.9,   -3.4,   -2.9,   -2.9,   -2.0,   -0.3,    0.3,    0.2,    0.3,    0.4,    0.6,    1.2,    1.0,    1.2,    0.9,    1.3,    0.2,    0.5,    0.9,    0.7,    1.0,    0.9,    0.3,    0.1,    0.2,   -0.6,   -0.8,   -0.6,  999.0,    1.0,    1.8,  999.0,   -0.3,  999.0,  999.0,  999.0,  999.0,  999.0,  999.0,  999.0,  999.0,  999.0,  999.0,  999.0,  999.0,  999.0,  999.0,  999.0,  999.0,  999.0,  999.0,  999.0,  999.0,  999.0,  999.0,  -28.8,  999.0,  999.0,  999.0,  999.0,  999.0,  999.0,  999.0,  999.0,  999.0,  999.0,  999.0,  999.0,  999.0,  999.0,  999.0,  999.0,  999.0,  999.0,  999.0,  999.0,  999.0,  999.0
2006/01/16 18:50,    8.4,    8.8,    8.9,    9.0,  999.0,    9.2,    8.7,    8.0,    7.2,    6.1,    5.3,    4.1,    2.5,    2.2,    1.0,   -0.2,   -1.3,   -3.1,   -3.6,   -2.2,   -1.4,   -1.6,   -1.5,   -1.9,   -3.7,   -3.7,   -3.7,   -3.0,   -3.9,   -4.2,   -3.6,   -2.8,   -2.5,   -3.1,   -3.2,   -3.1,   -2.9,   -3.1,   -3.5,   -3.1,   -3.6,   -4.4,   -5.0,   -3.9,   -3.1,   -2.5,   -1.8,    0.0,    0.6,    0.8,    0.8,    0.9,    1.0,    1.7,    1.8,    1.5,    1.2,    1.3,    1.2,    1.0,    1.2,    1.2,    1.5,    0.9,  999.0,    0.5,    0.2,    0.4,  999.0,    0.5,  999.0,    1.2,  999.0,  999.0,  999.0,  999.0,   -0.6,    0.4,  999.0,  999.0,  999.0,  999.0,   -3.3,  999.0,  999.0,  999.0,  999.0,  999.0,  999.0,  999.0,  999.0,  999.0,  999.0,  999.0,  999.0,  999.0,  999.0,  999.0,  999.0,  999.0,  999.0,  999.0,  999.0,  -22.0,  999.0,  999.0,  999.0,  999.0,  999.0,  999.0,  999.0,  999.0,  999.0,  999.0,  999.0,  999.0,  999.0,  999.0,  999.0,  999.0
2006/01/16 19:00,    6.0,    8.3,    9.0,    9.4,    8.8,    8.7,    8.7,    7.4,    5.7,    5.4,    4.1,    3.0,    1.5,    1.0,    0.6,   -0.2,   -0.9,   -2.4,   -2.5,   -2.0,   -1.7,   -1.9,   -1.4,   -2.2,   -3.6,   -4.1,   -4.5,   -3.5,   -3.7,   -3.9,   -3.8,   -2.9,   -2.5,   -2.8,   -2.9,   -2.5,   -2.5,   -3.0,   -3.1,   -3.0,   -3.9,   -4.8,   -5.3,   -4.8,   -3.3,   -2.7,   -1.7,   -0.1,    0.4,    0.8,    0.8,    0.8,    1.2,    1.3,    1.5,    1.5,    1.2,    0.8,    0.8,    0.8,    0.7,    1.3,    1.5,  999.0,  999.0,    0.9,    0.1,    0.6,  999.0,    0.9,  999.0,  999.0,  999.0,  999.0,  999.0,  999.0,   -0.7,  999.0,  999.0,  999.0,  999.0,  999.0,  999.0,   -7.3,   -9.9,  -11.0,  999.0,  999.0,  999.0,  999.0,  999.0,  999.0,  999.0,  999.0,  999.0,  999.0,  999.0,  999.0,  999.0,  999.0,  -29.0,  999.0,  -21.4,  999.0,  999.0,  999.0,  999.0,  999.0,  999.0,  999.0,  999.0,  999.0,  999.0,  999.0,  999.0,  999.0,  999.0,  999.0,  999.0,  999.0
2006/01/16 19:10,    3.6,    7.9,    8.4,    8.8,    8.8,    8.4,    7.4,    6.0,    4.2,    4.3,    3.3,    1.8,    0.7,    0.6,    0.2,   -1.0,   -1.5,   -2.7,   -2.5,   -2.4,   -2.0,   -1.7,   -1.0,   -1.8,   -2.8,   -3.5,   -3.2,   -2.9,   -3.0,   -3.5,   -3.6,   -2.9,   -2.0,   -1.8,   -1.8,   -1.8,   -1.9,   -2.5,   -2.9,   -3.6,   -4.3,   -4.7,   -5.5,   -5.5,   -3.9,   -3.4,   -2.3,   -0.6,    0.2,    0.1,    0.0,    0.6,    0.7,    0.8,  999.0,    0.7,    0.9,  999.0,    0.7,    0.6,    0.9,    0.6,    0.1,    0.6,    1.5,  999.0,  999.0,    0.0,  999.0,  999.0,  999.0,  999.0,  999.0,  999.0,  999.0,  999.0,   -0.1,  999.0,  999.0,  999.0,  999.0,  999.0,  999.0,   -7.7,  -10.2,  -10.5,  999.0,  999.0,  999.0,  999.0,  999.0,  999.0,  999.0,  999.0,  999.0,  999.0,  999.0,  999.0,  999.0,  999.0,  -28.6,  999.0,  -21.6,  999.0,  999.0,  999.0,  999.0,  999.0,  999.0,  999.0,  999.0,  999.0,  999.0,  999.0,  999.0,  999.0,  999.0,  999.0,  999.0,  999.0
2006/01/16 19:20,    4.0,    6.5,    7.1,    8.5,    8.5,    8.1,    7.4,    6.1,    4.2,    3.6,    3.0,    1.5,    0.3,    0.4,    0.3,   -1.1,   -1.2,   -1.6,   -1.4,   -1.9,   -2.1,   -1.7,   -1.5,   -1.9,   -2.5,   -2.6,   -2.4,   -2.2,   -2.1,   -2.6,   -3.0,   -2.9,   -2.5,   -2.3,   -2.0,   -2.0,   -2.0,   -2.2,   -1.8,   -3.0,   -4.1,   -4.6,   -4.6,   -5.1,   -4.8,   -3.9,   -3.7,   -2.9,   -1.8,   -1.2,   -1.1,   -1.0,   -0.8,   -0.5,   -0.8,    0.3,   -0.2,    0.3,  999.0,    0.4,    1.2,    1.0,    1.1,    1.2,    0.4,   -0.4,    0.5,    0.0,  999.0,    1.0,    1.7,    1.6,  999.0,    0.4,   -0.6,  999.0,  999.0,  999.0,   -0.4,   -0.9,  999.0,   -5.5,  999.0,   -7.4,  -10.4,  999.0,  999.0,  999.0,  999.0,  999.0,  999.0,  999.0,  999.0,  999.0,  999.0,  999.0,  999.0,  999.0,  999.0,  999.0,  999.0,  999.0,  999.0,  999.0,  999.0,  999.0,  999.0,  999.0,  999.0,  999.0,  999.0,  999.0,  999.0,  999.0,  999.0,  999.0,  999.0,  999.0,  999.0,  999.0
2006/01/16 19:30,    5.7,    5.6,    6.1,    7.0,    8.2,    7.8,    7.3,    6.0,    3.7,    2.9,    1.9,   -0.3,   -1.1,   -1.1,   -0.2,   -0.7,   -0.9,   -1.1,   -1.0,   -1.7,   -1.9,   -2.1,   -1.8,   -2.1,   -2.3,   -1.7,   -1.4,   -1.1,   -1.0,   -1.6,   -1.7,   -1.6,   -1.4,   -2.0,   -1.8,   -1.9,   -2.5,   -2.6,   -1.9,   -2.0,   -3.4,   -3.8,   -4.0,   -3.9,   -4.4,   -3.5,   -3.2,   -3.2,   -2.5,   -2.0,   -0.9,   -0.7,   -0.3,   -0.2,    0.4,    0.6,    0.2,   -0.3,    0.2,  999.0,    0.8,    0.4,    0.8,    0.7,    0.4,    0.2,    0.5,  999.0,  999.0,    0.7,  999.0,    0.2,    1.3,  999.0,  999.0,  999.0,   -1.8,  999.0,  999.0,  999.0,  999.0,   -5.5,   -6.6,   -7.8,  -10.8,  999.0,  999.0,  999.0,  999.0,  999.0,  999.0,  999.0,  999.0,  999.0,  999.0,  999.0,  999.0,  999.0,  999.0,  999.0,  999.0,  999.0,  999.0,  999.0,  999.0,  999.0,  999.0,  999.0,  999.0,  999.0,  999.0,  999.0,  999.0,  999.0,  999.0,  999.0,  999.0,  999.0,  999.0,  999.0
2006/01/16 19:40,    6.0,    5.0,    6.1,    7.7,    8.4,    8.3,    7.4,    6.4,    4.0,    3.3,    1.2,   -1.4,   -1.9,   -2.0,   -1.2,   -0.5,   -0.8,   -0.7,    0.2,    1.1,   -0.1,   -1.4,   -1.0,   -1.0,   -1.1,   -1.3,   -1.3,   -1.2,   -0.6,   -0.5,   -0.6,   -0.6,   -1.0,   -2.0,   -1.8,   -2.0,   -2.3,   -2.4,   -2.0,   -2.0,   -3.0,   -3.7,   -4.1,   -4.0,   -3.9,   -3.1,   -3.0,   -2.9,   -2.7,   -2.2,   -0.9,   -0.8,   -0.3,   -0.2,    0.3,    0.5,   -0.0,   -0.1,    0.0,  999.0,  999.0,    0.3,    0.5,    1.0,    0.5,    0.3,    0.4,    0.3,  999.0,  999.0,    1.9,    0.7,  999.0,  999.0,  999.0,  999.0,  999.0,  999.0,  999.0,  999.0,  999.0,  999.0,   -6.9,  -10.0,  999.0,  999.0,  999.0,  999.0,  999.0,  999.0,  999.0,  999.0,  999.0,  999.0,  999.0,  999.0,  999.0,  999.0,  999.0,  999.0,  999.0,  999.0,  999.0,  999.0,  999.0,  999.0,  999.0,  999.0,  999.0,  999.0,  999.0,  999.0,  999.0,  999.0,  999.0,  999.0,  999.0,  999.0,  999.0,  999.0
2006/01/16 19:50,    6.2,    6.2,    6.7,    7.8,    8.5,    8.3,    7.7,    7.1,    5.1,    3.8,    2.3,   -1.4,   -1.7,   -1.6,   -1.1,   -0.4,   -0.7,   -1.2,   -0.4,    0.6,    0.9,    0.2,   -0.1,   -0.3,   -0.6,   -0.8,   -0.7,   -0.9,   -1.0,   -0.7,   -0.5,   -0.5,   -0.9,   -1.7,   -2.4,   -2.7,   -2.5,   -2.3,   -2.1,   -2.4,   -3.1,   -4.0,   -4.7,   -4.9,   -4.5,   -3.3,   -3.0,   -3.1,   -3.4,   -2.9,   -1.3,   -1.2,   -0.4,   -0.1,    0.4,    0.9,    0.6,    0.3,   -0.2,    0.5,    0.3,    0.1,    0.3,    0.1,    0.4,    0.1,    0.4,    0.6,   -0.1,  999.0,    1.0,  999.0,  999.0,  999.0,  999.0,  999.0,  999.0,  999.0,  999.0,  999.0,  999.0,   -5.5,  999.0,  999.0,  999.0,  999.0,   -8.7,  999.0,  999.0,  999.0,  999.0,  999.0,  999.0,  999.0,  999.0,  999.0,  999.0,  999.0,  999.0,  999.0,  999.0,  999.0,  999.0,  999.0,  999.0,  999.0,  999.0,  999.0,  999.0,  999.0,  999.0,  999.0,  999.0,  999.0,  999.0,  999.0,  999.0,  999.0,  999.0,  999.0
2006/01/16 20:00,  999.0,    6.9,    6.9,    6.9,    7.1,    7.3,    6.6,    6.0,    5.4,    3.7,    3.1,    0.0,   -1.2,   -1.3,   -1.6,   -0.7,   -1.9,   -2.7,   -2.2,   -1.1,   -0.3,   -0.2,   -0.4,   -0.5,   -0.7,   -0.5,   -0.2,   -0.5,   -0.6,   -0.7,   -0.8,   -0.5,   -1.0,   -1.8,   -2.5,   -3.3,   -3.3,   -2.8,   -2.7,   -2.5,   -3.3,   -3.9,   -4.4,   -5.0,   -4.4,   -3.5,   -2.9,   -3.0,   -3.0,   -2.9,   -1.6,   -0.6,    0.2,    0.2,    0.3,    0.3,    0.2,   -0.0,  999.0,    0.2,    0.2,    0.5,    0.0,    0.0,    0.1,   -0.2,    0.1,    1.0,    0.4,  999.0,  999.0,  999.0,  999.0,   -0.1,   -0.2,  999.0,  999.0,  999.0,  999.0,  999.0,  999.0,   -4.0,  999.0,  999.0,  999.0,  999.0,  -10.6,  999.0,  999.0,  999.0,  999.0,  999.0,  999.0,  999.0,  999.0,  999.0,  999.0,  999.0,  999.0,  999.0,  999.0,  999.0,  999.0,  999.0,  999.0,  999.0,  999.0,  999.0,  999.0,  999.0,  999.0,  999.0,  999.0,  999.0,  999.0,  999.0,  999.0,  999.0,  999.0,  999.0
2006/01/16 20:10,   -4.9,  999.0,    7.1,    7.2,    6.7,    6.0,    4.0,    4.2,    3.9,    3.2,    3.4,    1.2,   -0.1,   -0.7,   -1.6,   -0.9,   -1.8,   -4.3,   -5.2,   -2.5,   -1.6,   -0.5,    0.1,    0.1,   -0.6,   -0.2,   -0.3,   -0.2,   -0.3,   -0.7,   -1.3,   -1.2,   -1.3,   -2.3,   -2.8,   -3.6,   -3.6,   -2.8,   -2.7,   -2.8,   -3.4,   -3.8,   -4.3,   -5.1,   -4.3,   -4.0,   -3.1,   -3.3,   -3.2,   -3.1,   -2.3,   -1.4,   -0.2,   -0.6,    0.2,   -0.1,   -0.4,   -0.3,   -0.2,    0.4,    0.5,  999.0,    0.2,    0.3,    0.1,   -0.1,    0.2,    0.5,    1.6,  999.0,    0.4,  999.0,  999.0,  999.0,    0.7,  999.0,  999.0,  999.0,  999.0,   -2.8,  999.0,  999.0,  999.0,  999.0,  -10.9,  -11.5,  999.0,  999.0,  999.0,  999.0,  999.0,  999.0,  999.0,  999.0,  999.0,  999.0,  999.0,  999.0,  999.0,  999.0,  999.0,  -21.8,  999.0,  -17.1,  999.0,  999.0,  999.0,  999.0,  999.0,  999.0,  999.0,  999.0,  999.0,  999.0,  999.0,  999.0,  999.0,  999.0,  999.0,  999.0
2006/01/16 20:20,  999.0,    8.3,    7.8,    7.6,    7.9,    7.4,    4.4,    2.4,    2.0,    1.5,    1.2,    0.0,   -0.3,   -1.5,   -1.7,   -1.1,   -0.9,   -2.2,   -2.9,   -1.9,   -1.2,   -0.9,   -0.5,   -0.4,   -0.5,    0.4,    0.7,   -0.4,   -1.0,   -1.3,   -1.4,   -1.7,   -2.1,   -3.1,   -3.6,   -4.5,   -3.9,   -2.9,   -2.6,   -2.5,   -3.2,   -3.4,   -3.9,   -4.4,   -4.3,   -3.6,   -3.1,   -3.0,   -3.3,   -2.8,   -2.4,   -1.5,   -0.6,   -1.1,   -1.1,   -0.4,   -1.1,   -0.8,  999.0,    0.4,  999.0,    1.0,    0.3,    1.1,    0.1,   -0.4,    0.7,    4.5,    1.3,    0.4,    1.2,    1.8,   -0.5,    1.0,  999.0,    1.1,   -2.5,   -1.1,  999.0,  999.0,  999.0,  999.0,  999.0,  999.0,  -11.2,  999.0,  999.0,  999.0,  999.0,  999.0,  999.0,  999.0,  999.0,  999.0,  999.0,  999.0,  999.0,  999.0,  999.0,  999.0,  999.0,  -21.0,  999.0,  -16.7,  999.0,  999.0,  999.0,  999.0,  999.0,  999.0,  999.0,  999.0,  999.0,  999.0,  999.0,  999.0,  999.0,  999.0,  999.0,  999.0
2006/01/16 20:30,    8.7,    8.5,    8.0,    7.2,    7.7,    7.8,    5.9,    4.5,    3.3,    1.5,    0.6,   -0.4,   -0.4,   -2.3,   -1.4,   -1.0,   -0.2,   -1.0,   -2.4,   -1.2,   -1.7,   -1.8,   -1.9,   -1.3,   -1.0,    0.1,    0.7,   -1.0,   -2.1,   -2.5,   -2.3,   -2.1,   -3.0,   -3.7,   -4.5,   -4.6,   -3.5,   -2.3,   -2.0,   -2.3,   -3.1,   -3.3,   -3.9,   -4.4,   -3.9,   -3.5,   -3.4,   -2.9,   -3.2,   -3.2,   -2.8,   -1.4,   -1.3,   -1.4,   -1.9,   -1.1,   -0.4,   -1.1,   -1.4,    0.1,  999.0,  999.0,    0.5,  999.0,   -0.1,    0.2,    0.3,    1.6,    0.8,    0.3,    1.3,  999.0,  999.0,  999.0,  999.0,   -0.8,   -2.3,  999.0,  999.0,  999.0,  999.0,  999.0,  999.0,  999.0,  999.0,  999.0,  999.0,  999.0,  999.0,  999.0,  999.0,  999.0,  999.0,  999.0,  999.0,  999.0,  999.0,  999.0,  999.0,  999.0,  999.0,  999.0,  999.0,  999.0,  999.0,  999.0,  999.0,  999.0,  999.0,  999.0,  999.0,  999.0,  999.0,  999.0,  999.0,  999.0,  999.0,  999.0,  999.0,  999.0
2006/01/16 20:40,    8.1,    7.9,    7.5,    7.2,    7.5,    8.3,    7.2,    5.1,    3.1,    2.3,    1.0,    0.2,    0.0,    0.0,   -0.1,    0.3,   -0.1,   -0.8,   -0.5,    0.7,   -0.3,   -1.6,   -1.7,   -1.3,   -0.9,   -0.6,   -0.3,   -1.1,   -1.8,   -2.4,   -2.2,   -1.5,   -2.1,   -3.8,   -4.3,   -3.7,   -2.8,   -1.8,   -1.7,   -2.6,   -3.1,   -3.4,   -4.2,   -4.9,   -4.2,   -4.2,   -4.2,   -4.0,   -3.8,   -4.2,   -3.8,   -2.1,   -1.9,   -2.4,   -2.8,   -2.6,   -1.9,   -1.7,   -1.2,   -0.8,    0.4,  999.0,  999.0,  999.0,    0.0,   -0.2,    0.3,    0.3,    0.4,  999.0,  999.0,  999.0,  999.0,  999.0,  999.0,  999.0,  999.0,  999.0,   -4.0,  999.0,  999.0,  999.0,  999.0,  999.0,  999.0,  999.0,  999.0,  999.0,  999.0,  999.0,  999.0,  999.0,  999.0,  999.0,  999.0,  999.0,  999.0,  999.0,  999.0,  999.0,  999.0,  999.0,  999.0,  999.0,  999.0,  999.0,  999.0,  999.0,  999.0,  999.0,  999.0,  999.0,  999.0,  999.0,  999.0,  999.0,  999.0,  999.0,  999.0,  999.0
2006/01/16 20:50,    6.9,    7.1,    7.1,    6.5,    6.3,    7.8,    7.2,    5.2,    2.2,    1.5,    1.1,    0.7,    0.3,    1.0,    1.6,    0.7,   -0.0,    0.8,    2.1,    2.7,    3.0,    1.7,    0.6,   -0.5,   -0.3,   -0.3,    0.1,   -1.0,   -1.3,   -1.8,   -2.2,   -1.4,   -1.8,   -3.2,   -3.5,   -3.4,   -2.0,   -1.3,   -2.3,   -3.7,   -3.5,   -4.0,   -5.4,   -5.1,   -4.4,   -4.6,   -4.6,   -4.6,   -5.0,   -4.9,   -4.3,  999.0,   -2.1,   -2.7,   -3.4,   -3.6,   -2.9,   -2.4,   -1.9,   -1.7,    0.1,    0.9,   -0.0,  999.0,    0.1,   -0.4,   -0.0,   -0.2,    0.1,    0.6,  999.0,  999.0,  999.0,   -0.2,  999.0,  999.0,  999.0,  999.0,  999.0,  999.0,   -9.4,   -9.4,  999.0,  999.0,  999.0,  999.0,  999.0,  999.0,  999.0,  999.0,  999.0,  999.0,  999.0,  999.0,  999.0,  999.0,  999.0,  999.0,  999.0,  999.0,  999.0,  999.0,  999.0,  999.0,  999.0,  999.0,  999.0,  999.0,  999.0,  999.0,  999.0,  999.0,  999.0,  999.0,  999.0,  999.0,  999.0,  999.0,  999.0,  999.0
2006/01/16 21:00,    5.7,    6.4,    6.8,    7.4,    7.4,    5.7,    5.3,    4.5,    3.3,    3.6,    3.5,    3.6,    4.3,    5.0,    5.0,    2.1,    2.4,    2.7,    5.1,    4.1,    4.9,    3.4,    4.6,    3.4,    3.2,    3.4,    2.8,    1.4,    0.5,    0.2,   -2.2,   -2.3,   -2.8,   -3.8,   -4.2,   -3.7,   -2.3,   -1.5,   -3.3,   -4.5,   -4.6,   -4.9,   -6.4,   -5.7,   -4.9,   -4.5,   -4.7,   -4.9,   -5.5,   -4.9,   -4.2,   -2.4,   -1.8,   -2.7,   -3.4,   -3.8,   -3.1,   -2.0,   -1.6,   -1.3,   -0.1,   -0.0,    0.1,    0.0,    0.2,   -0.1,   -0.2,   -0.3,    0.6,  999.0,  999.0,  999.0,  999.0,   -1.3,  999.0,  999.0,  999.0,  999.0,  999.0,   -5.1,  999.0,   -8.9,  -11.7,  999.0,  999.0,  999.0,  999.0,  999.0,  999.0,  999.0,  999.0,  999.0,  999.0,  999.0,  999.0,  999.0,  999.0,  999.0,  999.0,  999.0,  -28.4,  999.0,  -18.6,  -15.8,  999.0,  999.0,  999.0,  999.0,  999.0,  999.0,  999.0,  999.0,  999.0,  999.0,  999.0,  999.0,  999.0,  999.0,  999.0,  999.0
2006/01/16 21:10,    6.6,    7.0,    7.4,    6.9,    6.9,    6.2,    4.9,    3.2,    2.7,    3.7,    5.0,    5.2,    6.2,    7.1,    5.3,    3.2,    3.6,    4.5,    5.2,    4.0,    1.1,    1.5,    3.4,    2.2,    3.8,    3.9,    3.5,    3.1,    2.7,    1.2,   -0.2,   -1.0,   -2.7,   -3.2,   -3.4,   -3.5,   -2.5,   -1.4,   -2.4,   -4.2,   -4.4,   -4.8,   -6.2,   -5.1,   -4.2,   -4.1,   -4.1,   -4.9,   -5.2,   -4.8,   -4.1,   -2.8,   -2.3,   -3.4,   -4.4,   -4.2,   -2.9,   -2.1,   -1.8,   -1.1,   -0.3,   -1.2,   -0.4,   -0.5,   -0.8,   -0.4,   -0.5,   -0.1,    0.5,   -0.4,  999.0,  999.0,  999.0,   -1.3,   -0.9,  999.0,  999.0,  999.0,  999.0,  999.0,  999.0,   -9.7,  999.0,  999.0,  999.0,  999.0,  999.0,  999.0,  999.0,  999.0,  999.0,  999.0,  999.0,  999.0,  999.0,  999.0,  999.0,  999.0,  999.0,  999.0,  999.0,  999.0,  -19.9,  999.0,  999.0,  999.0,  999.0,  999.0,  999.0,  999.0,  999.0,  999.0,  999.0,  999.0,  999.0,  999.0,  999.0,  999.0,  999.0,  999.0
2006/01/16 21:20,    9.5,    9.2,    9.3,    7.6,    6.0,    4.9,    4.6,    2.5,    0.4,    1.8,    1.3,    2.4,    1.9,    1.8,    1.7,    2.0,    1.8,    4.9,    4.3,    0.9,   -1.3,    0.7,    0.9,    2.3,    2.9,    2.9,    2.5,    1.6,    2.2,    0.4,   -0.6,   -0.6,   -1.7,   -2.3,   -2.8,   -3.1,   -2.4,   -1.1,   -1.6,   -3.6,   -4.2,   -4.9,   -6.1,   -5.3,   -4.6,   -4.2,   -4.7,   -5.0,   -5.5,   -5.2,   -4.5,   -3.2,   -3.0,   -3.9,   -4.6,   -4.0,   -3.0,   -2.5,   -2.1,   -1.8,   -1.1,   -1.1,   -0.6,   -1.0,   -1.5,   -0.8,   -0.6,    0.2,    0.2,   -0.1,   -0.4,  999.0,  999.0,   -0.2,   -1.1,  999.0,  999.0,  999.0,  999.0,  999.0,  999.0,  -11.4,  -10.2,  999.0,  -14.6,  999.0,  999.0,  999.0,  999.0,  999.0,  999.0,  999.0,  999.0,  999.0,  999.0,  999.0,  999.0,  999.0,  999.0,  999.0,  -29.1,  -25.4,  999.0,  999.0,  999.0,  999.0,  999.0,  999.0,  999.0,  999.0,  999.0,  999.0,  999.0,  999.0,  999.0,  999.0,  999.0,  999.0,  999.0,  999.0
2006/01/16 21:30,    9.1,    9.7,    9.1,    9.6,    9.3,    8.0,    7.1,    3.6,    3.0,    2.5,    0.7,   -0.1,    0.7,   -0.0,    0.3,   -0.1,   -0.2,   -1.6,   -0.6,   -1.4,   -1.1,    1.3,    1.5,    1.2,    0.6,    0.3,   -0.3,   -0.9,    0.0,    0.1,   -0.7,   -2.0,   -1.9,   -2.2,   -3.4,   -3.3,   -2.5,   -1.3,   -1.9,   -3.7,   -4.7,   -5.5,   -6.1,   -5.7,   -4.7,   -4.1,   -4.5,   -4.9,   -5.1,   -4.6,   -3.7,   -2.4,   -2.9,   -3.5,   -3.9,   -2.5,   -1.4,   -1.2,   -1.2,   -1.9,   -1.0,   -0.6,   -0.4,   -0.5,   -0.9,   -0.8,   -0.3,   -0.5,    1.3,  999.0,    0.7,    1.4,   -0.2,   -1.4,   -2.4,  999.0,   -3.4,  999.0,  999.0,  999.0,   -7.7,  -10.2,  -12.1,  999.0,  -14.9,  -17.3,  999.0,  999.0,  999.0,  999.0,  999.0,  999.0,  999.0,  999.0,  999.0,  999.0,  999.0,  999.0,  999.0,  999.0,  -28.4,  -26.9,  -22.7,  -14.9,  999.0,  999.0,  999.0,  999.0,   -2.6,   -2.7,  999.0,  999.0,  999.0,  999.0,  999.0,  999.0,  999.0,  999.0,  999.0,  999.0
2006/01/16 21:40,    8.5,    9.1,    8.2,    8.4,    8.7,    8.2,    8.6,  999.0,    6.2,    4.1,    3.1,    2.5,    2.7,    2.1,    1.8,    0.6,    0.1,   -0.7,   -0.4,   -0.3,    0.5,    1.8,    2.3,    1.4,    0.8,    1.2,    0.2,    0.3,    0.2,   -0.1,   -0.2,   -2.1,   -2.2,   -2.7,   -4.1,   -3.6,   -2.9,   -2.1,   -2.8,   -3.9,   -5.2,   -5.9,   -6.3,   -6.0,   -5.2,   -4.3,   -4.6,   -5.3,   -5.4,   -4.7,   -3.9,   -2.4,   -3.2,   -4.1,   -4.5,   -3.8,   -1.9,   -1.9,   -2.4,   -2.5,   -2.4,   -2.3,   -0.6,   -0.2,   -1.0,   -1.1,   -1.3,   -0.7,   -0.2,  999.0,    0.6,    1.3,    0.3,   -1.6,   -2.5,   -3.0,  999.0,  999.0,  999.0,  999.0,  999.0,  999.0,  999.0,  999.0,  999.0,  999.0,  -20.1,  999.0,  999.0,  999.0,  999.0,  999.0,  999.0,  999.0,  999.0,  999.0,  999.0,  999.0,  999.0,  999.0,  -28.7,  -29.0,  -22.5,  -17.5,  -12.1,  999.0,  999.0,  999.0,   -2.2,   -2.8,  999.0,  999.0,  999.0,  999.0,  999.0,  999.0,  999.0,  999.0,  999.0,  999.0
2006/01/16 21:50,    8.8,    8.7,    8.8,    8.1,    6.9,    7.1,    7.7,    5.1,    5.4,    3.7,    3.4,    3.5,    2.1,    2.2,    2.6,    1.5,    1.7,    0.6,    1.4,    1.7,    3.0,    1.6,    1.5,    1.0,    0.4,    0.6,   -0.1,    0.2,    0.2,   -0.1,   -0.4,   -1.7,   -2.2,   -2.7,   -3.8,   -3.5,   -2.5,   -2.1,   -2.9,   -3.6,   -4.6,   -5.2,   -5.9,   -5.7,   -5.0,   -4.7,   -5.2,   -5.5,   -5.2,   -4.3,   -3.2,   -3.2,   -3.6,   -3.8,   -3.7,   -3.2,   -2.3,   -2.5,   -3.0,   -2.8,   -2.5,   -2.0,   -0.3,   -0.8,   -1.0,   -0.7,   -0.9,   -0.7,    0.2,    0.2,    0.6,    0.5,    0.9,   -0.7,   -1.5,   -2.5,   -3.2,  999.0,  999.0,  999.0,  999.0,  999.0,  -10.9,  999.0,  999.0,  999.0,  999.0,  999.0,  999.0,  999.0,  999.0,  999.0,  999.0,  999.0,  999.0,  999.0,  999.0,  999.0,  999.0,  999.0,  999.0,  999.0,  999.0,  999.0,   -7.6,  999.0,  999.0,  999.0,   -2.4,   -2.4,   -1.0,   -3.0,  999.0,  999.0,  999.0,  999.0,  999.0,  999.0,  999.0,  999.0
2006/01/16 22:00,    8.2,    7.9,    7.6,    8.3,    7.0,    6.9,    6.6,    4.7,    3.6,    2.6,    2.6,    1.9,    1.1,    1.0,    1.8,    2.1,    2.0,    2.2,    3.2,    3.3,    2.9,    0.3,    0.0,    0.2,   -0.4,   -0.2,   -0.5,   -0.0,    0.2,   -0.1,   -1.0,   -2.0,   -2.3,   -2.9,   -4.0,   -3.8,   -2.6,   -2.0,   -3.4,   -3.6,   -4.4,   -5.2,   -5.8,   -5.7,   -5.2,   -5.1,   -5.7,   -5.6,   -5.4,   -4.3,   -2.9,   -3.3,   -3.5,   -4.0,   -3.2,   -2.3,   -1.7,   -2.0,   -2.4,   -2.3,   -1.8,   -0.9,   -0.0,   -0.2,   -0.6,   -0.1,   -0.4,   -0.5,    0.6,   -0.0,  999.0,    1.6,    0.9,    0.7,   -0.7,   -1.7,  999.0,  999.0,  999.0,  999.0,  999.0,  999.0,  999.0,  999.0,  999.0,  999.0,  999.0,  999.0,  999.0,  999.0,  999.0,  999.0,  999.0,  999.0,  999.0,  999.0,  999.0,  999.0,  999.0,  999.0,  -29.5,  -25.9,  -20.7,  -15.5,  -10.9,  999.0,  999.0,  999.0,  999.0,  999.0,  999.0,  999.0,  999.0,  999.0,  999.0,  999.0,  999.0,  999.0,  999.0,  999.0
2006/01/16 22:10,    7.9,    7.6,    7.0,    7.4,    7.5,    7.0,    7.2,    5.7,    3.9,    3.1,    2.5,    1.6,    0.2,   -0.4,   -0.7,   -0.9,   -0.6,   -0.7,    0.7,    1.2,    1.0,    0.4,   -0.1,   -0.2,   -0.4,   -0.1,   -0.0,    0.1,    0.2,    0.1,   -0.9,   -1.4,   -1.7,   -2.4,   -3.3,   -3.3,   -2.5,   -1.8,   -3.4,   -4.0,   -4.4,   -4.8,   -5.4,   -5.3,   -5.0,   -5.0,   -5.2,   -4.8,   -5.1,   -4.1,   -2.8,   -3.2,   -3.0,   -3.6,   -3.8,   -3.1,   -2.8,   -2.0,   -1.9,   -2.0,   -1.6,   -0.4,    0.0,   -0.4,   -0.4,   -0.3,    0.2,   -0.4,    1.2,  999.0,    1.1,    2.0,    1.3,    0.8,   -0.8,   -1.6,  999.0,  999.0,  999.0,  999.0,  999.0,  999.0,  999.0,  999.0,  999.0,  999.0,  999.0,  999.0,  999.0,  999.0,  999.0,  999.0,  999.0,  999.0,  999.0,  999.0,  999.0,  999.0,  999.0,  999.0,  -28.8,  -26.5,  -20.7,  -13.6,  999.0,  999.0,  999.0,  999.0,   -0.6,   -1.4,  999.0,  999.0,  999.0,  999.0,  999.0,  999.0,  999.0,  999.0,  999.0,  999.0
2006/01/16 22:20,    7.5,    7.0,    7.0,    6.8,    6.8,    6.9,    7.4,    6.3,    5.1,    3.5,    2.3,    1.6,    0.7,    0.1,    0.3,   -0.0,    0.7,    0.4,    0.9,    1.7,    1.6,    1.1,    0.6,    0.3,   -0.2,   -0.4,    0.3,    0.6,    0.2,    0.4,   -0.3,   -1.0,   -1.1,   -1.8,   -2.8,   -2.8,   -2.5,   -1.9,   -3.1,   -3.5,   -4.1,   -5.0,   -5.3,   -5.1,   -4.9,   -4.7,   -4.8,   -4.5,   -4.7,   -4.3,   -3.5,   -3.4,   -3.2,   -3.5,   -4.1,   -3.9,   -3.3,   -3.1,   -2.5,   -1.5,   -1.3,   -1.0,   -0.5,   -0.4,   -0.4,   -0.1,    0.4,    0.2,    1.0,    0.5,    0.7,    2.0,    0.8,   -0.7,   -1.2,   -0.5,   -1.6,  999.0,  999.0,  999.0,  999.0,  999.0,  999.0,  999.0,  999.0,  999.0,  999.0,  999.0,  999.0,  999.0,  999.0,  999.0,  999.0,  999.0,  999.0,  999.0,  999.0,  999.0,  999.0,  999.0,  999.0,  999.0,  999.0,   -9.8,  999.0,  999.0,  999.0,  999.0,   -0.2,   -1.1,  999.0,  999.0,  999.0,  999.0,  999.0,  999.0,  999.0,  999.0,  999.0,  999.0
2006/01/16 22:30,    7.6,    7.6,    7.5,    7.0,    6.7,    7.2,    7.1,    6.0,    5.2,    3.8,    2.7,    1.8,    0.9,    1.2,    1.3,    0.7,    0.7,    1.5,    2.4,    2.1,    1.5,    1.5,    0.8,    0.8,    0.1,   -0.9,   -1.4,   -0.8,   -0.0,    0.2,    0.0,   -0.8,   -1.1,   -2.1,   -3.5,   -3.2,   -2.8,   -1.9,   -3.0,   -3.4,   -4.3,   -5.3,   -5.4,   -5.0,   -5.0,   -5.0,   -5.2,   -5.0,   -4.9,   -4.6,   -4.0,   -3.8,   -4.1,   -4.6,   -4.8,   -4.1,   -3.2,   -3.3,   -2.9,   -1.8,   -1.5,   -1.7,   -0.9,   -0.3,    0.3,    0.1,    0.3,    0.7,    0.9,  999.0,    0.5,   -0.1,    0.6,   -0.8,   -0.9,   -0.3,   -0.5,  999.0,   -5.1,  999.0,  999.0,  999.0,  999.0,  999.0,  999.0,  999.0,  999.0,  999.0,  999.0,  999.0,  999.0,  999.0,  999.0,  999.0,  999.0,  999.0,  999.0,  999.0,  999.0,  999.0,  999.0,  999.0,  -15.6,  999.0,  999.0,  999.0,  999.0,  999.0,    0.0,   -1.0,  999.0,  999.0,   -7.5,  999.0,  999.0,  999.0,  999.0,  999.0,  999.0,  999.0
2006/01/16 22:40,    7.4,    7.8,    7.3,    7.4,    6.8,    6.8,    7.1,    5.6,    4.6,    3.2,    2.2,    1.8,    1.3,    1.5,    2.0,    1.2,    1.0,    1.8,    2.4,    2.0,    1.4,    0.9,    0.8,    0.8,   -0.2,   -1.5,   -1.7,   -1.1,   -0.5,    0.3,    0.6,   -0.3,   -1.0,   -2.3,   -3.2,   -3.4,   -3.1,   -2.3,   -2.9,   -3.3,   -3.8,   -4.4,   -4.8,   -4.6,   -4.3,   -4.3,   -4.5,   -4.8,   -4.5,   -4.0,   -3.7,   -3.4,   -4.0,   -4.7,   -4.7,   -3.5,   -2.3,   -2.7,   -2.5,   -1.7,   -1.6,   -0.7,   -0.1,    0.2,    0.9,    0.4,    0.2,    0.7,    0.9,   -0.2,  999.0,    0.6,    0.6,   -1.2,   -0.7,   -0.5,    0.1,  999.0,   -6.4,   -8.8,  999.0,  999.0,  999.0,  999.0,  999.0,  999.0,  999.0,  999.0,  999.0,  999.0,  999.0,  999.0,  999.0,  999.0,  999.0,  999.0,  999.0,  999.0,  999.0,  999.0,  999.0,  999.0,  -19.9,  999.0,  999.0,  999.0,  999.0,  999.0,    0.0,   -0.6,   -1.7,  999.0,  999.0,  999.0,  999.0,  999.0,  999.0,  999.0,  999.0,  999.0
2006/01/16 22:50,  999.0,    7.5,    7.5,    7.7,    7.2,    7.1,    7.8,    6.1,    5.5,    3.6,    2.0,    2.5,    2.1,    1.5,    1.0,    1.2,    0.8,    1.5,    1.6,    1.6,    1.5,    0.5,    0.5,   -0.7,   -0.9,   -1.1,   -1.2,   -1.1,   -0.8,    0.1,    0.6,   -0.6,   -1.4,   -2.3,   -3.2,   -3.4,   -3.3,   -2.8,   -3.1,   -3.3,   -3.4,   -4.2,   -5.3,   -5.1,   -5.2,   -4.7,   -4.7,   -4.6,   -4.4,   -4.0,   -3.8,   -3.9,   -4.6,   -4.7,   -4.7,   -2.8,   -1.8,   -1.6,   -1.4,   -1.2,   -0.9,    0.3,    0.5,    0.4,    0.6,    0.5,    0.3,    0.9,    1.0,    1.2,  999.0,    0.9,    0.6,   -0.9,   -0.5,   -0.8,  999.0,   -5.4,   -6.8,   -8.4,  -11.0,  999.0,  999.0,  999.0,  999.0,  999.0,  999.0,  999.0,  999.0,  999.0,  999.0,  999.0,  999.0,  999.0,  999.0,  999.0,  999.0,  999.0,  999.0,  999.0,  999.0,  -23.6,  -18.3,  999.0,  999.0,  999.0,   -4.7,  999.0,    0.3,    0.3,  999.0,  999.0,  999.0,  999.0,  999.0,  999.0,  999.0,  999.0,  999.0,  999.0
2006/01/16 23:00,    6.9,    7.5,    7.7,    7.6,    7.4,    6.9,    7.1,    5.9,    5.1,    4.3,    3.0,    2.7,    1.9,    1.3,    1.4,    1.8,    1.3,    1.3,    1.2,    1.1,    1.1,    0.7,    0.1,   -0.8,   -1.7,   -1.6,   -1.3,   -0.7,   -0.8,   -0.2,    0.1,   -1.0,   -1.3,   -2.5,   -3.6,   -3.6,   -3.4,   -2.8,   -3.2,   -3.1,   -3.3,   -4.8,   -5.6,   -5.5,   -5.6,   -5.4,   -5.2,   -4.8,   -4.3,   -3.9,   -3.7,   -4.1,   -5.1,   -4.7,   -4.1,   -3.4,   -1.9,   -1.9,   -1.4,   -1.4,   -0.5,    0.3,    0.2,    0.2,    0.2,    0.3,    0.5,    0.5,    0.8,    0.5,    1.0,    0.6,  999.0,   -0.5,   -0.6,   -0.8,  999.0,  999.0,   -6.4,   -8.3,  -10.7,  999.0,  999.0,  999.0,  999.0,  999.0,  999.0,  999.0,  999.0,  999.0,  999.0,  999.0,  999.0,  999.0,  999.0,  999.0,  999.0,  999.0,  999.0,  999.0,  -28.8,  -24.5,  -18.2,  -11.6,  999.0,  999.0,  999.0,  999.0,  999.0,    1.8,  999.0,  999.0,  999.0,  999.0,  999.0,  999.0,  999.0,  999.0,  999.0,  999.0
2006/01/16 23:10,    2.1,    7.2,    7.2,    7.5,    8.2,    7.8,    7.8,    7.2,    5.8,    4.5,    3.3,    2.5,    1.5,    0.8,    1.6,    2.6,    2.7,    2.6,    2.0,    1.8,    1.0,    0.7,    0.8,    0.3,   -0.8,   -1.7,   -1.2,   -0.0,    0.1,    0.3,   -0.2,   -0.6,   -1.6,   -2.8,   -3.5,   -3.6,   -2.8,   -2.6,   -3.2,   -3.2,   -3.9,   -4.7,   -5.5,   -5.5,   -5.7,   -5.7,   -5.4,   -5.0,   -4.4,   -4.1,   -4.1,   -4.7,   -5.3,   -4.5,   -4.1,   -4.0,   -2.8,   -2.5,   -1.9,   -1.3,   -0.7,   -0.3,    0.0,    0.0,    0.1,    0.1,    0.2,    0.4,    0.8,    0.1,    0.6,    0.2,   -0.0,   -1.5,   -0.3,  999.0,  999.0,  999.0,   -6.2,   -7.8,   -8.8,  999.0,  999.0,  999.0,  999.0,  999.0,  999.0,  999.0,  999.0,  999.0,  999.0,  999.0,  999.0,  999.0,  999.0,  999.0,  999.0,  999.0,  999.0,  999.0,  -29.0,  999.0,  -14.0,  -11.3,  999.0,   -3.4,  999.0,    1.4,    1.2,    2.1,  999.0,  999.0,  999.0,   -3.2,  999.0,  999.0,  999.0,  999.0,  999.0,  999.0
2006/01/16 23:20,    4.6,  999.0,    7.8,    8.3,    8.2,    8.1,    7.9,    7.4,    6.5,    5.4,    3.8,    2.6,    1.9,    0.6,    1.0,    1.9,    2.7,    3.1,    2.5,    2.2,    1.2,    0.3,    1.0,    1.3,    0.9,    0.3,    0.4,    0.7,    0.1,   -0.4,   -1.1,   -1.2,   -1.7,   -2.6,   -3.1,   -3.5,   -2.7,   -3.4,   -3.8,   -3.8,   -4.8,   -5.0,   -5.3,   -5.8,   -5.7,   -5.9,   -6.1,   -5.5,   -4.8,   -4.4,   -4.6,   -5.1,   -5.4,   -4.8,   -4.5,   -4.0,   -3.5,   -2.5,   -2.1,   -1.3,   -1.5,   -1.5,   -0.2,   -0.1,   -0.3,   -0.4,   -0.1,   -0.3,  999.0,   -0.1,   -0.4,   -0.6,   -0.8,   -1.9,   -1.9,  999.0,  999.0,  999.0,   -6.3,  999.0,  999.0,  999.0,  999.0,  999.0,  999.0,  999.0,  999.0,  999.0,  999.0,  999.0,  999.0,  999.0,  999.0,  999.0,  999.0,  999.0,  999.0,  999.0,  999.0,  999.0,  999.0,  -21.9,  -13.7,  999.0,  999.0,  999.0,  999.0,  999.0,    1.6,  999.0,  999.0,  999.0,  999.0,  999.0,   -1.7,  999.0,  999.0,  999.0,  999.0,  999.0
2006/01/16 23:30,    9.0,    9.5,    9.2,    9.1,    8.9,    8.4,    7.8,    6.7,    6.1,    5.9,    4.3,    3.4,    2.9,    1.5,    0.9,    1.8,    2.0,    2.3,    2.2,    1.8,    1.2,   -0.8,   -0.9,   -0.0,    0.6,    0.5,    0.9,    1.1,    0.3,   -0.6,   -0.8,   -1.2,   -1.7,   -2.7,   -2.8,   -2.9,   -2.3,   -2.3,   -2.7,   -2.6,   -3.2,   -3.8,   -4.6,   -5.2,   -4.9,   -5.3,   -5.7,   -5.6,   -4.5,   -4.1,   -4.3,   -5.0,   -4.7,   -4.4,   -3.7,   -2.4,   -2.1,   -1.5,   -1.6,   -1.3,   -1.5,   -1.4,   -0.3,   -0.3,   -0.4,   -0.4,   -0.2,   -0.4,  999.0,    0.0,    0.1,    0.2,   -0.8,   -2.5,   -2.5,  999.0,  999.0,  999.0,  999.0,  999.0,  999.0,  999.0,  999.0,  999.0,  999.0,  999.0,  999.0,  999.0,  999.0,  999.0,  999.0,  999.0,  999.0,  999.0,  999.0,  999.0,  999.0,  999.0,  999.0,  999.0,  999.0,  999.0,  999.0,  999.0,  999.0,  999.0,  999.0,  999.0,  999.0,  999.0,  999.0,  999.0,  999.0,  999.0,  999.0,  999.0,  999.0,  999.0,  999.0,  999.0
2006/01/16 23:40,    9.5,   10.0,   10.0,    9.8,    9.7,    8.9,    8.1,    6.3,    5.9,    5.6,    4.0,    3.3,    3.1,    2.4,    1.6,    2.2,    1.8,    2.0,    1.9,    1.9,    2.0,    0.2,   -0.1,   -0.6,   -0.1,    0.1,    0.9,    1.1,    0.3,   -0.4,   -0.1,   -0.3,   -1.6,   -2.3,   -2.2,   -1.8,   -1.8,   -1.8,   -1.9,   -2.2,   -3.0,   -3.9,   -4.4,   -5.0,   -4.9,   -5.4,   -5.5,   -6.0,   -5.5,   -4.7,   -4.4,   -5.4,   -5.6,   -4.7,   -4.4,   -2.9,   -2.5,   -1.6,   -1.5,   -0.9,   -1.2,   -1.2,   -0.4,   -0.3,   -0.5,   -0.3,   -0.2,   -0.2,  999.0,  999.0,    0.1,    0.5,   -0.8,   -2.5,   -2.7,   -2.9,  999.0,  999.0,  999.0,  999.0,  999.0,  999.0,  999.0,  999.0,  999.0,  999.0,  999.0,  999.0,  999.0,  999.0,  999.0,  999.0,  999.0,  999.0,  999.0,  999.0,  999.0,  999.0,  999.0,  999.0,  999.0,  -10.6,  999.0,  999.0,  999.0,  999.0,  999.0,  999.0,  999.0,  999.0,  999.0,  999.0,  999.0,  999.0,  999.0,  999.0,  999.0,  999.0,  999.0,  999.0
